GFSNE_prec_pwat_012.txt.gz
Precipitable_Water
0.43 0.42 0.39 0.43 0.48 0.54 0.61 0.63 0.56 0.45 0.43 0.46 0.53 0.64 0.69 0.72 0.74 0.79 0.84 0.90 0.95 0.98 1.01 1.05 1.11 1.19 1.24 1.25 1.22 1.19 1.15 1.18 1.21 1.19 1.13 1.13 1.21 1.25
0.28 0.26 0.26 0.32 0.40 0.48 0.47 0.47 0.44 0.44 0.39 0.40 0.43 0.51 0.56 0.61 0.65 0.69 0.70 0.72 0.74 0.80 0.90 0.97 1.01 1.04 1.09 1.19 1.23 1.19 1.16 1.18 1.19 1.21 1.18 1.10 1.09 1.19
0.22 0.24 0.28 0.35 0.42 0.41 0.42 0.38 0.34 0.40 0.41 0.38 0.39 0.36 0.35 0.42 0.52 0.63 0.67 0.73 0.78 0.78 0.80 0.84 0.90 0.98 1.01 1.05 1.13 1.20 1.22 1.19 1.19 1.20 1.19 1.19 1.10 1.10
0.24 0.27 0.30 0.35 0.30 0.33 0.34 0.30 0.33 0.44 0.38 0.32 0.30 0.30 0.33 0.34 0.39 0.45 0.52 0.58 0.64 0.75 0.79 0.82 0.89 0.90 0.98 0.99 1.01 1.05 1.13 1.20 1.22 1.21 1.22 1.21 1.16 1.11
0.27 0.23 0.21 0.23 0.22 0.23 0.24 0.25 0.33 0.39 0.36 0.30 0.26 0.30 0.30 0.30 0.34 0.39 0.40 0.45 0.55 0.65 0.71 0.82 0.86 0.90 0.90 0.93 0.96 0.95 0.99 1.05 1.16 1.16 1.16 1.22 1.21 1.14
0.23 0.21 0.19 0.19 0.20 0.22 0.22 0.24 0.32 0.33 0.32 0.31 0.29 0.27 0.26 0.28 0.32 0.30 0.31 0.40 0.43 0.52 0.61 0.65 0.71 0.77 0.83 0.82 0.87 0.91 0.96 1.00 1.02 1.03 1.03 1.14 1.19 1.22
0.20 0.20 0.20 0.21 0.22 0.24 0.26 0.25 0.28 0.29 0.28 0.29 0.27 0.26 0.23 0.22 0.24 0.30 0.32 0.35 0.42 0.49 0.51 0.53 0.59 0.62 0.70 0.73 0.76 0.83 0.91 0.93 0.98 0.96 0.99 1.09 1.16 1.22
0.18 0.19 0.21 0.22 0.24 0.27 0.27 0.28 0.29 0.27 0.24 0.23 0.24 0.22 0.21 0.22 0.27 0.31 0.35 0.33 0.28 0.48 0.49 0.49 0.58 0.59 0.60 0.59 0.62 0.71 0.77 0.87 0.90 0.95 0.99 1.08 1.14 1.12
0.20 0.20 0.21 0.24 0.27 0.27 0.26 0.27 0.28 0.28 0.27 0.25 0.23 0.23 0.24 0.25 0.34 0.32 0.31 0.35 0.34 0.42 0.48 0.41 0.52 0.50 0.59 0.60 0.63 0.67 0.74 0.79 0.89 0.94 0.98 1.05 1.08 1.06
0.22 0.23 0.25 0.26 0.25 0.26 0.27 0.29 0.30 0.25 0.24 0.29 0.31 0.34 0.36 0.41 0.39 0.33 0.36 0.38 0.40 0.45 0.52 0.41 0.52 0.49 0.57 0.58 0.60 0.66 0.69 0.75 0.85 0.93 1.00 0.99 1.00 0.98
0.23 0.25 0.28 0.25 0.25 0.28 0.28 0.25 0.23 0.24 0.25 0.25 0.30 0.33 0.34 0.32 0.34 0.37 0.35 0.36 0.33 0.37 0.47 0.46 0.47 0.48 0.50 0.50 0.59 0.62 0.69 0.76 0.84 0.93 0.93 0.91 0.89 0.88
0.25 0.27 0.24 0.25 0.26 0.27 0.24 0.24 0.22 0.20 0.20 0.23 0.26 0.27 0.30 0.34 0.37 0.40 0.40 0.35 0.36 0.35 0.45 0.44 0.46 0.46 0.41 0.48 0.54 0.65 0.71 0.74 0.80 0.87 0.85 0.83 0.82 0.79
0.24 0.20 0.22 0.27 0.28 0.23 0.23 0.24 0.21 0.23 0.23 0.23 0.24 0.27 0.32 0.36 0.40 0.43 0.44 0.41 0.37 0.37 0.44 0.45 0.41 0.43 0.44 0.44 0.54 0.63 0.67 0.73 0.78 0.78 0.77 0.77 0.76 0.74
0.21 0.21 0.27 0.29 0.23 0.21 0.22 0.22 0.22 0.22 0.21 0.23 0.24 0.28 0.32 0.36 0.39 0.42 0.44 0.45 0.45 0.42 0.44 0.47 0.41 0.43 0.43 0.45 0.49 0.58 0.62 0.67 0.70 0.68 0.69 0.71 0.71 0.70
0.23 0.29 0.26 0.24 0.20 0.20 0.21 0.21 0.19 0.19 0.21 0.22 0.26 0.31 0.34 0.37 0.41 0.41 0.43 0.44 0.44 0.45 0.46 0.47 0.48 0.49 0.49 0.48 0.51 0.54 0.56 0.59 0.63 0.63 0.64 0.65 0.65 0.65
0.27 0.28 0.23 0.20 0.19 0.20 0.19 0.18 0.18 0.20 0.22 0.26 0.29 0.32 0.35 0.37 0.38 0.39 0.38 0.40 0.41 0.43 0.48 0.50 0.52 0.52 0.51 0.52 0.53 0.52 0.55 0.52 0.57 0.59 0.60 0.60 0.60 0.60
0.23 0.20 0.19 0.18 0.17 0.17 0.18 0.17 0.18 0.20 0.25 0.29 0.30 0.32 0.34 0.36 0.36 0.39 0.40 0.41 0.40 0.41 0.42 0.46 0.49 0.51 0.52 0.51 0.49 0.51 0.52 0.52 0.54 0.55 0.55 0.53 0.52 0.50
0.18 0.17 0.19 0.18 0.17 0.17 0.17 0.16 0.18 0.23 0.28 0.31 0.33 0.33 0.33 0.35 0.36 0.40 0.42 0.41 0.40 0.41 0.42 0.44 0.45 0.45 0.46 0.49 0.52 0.48 0.50 0.49 0.51 0.50 0.46 0.40 0.38 0.39
0.17 0.19 0.18 0.17 0.17 0.18 0.17 0.18 0.22 0.27 0.32 0.33 0.33 0.33 0.35 0.37 0.38 0.39 0.40 0.41 0.40 0.41 0.41 0.43 0.40 0.38 0.32 0.33 0.41 0.41 0.33 0.34 0.35 0.34 0.33 0.31 0.27 0.25
0.19 0.19 0.18 0.18 0.18 0.18 0.18 0.22 0.25 0.31 0.33 0.33 0.33 0.35 0.38 0.38 0.38 0.39 0.40 0.39 0.40 0.40 0.38 0.33 0.30 0.28 0.26 0.24 0.25 0.28 0.30 0.26 0.27 0.25 0.24 0.26 0.27 0.28
0.19 0.19 0.19 0.18 0.19 0.19 0.22 0.25 0.31 0.32 0.33 0.34 0.35 0.37 0.38 0.39 0.39 0.40 0.40 0.40 0.37 0.31 0.26 0.25 0.25 0.28 0.28 0.28 0.24 0.25 0.28 0.31 0.28 0.25 0.25 0.23 0.23 0.24
0.19 0.19 0.19 0.19 0.20 0.21 0.25 0.30 0.32 0.33 0.34 0.35 0.36 0.38 0.39 0.40 0.39 0.38 0.35 0.31 0.29 0.26 0.24 0.27 0.30 0.30 0.29 0.27 0.25 0.26 0.27 0.30 0.34 0.34 0.37 0.39 0.36 0.32
0.20 0.19 0.19 0.20 0.21 0.25 0.30 0.33 0.33 0.34 0.35 0.36 0.38 0.39 0.37 0.33 0.32 0.30 0.27 0.26 0.25 0.26 0.28 0.30 0.35 0.38 0.38 0.37 0.36 0.35 0.34 0.33 0.33 0.32 0.33 0.35 0.35 0.37

GFSNE_prec_pwat_015.txt.gz
Precipitable_Water
0.27 0.24 0.24 0.26 0.32 0.36 0.41 0.47 0.40 0.34 0.27 0.25 0.30 0.40 0.50 0.50 0.46 0.41 0.44 0.52 0.62 0.69 0.74 0.74 0.75 0.79 0.90 1.01 1.07 1.10 1.17 1.24 1.25 1.29 1.27 1.26 1.24 1.24
0.23 0.23 0.26 0.28 0.31 0.36 0.35 0.35 0.39 0.33 0.28 0.28 0.29 0.40 0.42 0.39 0.36 0.37 0.37 0.35 0.36 0.42 0.50 0.59 0.71 0.76 0.81 0.86 0.96 1.02 1.06 1.12 1.18 1.22 1.23 1.22 1.23 1.24
0.23 0.25 0.26 0.28 0.22 0.22 0.25 0.25 0.24 0.23 0.22 0.22 0.30 0.37 0.36 0.32 0.31 0.33 0.30 0.27 0.37 0.43 0.43 0.44 0.50 0.65 0.79 0.82 0.85 0.91 1.00 1.05 1.09 1.17 1.22 1.23 1.25 1.24
0.21 0.24 0.21 0.20 0.18 0.19 0.19 0.21 0.24 0.26 0.25 0.25 0.34 0.31 0.29 0.32 0.34 0.33 0.30 0.34 0.32 0.31 0.36 0.46 0.46 0.52 0.60 0.76 0.83 0.87 0.90 0.97 1.02 1.07 1.11 1.21 1.19 1.21
0.20 0.19 0.17 0.17 0.16 0.18 0.21 0.22 0.25 0.27 0.28 0.28 0.27 0.30 0.31 0.34 0.31 0.31 0.31 0.30 0.31 0.32 0.33 0.36 0.43 0.48 0.50 0.60 0.72 0.85 0.90 0.93 0.94 1.00 1.02 1.06 1.10 1.11
0.19 0.19 0.18 0.18 0.19 0.21 0.22 0.25 0.26 0.25 0.25 0.25 0.25 0.24 0.24 0.26 0.27 0.23 0.22 0.25 0.25 0.31 0.36 0.38 0.37 0.40 0.46 0.55 0.63 0.74 0.81 0.88 0.91 0.89 0.94 0.98 1.06 1.08
0.19 0.18 0.19 0.21 0.23 0.25 0.26 0.25 0.26 0.25 0.25 0.24 0.23 0.24 0.23 0.21 0.20 0.23 0.23 0.23 0.26 0.36 0.34 0.29 0.37 0.39 0.49 0.54 0.58 0.65 0.69 0.79 0.78 0.77 0.86 0.95 0.99 0.99
0.18 0.19 0.21 0.22 0.24 0.27 0.26 0.26 0.27 0.27 0.25 0.27 0.24 0.22 0.21 0.23 0.26 0.27 0.29 0.28 0.26 0.36 0.29 0.29 0.38 0.38 0.43 0.46 0.52 0.57 0.62 0.68 0.68 0.71 0.76 0.86 0.86 0.91
0.20 0.20 0.21 0.24 0.27 0.26 0.25 0.27 0.30 0.26 0.24 0.24 0.23 0.24 0.24 0.22 0.27 0.28 0.31 0.31 0.30 0.32 0.30 0.29 0.36 0.38 0.46 0.51 0.54 0.56 0.60 0.61 0.63 0.67 0.70 0.76 0.82 0.89
0.21 0.22 0.23 0.25 0.24 0.24 0.25 0.30 0.23 0.20 0.22 0.25 0.24 0.23 0.25 0.27 0.28 0.28 0.28 0.28 0.29 0.30 0.37 0.31 0.39 0.38 0.44 0.53 0.57 0.59 0.60 0.57 0.58 0.62 0.65 0.70 0.76 0.83
0.22 0.23 0.27 0.22 0.23 0.27 0.31 0.24 0.20 0.19 0.23 0.24 0.24 0.25 0.26 0.26 0.30 0.31 0.28 0.28 0.26 0.28 0.38 0.36 0.36 0.40 0.46 0.48 0.54 0.57 0.57 0.56 0.59 0.61 0.65 0.70 0.75 0.87
0.23 0.26 0.23 0.22 0.25 0.31 0.26 0.22 0.18 0.19 0.22 0.22 0.20 0.20 0.25 0.27 0.31 0.33 0.34 0.30 0.30 0.29 0.37 0.35 0.37 0.38 0.35 0.45 0.48 0.54 0.56 0.58 0.64 0.66 0.72 0.75 0.76 0.80
0.24 0.21 0.21 0.22 0.31 0.25 0.23 0.21 0.20 0.23 0.22 0.18 0.18 0.21 0.24 0.28 0.33 0.36 0.39 0.36 0.33 0.32 0.38 0.39 0.37 0.38 0.36 0.36 0.43 0.49 0.54 0.61 0.68 0.70 0.72 0.72 0.75 0.81
0.22 0.22 0.24 0.29 0.23 0.21 0.20 0.21 0.22 0.22 0.19 0.18 0.20 0.21 0.27 0.30 0.33 0.36 0.38 0.39 0.40 0.37 0.41 0.40 0.34 0.35 0.35 0.36 0.37 0.46 0.52 0.58 0.64 0.65 0.65 0.67 0.69 0.76
0.23 0.26 0.24 0.19 0.19 0.20 0.20 0.20 0.20 0.19 0.18 0.19 0.21 0.25 0.29 0.31 0.34 0.36 0.37 0.41 0.40 0.41 0.41 0.40 0.38 0.39 0.39 0.38 0.38 0.43 0.47 0.52 0.60 0.59 0.60 0.62 0.65 0.69
0.27 0.21 0.19 0.18 0.20 0.20 0.19 0.19 0.19 0.19 0.20 0.23 0.25 0.29 0.32 0.33 0.33 0.34 0.34 0.35 0.36 0.37 0.41 0.42 0.42 0.42 0.41 0.42 0.42 0.42 0.47 0.47 0.54 0.56 0.58 0.62 0.63 0.64
0.21 0.19 0.17 0.19 0.18 0.17 0.18 0.18 0.18 0.21 0.23 0.27 0.29 0.30 0.31 0.31 0.31 0.34 0.35 0.37 0.36 0.37 0.39 0.42 0.44 0.45 0.46 0.44 0.41 0.44 0.47 0.49 0.53 0.54 0.55 0.53 0.56 0.59
0.19 0.17 0.17 0.18 0.17 0.17 0.17 0.16 0.20 0.24 0.28 0.30 0.30 0.30 0.30 0.30 0.32 0.36 0.38 0.38 0.37 0.37 0.38 0.40 0.41 0.41 0.43 0.45 0.49 0.45 0.47 0.48 0.51 0.53 0.53 0.49 0.48 0.53
0.18 0.18 0.18 0.18 0.17 0.17 0.18 0.21 0.24 0.29 0.31 0.30 0.30 0.31 0.33 0.34 0.36 0.36 0.38 0.38 0.37 0.37 0.38 0.39 0.38 0.35 0.37 0.36 0.43 0.49 0.46 0.47 0.48 0.48 0.49 0.48 0.47 0.49
0.19 0.19 0.18 0.18 0.18 0.18 0.21 0.25 0.29 0.30 0.30 0.31 0.32 0.33 0.34 0.36 0.36 0.36 0.37 0.37 0.37 0.37 0.33 0.32 0.32 0.31 0.33 0.37 0.37 0.38 0.44 0.46 0.46 0.44 0.44 0.44 0.44 0.44
0.19 0.19 0.18 0.18 0.19 0.21 0.25 0.30 0.30 0.31 0.32 0.32 0.34 0.34 0.36 0.36 0.36 0.37 0.37 0.36 0.33 0.29 0.26 0.26 0.28 0.30 0.27 0.27 0.24 0.25 0.31 0.36 0.37 0.32 0.31 0.29 0.28 0.28
0.19 0.18 0.18 0.20 0.21 0.25 0.30 0.31 0.31 0.32 0.33 0.33 0.34 0.36 0.36 0.35 0.33 0.31 0.28 0.26 0.24 0.24 0.26 0.30 0.33 0.33 0.30 0.27 0.26 0.27 0.28 0.30 0.31 0.30 0.31 0.30 0.27 0.23
0.19 0.18 0.19 0.21 0.24 0.31 0.31 0.32 0.32 0.33 0.34 0.35 0.33 0.31 0.29 0.26 0.25 0.26 0.28 0.32 0.34 0.34 0.35 0.37 0.39 0.40 0.38 0.37 0.34 0.33 0.32 0.33 0.33 0.33 0.36 0.41 0.41 0.38

GFSNE_prec_pwat_018.txt.gz
Precipitable_Water
0.23 0.24 0.22 0.23 0.26 0.27 0.28 0.27 0.27 0.18 0.19 0.18 0.21 0.23 0.23 0.27 0.27 0.44 0.46 0.40 0.37 0.37 0.34 0.35 0.41 0.48 0.58 0.67 0.73 0.74 0.81 0.89 1.00 1.07 1.12 1.17 1.19 1.35
0.20 0.21 0.21 0.22 0.24 0.23 0.21 0.20 0.23 0.21 0.18 0.18 0.18 0.20 0.24 0.26 0.37 0.39 0.37 0.35 0.35 0.38 0.34 0.29 0.34 0.44 0.40 0.40 0.53 0.66 0.75 0.80 0.84 0.94 1.02 1.11 1.13 1.11
0.19 0.20 0.20 0.24 0.21 0.20 0.20 0.20 0.20 0.21 0.21 0.20 0.25 0.24 0.23 0.25 0.28 0.30 0.31 0.34 0.35 0.34 0.30 0.39 0.36 0.31 0.35 0.44 0.42 0.46 0.59 0.72 0.83 0.86 0.93 1.00 1.10 1.12
0.19 0.19 0.20 0.21 0.20 0.20 0.20 0.20 0.23 0.25 0.25 0.24 0.24 0.24 0.24 0.26 0.28 0.30 0.29 0.31 0.31 0.31 0.29 0.29 0.30 0.31 0.32 0.32 0.41 0.47 0.47 0.55 0.70 0.83 0.84 0.91 1.01 1.10
0.20 0.20 0.20 0.21 0.19 0.20 0.21 0.22 0.24 0.26 0.26 0.23 0.22 0.26 0.26 0.27 0.26 0.28 0.29 0.28 0.26 0.29 0.31 0.31 0.32 0.35 0.35 0.36 0.33 0.33 0.42 0.48 0.59 0.71 0.84 0.88 0.94 1.03
0.21 0.22 0.21 0.21 0.21 0.21 0.22 0.23 0.26 0.25 0.23 0.24 0.25 0.25 0.25 0.24 0.25 0.23 0.21 0.22 0.26 0.31 0.32 0.35 0.36 0.40 0.42 0.33 0.36 0.37 0.44 0.47 0.54 0.69 0.80 0.89 0.91 0.94
0.22 0.21 0.21 0.22 0.23 0.24 0.25 0.26 0.26 0.22 0.24 0.25 0.24 0.21 0.19 0.19 0.20 0.22 0.25 0.24 0.22 0.28 0.31 0.35 0.38 0.43 0.41 0.35 0.37 0.39 0.40 0.43 0.50 0.60 0.76 0.81 0.82 0.85
0.20 0.20 0.21 0.21 0.22 0.24 0.26 0.26 0.25 0.26 0.25 0.27 0.23 0.19 0.18 0.22 0.23 0.21 0.21 0.21 0.19 0.24 0.29 0.30 0.34 0.32 0.31 0.31 0.34 0.39 0.42 0.44 0.48 0.52 0.63 0.74 0.79 0.78
0.21 0.20 0.20 0.21 0.23 0.25 0.24 0.24 0.27 0.31 0.30 0.27 0.23 0.21 0.21 0.22 0.23 0.22 0.23 0.24 0.23 0.24 0.28 0.25 0.28 0.29 0.32 0.36 0.38 0.41 0.44 0.48 0.50 0.53 0.56 0.61 0.66 0.71
0.21 0.21 0.20 0.22 0.25 0.24 0.22 0.25 0.30 0.26 0.24 0.23 0.22 0.23 0.26 0.28 0.25 0.24 0.24 0.26 0.27 0.29 0.34 0.27 0.33 0.31 0.37 0.39 0.41 0.44 0.48 0.48 0.53 0.53 0.54 0.59 0.58 0.65
0.21 0.21 0.24 0.24 0.23 0.24 0.26 0.28 0.25 0.22 0.21 0.22 0.26 0.26 0.24 0.22 0.24 0.26 0.24 0.25 0.24 0.28 0.36 0.33 0.34 0.35 0.38 0.38 0.37 0.41 0.48 0.51 0.51 0.51 0.52 0.56 0.58 0.63
0.21 0.24 0.24 0.23 0.24 0.27 0.28 0.21 0.21 0.19 0.20 0.23 0.22 0.20 0.21 0.22 0.25 0.28 0.31 0.27 0.28 0.28 0.35 0.32 0.33 0.32 0.31 0.37 0.45 0.47 0.48 0.50 0.49 0.50 0.53 0.56 0.57 0.58
0.23 0.22 0.23 0.24 0.26 0.24 0.22 0.22 0.21 0.22 0.21 0.21 0.19 0.19 0.21 0.24 0.28 0.32 0.33 0.31 0.29 0.29 0.35 0.35 0.34 0.34 0.35 0.34 0.37 0.42 0.44 0.48 0.53 0.59 0.61 0.64 0.62 0.66
0.22 0.22 0.24 0.26 0.22 0.21 0.21 0.22 0.21 0.22 0.20 0.19 0.19 0.20 0.23 0.26 0.30 0.33 0.34 0.34 0.36 0.35 0.38 0.39 0.34 0.34 0.33 0.32 0.33 0.40 0.45 0.51 0.55 0.58 0.62 0.68 0.68 0.71
0.23 0.25 0.26 0.21 0.21 0.20 0.22 0.21 0.21 0.20 0.20 0.20 0.22 0.24 0.28 0.31 0.32 0.33 0.34 0.35 0.36 0.38 0.40 0.40 0.37 0.36 0.35 0.33 0.34 0.38 0.41 0.47 0.54 0.58 0.60 0.61 0.63 0.67
0.26 0.26 0.21 0.21 0.20 0.20 0.20 0.20 0.20 0.21 0.23 0.24 0.26 0.29 0.31 0.31 0.31 0.32 0.32 0.33 0.33 0.35 0.41 0.40 0.39 0.38 0.35 0.36 0.38 0.38 0.42 0.40 0.51 0.55 0.56 0.59 0.62 0.65
0.24 0.20 0.19 0.19 0.18 0.18 0.18 0.19 0.21 0.24 0.26 0.29 0.29 0.28 0.29 0.29 0.30 0.33 0.34 0.35 0.34 0.35 0.35 0.38 0.40 0.40 0.39 0.39 0.37 0.40 0.41 0.43 0.49 0.52 0.54 0.53 0.57 0.59
0.20 0.18 0.18 0.18 0.17 0.17 0.18 0.20 0.24 0.28 0.29 0.29 0.28 0.29 0.29 0.31 0.32 0.35 0.37 0.36 0.34 0.34 0.34 0.36 0.37 0.37 0.38 0.39 0.42 0.39 0.41 0.43 0.47 0.51 0.52 0.49 0.48 0.55
0.18 0.19 0.18 0.18 0.17 0.19 0.21 0.25 0.27 0.29 0.30 0.30 0.30 0.31 0.32 0.33 0.34 0.35 0.35 0.35 0.34 0.35 0.35 0.36 0.34 0.35 0.34 0.32 0.38 0.44 0.41 0.44 0.46 0.46 0.48 0.47 0.46 0.51
0.19 0.19 0.18 0.17 0.19 0.21 0.25 0.28 0.28 0.29 0.30 0.31 0.31 0.32 0.33 0.33 0.34 0.34 0.35 0.35 0.34 0.31 0.30 0.33 0.33 0.36 0.35 0.35 0.36 0.41 0.48 0.45 0.46 0.44 0.45 0.48 0.50 0.54
0.19 0.18 0.18 0.20 0.22 0.26 0.29 0.29 0.30 0.30 0.31 0.32 0.33 0.33 0.32 0.32 0.30 0.29 0.29 0.29 0.28 0.27 0.27 0.29 0.30 0.32 0.37 0.41 0.38 0.38 0.43 0.49 0.49 0.46 0.46 0.44 0.42 0.43
0.19 0.18 0.20 0.23 0.27 0.29 0.30 0.30 0.31 0.32 0.32 0.32 0.30 0.29 0.30 0.29 0.28 0.29 0.31 0.33 0.33 0.31 0.32 0.35 0.36 0.33 0.29 0.26 0.28 0.36 0.39 0.43 0.47 0.47 0.47 0.44 0.39 0.35
0.19 0.20 0.23 0.27 0.30 0.31 0.31 0.31 0.32 0.31 0.30 0.30 0.31 0.34 0.36 0.35 0.35 0.35 0.36 0.37 0.37 0.37 0.38 0.38 0.39 0.34 0.31 0.29 0.28 0.28 0.29 0.29 0.29 0.29 0.32 0.35 0.33 0.32

GFSNE_prec_pwat_021.txt.gz
Precipitable_Water
0.21 0.21 0.21 0.21 0.22 0.22 0.25 0.24 0.20 0.15 0.13 0.16 0.17 0.20 0.24 0.25 0.26 0.29 0.26 0.31 0.35 0.37 0.34 0.31 0.35 0.42 0.38 0.36 0.40 0.48 0.57 0.57 0.67 0.78 0.85 0.91 0.95 1.02
0.20 0.20 0.20 0.21 0.21 0.23 0.24 0.23 0.22 0.20 0.16 0.19 0.18 0.22 0.24 0.29 0.27 0.28 0.30 0.29 0.28 0.28 0.31 0.33 0.35 0.34 0.35 0.37 0.43 0.41 0.42 0.48 0.58 0.59 0.69 0.81 0.89 0.98
0.20 0.20 0.20 0.21 0.22 0.22 0.23 0.22 0.22 0.23 0.21 0.20 0.23 0.25 0.24 0.24 0.25 0.29 0.29 0.31 0.29 0.29 0.29 0.31 0.32 0.30 0.29 0.31 0.33 0.35 0.34 0.37 0.42 0.55 0.56 0.67 0.85 0.93
0.19 0.20 0.21 0.22 0.22 0.23 0.23 0.22 0.23 0.24 0.22 0.21 0.24 0.24 0.22 0.25 0.28 0.29 0.27 0.28 0.26 0.25 0.27 0.28 0.28 0.30 0.32 0.31 0.32 0.35 0.39 0.39 0.43 0.40 0.44 0.47 0.62 0.81
0.20 0.20 0.21 0.23 0.22 0.22 0.22 0.23 0.22 0.24 0.27 0.25 0.22 0.23 0.24 0.28 0.27 0.25 0.21 0.20 0.24 0.26 0.27 0.29 0.30 0.30 0.34 0.34 0.34 0.37 0.37 0.43 0.37 0.40 0.44 0.51 0.54 0.67
0.21 0.22 0.23 0.23 0.22 0.22 0.22 0.24 0.26 0.26 0.25 0.24 0.22 0.24 0.27 0.28 0.27 0.22 0.19 0.23 0.23 0.24 0.25 0.24 0.24 0.27 0.29 0.34 0.40 0.44 0.46 0.40 0.36 0.43 0.44 0.47 0.57 0.65
0.21 0.23 0.23 0.23 0.23 0.24 0.24 0.25 0.26 0.26 0.24 0.22 0.23 0.26 0.25 0.22 0.20 0.21 0.20 0.21 0.21 0.25 0.23 0.24 0.27 0.29 0.30 0.35 0.36 0.37 0.38 0.35 0.35 0.38 0.41 0.44 0.51 0.60
0.21 0.21 0.22 0.21 0.22 0.23 0.25 0.25 0.27 0.26 0.23 0.25 0.25 0.25 0.22 0.21 0.20 0.21 0.22 0.21 0.17 0.23 0.23 0.22 0.27 0.26 0.28 0.30 0.34 0.37 0.38 0.37 0.37 0.42 0.43 0.43 0.45 0.52
0.21 0.21 0.20 0.21 0.23 0.24 0.24 0.26 0.27 0.27 0.30 0.27 0.24 0.24 0.20 0.20 0.23 0.23 0.23 0.21 0.18 0.20 0.25 0.22 0.29 0.30 0.34 0.36 0.36 0.35 0.37 0.40 0.39 0.39 0.41 0.43 0.46 0.47
0.22 0.22 0.21 0.22 0.23 0.25 0.25 0.28 0.28 0.28 0.25 0.24 0.24 0.23 0.23 0.26 0.28 0.25 0.21 0.21 0.24 0.26 0.30 0.24 0.34 0.30 0.36 0.37 0.37 0.35 0.37 0.38 0.40 0.38 0.43 0.46 0.47 0.49
0.22 0.23 0.23 0.24 0.24 0.26 0.27 0.27 0.23 0.21 0.23 0.25 0.25 0.25 0.25 0.24 0.24 0.23 0.21 0.22 0.21 0.25 0.31 0.28 0.31 0.34 0.34 0.33 0.35 0.35 0.42 0.43 0.42 0.41 0.43 0.45 0.44 0.45
0.22 0.24 0.24 0.23 0.25 0.28 0.27 0.22 0.21 0.20 0.24 0.23 0.22 0.21 0.22 0.22 0.24 0.26 0.27 0.24 0.25 0.25 0.29 0.28 0.30 0.31 0.27 0.34 0.37 0.40 0.38 0.38 0.41 0.40 0.41 0.40 0.40 0.41
0.23 0.22 0.23 0.23 0.27 0.27 0.23 0.22 0.21 0.25 0.23 0.21 0.20 0.21 0.22 0.24 0.27 0.29 0.31 0.30 0.27 0.26 0.31 0.31 0.30 0.31 0.31 0.31 0.34 0.36 0.39 0.41 0.42 0.44 0.49 0.49 0.48 0.47
0.23 0.22 0.22 0.28 0.25 0.22 0.23 0.22 0.23 0.22 0.20 0.20 0.22 0.23 0.25 0.28 0.30 0.31 0.32 0.33 0.34 0.32 0.35 0.35 0.31 0.32 0.31 0.30 0.31 0.36 0.38 0.41 0.45 0.49 0.54 0.59 0.59 0.59
0.23 0.23 0.28 0.22 0.21 0.21 0.21 0.21 0.21 0.20 0.22 0.23 0.25 0.27 0.29 0.30 0.31 0.31 0.32 0.33 0.34 0.35 0.36 0.38 0.36 0.36 0.34 0.30 0.31 0.34 0.36 0.42 0.48 0.50 0.53 0.56 0.56 0.60
0.25 0.26 0.21 0.20 0.21 0.20 0.20 0.20 0.21 0.24 0.26 0.27 0.27 0.28 0.29 0.30 0.30 0.32 0.31 0.33 0.33 0.33 0.40 0.40 0.38 0.36 0.32 0.33 0.34 0.34 0.39 0.38 0.47 0.50 0.54 0.57 0.62 0.64
0.23 0.21 0.19 0.19 0.18 0.18 0.19 0.21 0.24 0.28 0.28 0.28 0.28 0.28 0.29 0.30 0.31 0.33 0.34 0.35 0.33 0.32 0.33 0.36 0.38 0.38 0.37 0.36 0.34 0.37 0.39 0.41 0.47 0.49 0.53 0.52 0.58 0.61
0.20 0.18 0.18 0.19 0.17 0.18 0.20 0.24 0.28 0.28 0.29 0.29 0.30 0.30 0.30 0.30 0.31 0.33 0.35 0.34 0.32 0.33 0.33 0.34 0.35 0.34 0.35 0.37 0.40 0.37 0.40 0.42 0.46 0.48 0.52 0.49 0.50 0.58
0.18 0.19 0.19 0.18 0.18 0.21 0.26 0.27 0.27 0.29 0.31 0.31 0.30 0.31 0.31 0.32 0.32 0.32 0.32 0.33 0.32 0.32 0.33 0.35 0.34 0.33 0.30 0.29 0.37 0.44 0.40 0.43 0.44 0.45 0.48 0.49 0.49 0.53
0.19 0.19 0.18 0.19 0.21 0.26 0.28 0.28 0.29 0.30 0.31 0.31 0.31 0.31 0.31 0.31 0.31 0.30 0.29 0.29 0.30 0.30 0.32 0.33 0.34 0.34 0.33 0.31 0.33 0.38 0.46 0.43 0.44 0.43 0.44 0.49 0.53 0.57
0.20 0.19 0.20 0.22 0.27 0.29 0.29 0.30 0.30 0.31 0.31 0.31 0.31 0.32 0.33 0.33 0.33 0.34 0.34 0.34 0.35 0.34 0.33 0.33 0.30 0.38 0.39 0.40 0.36 0.37 0.42 0.48 0.48 0.45 0.45 0.44 0.43 0.45
0.20 0.20 0.22 0.28 0.29 0.30 0.30 0.31 0.31 0.30 0.31 0.32 0.33 0.34 0.34 0.34 0.34 0.34 0.34 0.34 0.35 0.35 0.35 0.37 0.34 0.34 0.37 0.36 0.35 0.37 0.39 0.44 0.48 0.49 0.49 0.47 0.43 0.39
0.21 0.23 0.27 0.29 0.30 0.31 0.31 0.30 0.30 0.32 0.31 0.30 0.30 0.29 0.29 0.29 0.32 0.33 0.33 0.34 0.36 0.36 0.36 0.36 0.34 0.32 0.30 0.36 0.36 0.37 0.38 0.40 0.41 0.41 0.43 0.46 0.47 0.50

GFSNE_prec_pwat_024.txt.gz
Precipitable_Water
0.21 0.20 0.20 0.20 0.21 0.22 0.22 0.22 0.21 0.16 0.15 0.18 0.18 0.22 0.24 0.25 0.27 0.32 0.29 0.26 0.28 0.27 0.30 0.29 0.33 0.32 0.35 0.36 0.38 0.39 0.40 0.40 0.41 0.49 0.50 0.53 0.69 0.78
0.19 0.18 0.18 0.20 0.21 0.21 0.22 0.22 0.23 0.21 0.16 0.18 0.20 0.22 0.22 0.25 0.28 0.28 0.27 0.27 0.26 0.29 0.30 0.29 0.31 0.33 0.31 0.32 0.33 0.36 0.32 0.33 0.38 0.40 0.43 0.45 0.52 0.60
0.17 0.17 0.18 0.19 0.20 0.21 0.22 0.23 0.22 0.23 0.20 0.19 0.20 0.21 0.24 0.23 0.22 0.25 0.27 0.28 0.29 0.29 0.26 0.25 0.25 0.28 0.30 0.32 0.30 0.32 0.36 0.37 0.38 0.39 0.41 0.47 0.46 0.57
0.17 0.17 0.18 0.19 0.19 0.21 0.23 0.22 0.22 0.23 0.21 0.19 0.21 0.23 0.22 0.23 0.23 0.23 0.28 0.29 0.31 0.28 0.26 0.24 0.28 0.31 0.28 0.31 0.33 0.32 0.30 0.34 0.36 0.39 0.47 0.49 0.51 0.46
0.18 0.18 0.18 0.19 0.20 0.22 0.22 0.22 0.22 0.24 0.26 0.25 0.22 0.23 0.24 0.24 0.24 0.26 0.28 0.26 0.26 0.24 0.22 0.24 0.26 0.27 0.27 0.28 0.29 0.31 0.32 0.33 0.38 0.42 0.42 0.45 0.48 0.46
0.20 0.20 0.21 0.21 0.22 0.22 0.23 0.23 0.25 0.26 0.26 0.23 0.25 0.26 0.24 0.25 0.28 0.28 0.23 0.23 0.20 0.22 0.23 0.24 0.27 0.25 0.24 0.27 0.28 0.30 0.29 0.37 0.39 0.39 0.43 0.48 0.42 0.46
0.20 0.21 0.22 0.23 0.24 0.24 0.25 0.25 0.26 0.23 0.25 0.27 0.24 0.24 0.24 0.24 0.23 0.22 0.20 0.19 0.19 0.22 0.23 0.24 0.21 0.21 0.22 0.25 0.27 0.29 0.30 0.32 0.36 0.39 0.42 0.45 0.43 0.41
0.20 0.21 0.22 0.23 0.23 0.24 0.25 0.25 0.26 0.27 0.25 0.25 0.25 0.22 0.19 0.20 0.22 0.22 0.21 0.19 0.17 0.26 0.22 0.17 0.23 0.22 0.25 0.28 0.30 0.35 0.36 0.38 0.38 0.38 0.40 0.43 0.42 0.43
0.22 0.22 0.21 0.22 0.23 0.23 0.24 0.27 0.30 0.29 0.29 0.26 0.21 0.20 0.20 0.24 0.25 0.22 0.22 0.21 0.19 0.21 0.23 0.20 0.26 0.25 0.31 0.31 0.32 0.33 0.36 0.37 0.35 0.33 0.38 0.40 0.40 0.40
0.23 0.23 0.23 0.22 0.24 0.25 0.26 0.27 0.27 0.27 0.25 0.25 0.23 0.23 0.26 0.25 0.25 0.23 0.22 0.22 0.24 0.25 0.27 0.22 0.27 0.28 0.31 0.32 0.36 0.36 0.36 0.35 0.36 0.39 0.39 0.39 0.39 0.39
0.23 0.24 0.25 0.24 0.25 0.25 0.26 0.26 0.25 0.23 0.25 0.23 0.27 0.27 0.24 0.23 0.24 0.24 0.23 0.23 0.21 0.24 0.28 0.26 0.27 0.28 0.29 0.31 0.34 0.35 0.37 0.40 0.38 0.40 0.38 0.40 0.42 0.43
0.23 0.25 0.25 0.24 0.23 0.27 0.26 0.23 0.21 0.20 0.23 0.25 0.21 0.20 0.22 0.25 0.28 0.29 0.28 0.25 0.24 0.23 0.27 0.26 0.26 0.27 0.25 0.31 0.34 0.36 0.34 0.35 0.36 0.36 0.37 0.38 0.40 0.38
0.24 0.22 0.23 0.22 0.27 0.26 0.24 0.22 0.21 0.24 0.23 0.20 0.21 0.24 0.28 0.30 0.30 0.31 0.31 0.29 0.26 0.25 0.29 0.30 0.29 0.29 0.29 0.29 0.32 0.35 0.37 0.36 0.37 0.38 0.38 0.39 0.39 0.37
0.22 0.21 0.21 0.27 0.23 0.23 0.22 0.22 0.23 0.22 0.21 0.23 0.26 0.27 0.27 0.28 0.29 0.31 0.32 0.32 0.33 0.31 0.33 0.34 0.30 0.30 0.29 0.28 0.28 0.33 0.34 0.38 0.41 0.41 0.43 0.46 0.47 0.43
0.22 0.23 0.26 0.23 0.22 0.20 0.21 0.21 0.22 0.23 0.26 0.26 0.26 0.27 0.29 0.30 0.32 0.32 0.33 0.35 0.35 0.36 0.37 0.37 0.34 0.33 0.32 0.29 0.29 0.31 0.33 0.38 0.43 0.46 0.49 0.52 0.54 0.53
0.25 0.26 0.22 0.20 0.20 0.20 0.19 0.21 0.25 0.28 0.28 0.28 0.28 0.30 0.31 0.31 0.31 0.33 0.32 0.33 0.33 0.33 0.36 0.37 0.35 0.34 0.31 0.31 0.32 0.33 0.37 0.35 0.43 0.46 0.49 0.52 0.55 0.56
0.23 0.21 0.18 0.19 0.18 0.18 0.21 0.26 0.28 0.29 0.29 0.29 0.29 0.29 0.30 0.31 0.31 0.33 0.33 0.33 0.31 0.31 0.32 0.35 0.36 0.36 0.35 0.34 0.31 0.35 0.38 0.40 0.45 0.46 0.47 0.47 0.52 0.55
0.20 0.18 0.18 0.18 0.18 0.22 0.26 0.27 0.28 0.29 0.30 0.30 0.30 0.30 0.30 0.30 0.31 0.33 0.33 0.32 0.31 0.32 0.32 0.34 0.33 0.32 0.33 0.35 0.38 0.35 0.40 0.41 0.45 0.48 0.49 0.49 0.51 0.58
0.18 0.19 0.18 0.19 0.23 0.26 0.27 0.28 0.28 0.30 0.31 0.31 0.31 0.31 0.31 0.32 0.32 0.32 0.33 0.32 0.32 0.33 0.33 0.34 0.32 0.31 0.28 0.27 0.35 0.44 0.40 0.43 0.45 0.47 0.50 0.51 0.50 0.53
0.20 0.19 0.19 0.24 0.27 0.27 0.28 0.29 0.29 0.30 0.31 0.31 0.31 0.32 0.32 0.32 0.32 0.32 0.33 0.32 0.33 0.34 0.33 0.34 0.34 0.33 0.30 0.30 0.31 0.38 0.46 0.43 0.45 0.46 0.47 0.51 0.54 0.58
0.20 0.20 0.24 0.27 0.28 0.29 0.29 0.30 0.30 0.30 0.30 0.30 0.29 0.29 0.30 0.30 0.31 0.33 0.34 0.34 0.35 0.34 0.33 0.32 0.35 0.40 0.39 0.39 0.34 0.36 0.41 0.48 0.48 0.45 0.47 0.47 0.46 0.48
0.21 0.24 0.27 0.29 0.29 0.30 0.30 0.30 0.30 0.29 0.28 0.28 0.28 0.28 0.28 0.28 0.28 0.31 0.32 0.33 0.35 0.35 0.35 0.33 0.37 0.39 0.38 0.37 0.35 0.36 0.38 0.43 0.48 0.49 0.51 0.49 0.45 0.41
0.24 0.27 0.29 0.30 0.30 0.29 0.30 0.29 0.28 0.27 0.27 0.28 0.28 0.28 0.28 0.27 0.29 0.30 0.31 0.32 0.34 0.35 0.36 0.34 0.32 0.37 0.37 0.37 0.37 0.37 0.38 0.39 0.40 0.42 0.45 0.51 0.51 0.52

GFSNE_prec_pwat_027.txt.gz
Precipitable_Water
0.23 0.21 0.19 0.17 0.18 0.19 0.19 0.19 0.18 0.14 0.14 0.17 0.19 0.22 0.24 0.25 0.24 0.27 0.26 0.24 0.23 0.25 0.28 0.29 0.30 0.34 0.34 0.31 0.30 0.31 0.36 0.36 0.39 0.40 0.43 0.41 0.39 0.41
0.20 0.18 0.18 0.17 0.17 0.18 0.19 0.20 0.20 0.19 0.16 0.18 0.18 0.21 0.22 0.24 0.27 0.26 0.24 0.25 0.24 0.25 0.27 0.30 0.31 0.37 0.30 0.30 0.29 0.29 0.34 0.36 0.37 0.38 0.38 0.35 0.39 0.44
0.18 0.18 0.18 0.18 0.18 0.19 0.20 0.21 0.22 0.23 0.19 0.17 0.20 0.21 0.22 0.23 0.23 0.26 0.28 0.26 0.25 0.27 0.31 0.32 0.32 0.30 0.29 0.27 0.26 0.36 0.34 0.32 0.34 0.37 0.41 0.44 0.47 0.47
0.19 0.19 0.18 0.19 0.19 0.20 0.21 0.21 0.22 0.22 0.22 0.19 0.20 0.23 0.23 0.24 0.25 0.26 0.26 0.27 0.29 0.33 0.30 0.29 0.28 0.26 0.26 0.25 0.28 0.30 0.30 0.31 0.31 0.31 0.32 0.33 0.36 0.43
0.20 0.19 0.19 0.19 0.19 0.21 0.22 0.22 0.23 0.24 0.26 0.25 0.22 0.23 0.24 0.28 0.26 0.27 0.27 0.25 0.28 0.25 0.24 0.23 0.23 0.23 0.24 0.27 0.31 0.30 0.28 0.30 0.32 0.32 0.34 0.33 0.36 0.41
0.20 0.20 0.20 0.20 0.21 0.22 0.22 0.23 0.25 0.23 0.22 0.21 0.23 0.25 0.24 0.26 0.27 0.22 0.18 0.21 0.22 0.25 0.23 0.23 0.25 0.26 0.27 0.26 0.23 0.25 0.26 0.27 0.28 0.28 0.30 0.33 0.40 0.42
0.20 0.21 0.21 0.23 0.23 0.24 0.24 0.22 0.22 0.22 0.25 0.25 0.23 0.24 0.23 0.19 0.19 0.20 0.19 0.21 0.23 0.24 0.23 0.23 0.25 0.24 0.22 0.22 0.23 0.24 0.26 0.28 0.31 0.32 0.34 0.34 0.36 0.40
0.20 0.21 0.22 0.23 0.22 0.23 0.23 0.24 0.26 0.25 0.23 0.25 0.25 0.21 0.19 0.20 0.20 0.20 0.21 0.21 0.17 0.24 0.22 0.22 0.24 0.22 0.24 0.27 0.28 0.29 0.32 0.32 0.29 0.32 0.31 0.37 0.39 0.41
0.21 0.21 0.21 0.22 0.23 0.24 0.23 0.25 0.25 0.28 0.29 0.26 0.21 0.21 0.20 0.21 0.23 0.23 0.22 0.22 0.21 0.25 0.25 0.22 0.27 0.26 0.29 0.29 0.29 0.32 0.33 0.32 0.34 0.37 0.35 0.37 0.35 0.33
0.22 0.22 0.22 0.22 0.24 0.24 0.24 0.24 0.28 0.28 0.25 0.25 0.24 0.24 0.26 0.27 0.24 0.24 0.25 0.26 0.28 0.28 0.28 0.23 0.27 0.25 0.27 0.29 0.31 0.32 0.34 0.36 0.38 0.39 0.39 0.39 0.36 0.35
0.21 0.22 0.24 0.22 0.22 0.23 0.25 0.27 0.24 0.23 0.23 0.24 0.27 0.26 0.24 0.27 0.29 0.29 0.26 0.25 0.23 0.25 0.26 0.25 0.26 0.25 0.27 0.27 0.30 0.31 0.36 0.36 0.38 0.40 0.39 0.38 0.37 0.36
0.21 0.22 0.22 0.21 0.22 0.28 0.26 0.23 0.20 0.19 0.23 0.24 0.22 0.26 0.28 0.29 0.30 0.30 0.28 0.24 0.23 0.22 0.25 0.25 0.26 0.26 0.24 0.29 0.31 0.34 0.35 0.35 0.35 0.36 0.37 0.36 0.36 0.33
0.21 0.20 0.21 0.22 0.29 0.24 0.23 0.21 0.20 0.24 0.24 0.25 0.26 0.27 0.28 0.30 0.30 0.31 0.32 0.30 0.27 0.26 0.30 0.30 0.28 0.28 0.27 0.27 0.30 0.32 0.34 0.35 0.36 0.36 0.36 0.36 0.35 0.34
0.21 0.21 0.23 0.28 0.22 0.22 0.21 0.21 0.23 0.27 0.27 0.27 0.27 0.28 0.28 0.29 0.31 0.32 0.33 0.34 0.34 0.32 0.35 0.34 0.30 0.29 0.28 0.27 0.26 0.30 0.32 0.35 0.38 0.38 0.38 0.39 0.38 0.35
0.23 0.25 0.24 0.21 0.20 0.19 0.20 0.24 0.28 0.27 0.28 0.27 0.27 0.28 0.30 0.32 0.33 0.33 0.34 0.34 0.35 0.35 0.36 0.36 0.34 0.32 0.30 0.28 0.28 0.29 0.32 0.37 0.42 0.43 0.44 0.42 0.39 0.36
0.25 0.23 0.20 0.20 0.20 0.20 0.24 0.27 0.28 0.29 0.29 0.28 0.29 0.30 0.32 0.32 0.31 0.33 0.32 0.32 0.32 0.32 0.35 0.37 0.36 0.34 0.31 0.30 0.31 0.30 0.36 0.35 0.41 0.45 0.47 0.49 0.50 0.49
0.22 0.20 0.18 0.18 0.18 0.24 0.26 0.27 0.29 0.30 0.29 0.30 0.30 0.30 0.31 0.31 0.31 0.33 0.33 0.33 0.31 0.31 0.31 0.34 0.35 0.35 0.34 0.33 0.31 0.35 0.37 0.40 0.43 0.45 0.45 0.46 0.50 0.52
0.19 0.18 0.17 0.19 0.24 0.26 0.26 0.27 0.29 0.29 0.30 0.30 0.30 0.30 0.30 0.31 0.31 0.33 0.33 0.33 0.31 0.32 0.32 0.33 0.32 0.31 0.32 0.35 0.39 0.36 0.39 0.41 0.44 0.47 0.48 0.44 0.43 0.49
0.18 0.18 0.20 0.24 0.26 0.27 0.28 0.28 0.28 0.30 0.31 0.29 0.28 0.28 0.28 0.29 0.30 0.32 0.33 0.33 0.32 0.33 0.34 0.33 0.33 0.31 0.28 0.28 0.36 0.44 0.40 0.43 0.45 0.47 0.48 0.47 0.45 0.50
0.19 0.20 0.23 0.26 0.27 0.28 0.28 0.28 0.29 0.29 0.28 0.27 0.28 0.28 0.28 0.26 0.27 0.30 0.32 0.33 0.33 0.34 0.33 0.34 0.34 0.34 0.31 0.31 0.31 0.37 0.47 0.45 0.45 0.46 0.47 0.50 0.52 0.55
0.21 0.24 0.26 0.28 0.28 0.28 0.29 0.29 0.27 0.26 0.27 0.27 0.27 0.27 0.27 0.27 0.26 0.29 0.31 0.34 0.35 0.34 0.31 0.34 0.36 0.40 0.39 0.39 0.35 0.36 0.43 0.51 0.51 0.48 0.49 0.48 0.48 0.50
0.24 0.26 0.28 0.29 0.28 0.28 0.27 0.27 0.27 0.27 0.27 0.28 0.26 0.27 0.28 0.28 0.28 0.28 0.30 0.30 0.32 0.35 0.33 0.36 0.39 0.39 0.37 0.36 0.34 0.36 0.39 0.46 0.51 0.53 0.54 0.53 0.48 0.42
0.26 0.27 0.28 0.27 0.27 0.27 0.27 0.27 0.27 0.28 0.29 0.29 0.27 0.27 0.28 0.28 0.30 0.31 0.31 0.32 0.33 0.32 0.35 0.33 0.37 0.39 0.38 0.36 0.36 0.36 0.38 0.40 0.43 0.44 0.46 0.53 0.54 0.55

GFSNE_prec_pwat_030.txt.gz
Precipitable_Water
0.23 0.22 0.20 0.19 0.19 0.19 0.18 0.18 0.17 0.13 0.12 0.17 0.18 0.22 0.22 0.24 0.24 0.24 0.24 0.25 0.28 0.28 0.28 0.28 0.28 0.29 0.30 0.32 0.34 0.37 0.40 0.36 0.39 0.34 0.34 0.36 0.39 0.41
0.21 0.20 0.20 0.20 0.20 0.19 0.19 0.20 0.20 0.18 0.15 0.17 0.18 0.20 0.23 0.24 0.25 0.25 0.27 0.29 0.27 0.26 0.28 0.28 0.29 0.31 0.35 0.35 0.36 0.39 0.39 0.36 0.32 0.31 0.35 0.40 0.42 0.43
0.21 0.20 0.20 0.21 0.19 0.19 0.20 0.20 0.20 0.21 0.18 0.17 0.19 0.21 0.22 0.23 0.24 0.29 0.30 0.28 0.29 0.27 0.27 0.26 0.27 0.29 0.31 0.31 0.33 0.32 0.29 0.29 0.30 0.34 0.37 0.40 0.40 0.42
0.20 0.20 0.20 0.21 0.19 0.20 0.20 0.20 0.21 0.21 0.21 0.19 0.20 0.20 0.20 0.22 0.24 0.25 0.28 0.30 0.28 0.25 0.23 0.26 0.27 0.28 0.27 0.27 0.28 0.28 0.28 0.29 0.29 0.31 0.33 0.34 0.34 0.35
0.20 0.20 0.20 0.21 0.19 0.19 0.21 0.21 0.22 0.23 0.23 0.21 0.19 0.20 0.22 0.24 0.24 0.27 0.26 0.21 0.22 0.21 0.22 0.23 0.24 0.26 0.26 0.27 0.28 0.31 0.31 0.34 0.34 0.31 0.31 0.31 0.33 0.35
0.21 0.21 0.21 0.21 0.20 0.22 0.22 0.22 0.24 0.22 0.21 0.21 0.22 0.23 0.23 0.25 0.28 0.21 0.18 0.20 0.19 0.22 0.23 0.25 0.25 0.24 0.25 0.26 0.26 0.27 0.26 0.25 0.25 0.26 0.27 0.28 0.29 0.30
0.20 0.21 0.22 0.23 0.23 0.23 0.23 0.23 0.22 0.22 0.24 0.23 0.19 0.22 0.24 0.20 0.19 0.20 0.19 0.20 0.21 0.24 0.24 0.23 0.24 0.25 0.25 0.25 0.24 0.23 0.23 0.24 0.25 0.27 0.28 0.30 0.31 0.32
0.20 0.21 0.21 0.22 0.22 0.23 0.22 0.23 0.24 0.23 0.21 0.23 0.25 0.20 0.19 0.20 0.21 0.20 0.21 0.21 0.18 0.26 0.25 0.25 0.28 0.25 0.26 0.27 0.28 0.29 0.29 0.29 0.30 0.31 0.31 0.34 0.32 0.32
0.20 0.20 0.20 0.21 0.22 0.22 0.22 0.23 0.23 0.27 0.30 0.24 0.21 0.20 0.20 0.21 0.24 0.25 0.25 0.25 0.24 0.26 0.27 0.24 0.27 0.26 0.28 0.29 0.29 0.29 0.30 0.31 0.31 0.32 0.36 0.36 0.35 0.34
0.20 0.20 0.21 0.21 0.21 0.21 0.22 0.25 0.27 0.24 0.23 0.22 0.22 0.23 0.27 0.29 0.29 0.28 0.28 0.27 0.28 0.27 0.27 0.22 0.25 0.24 0.27 0.28 0.28 0.28 0.30 0.31 0.33 0.34 0.36 0.37 0.36 0.36
0.20 0.22 0.23 0.21 0.21 0.24 0.28 0.23 0.22 0.20 0.20 0.24 0.29 0.30 0.29 0.30 0.31 0.30 0.27 0.26 0.24 0.25 0.27 0.25 0.25 0.25 0.27 0.27 0.28 0.28 0.30 0.32 0.35 0.36 0.38 0.41 0.42 0.41
0.22 0.23 0.22 0.21 0.24 0.27 0.23 0.21 0.18 0.18 0.26 0.30 0.27 0.27 0.29 0.31 0.32 0.31 0.30 0.26 0.26 0.25 0.27 0.27 0.27 0.28 0.25 0.28 0.29 0.30 0.31 0.32 0.34 0.35 0.35 0.35 0.37 0.37
0.20 0.19 0.20 0.23 0.25 0.22 0.22 0.20 0.21 0.29 0.29 0.27 0.27 0.29 0.30 0.31 0.32 0.33 0.33 0.30 0.27 0.26 0.30 0.31 0.29 0.29 0.28 0.27 0.30 0.31 0.31 0.32 0.34 0.35 0.36 0.37 0.37 0.36
0.20 0.21 0.24 0.24 0.22 0.21 0.20 0.24 0.29 0.29 0.28 0.28 0.28 0.29 0.29 0.30 0.32 0.33 0.34 0.34 0.34 0.32 0.34 0.34 0.30 0.30 0.28 0.26 0.26 0.29 0.31 0.34 0.36 0.37 0.38 0.38 0.39 0.38
0.22 0.23 0.22 0.21 0.20 0.19 0.25 0.29 0.29 0.28 0.28 0.28 0.28 0.29 0.31 0.32 0.34 0.34 0.34 0.35 0.35 0.35 0.36 0.36 0.33 0.32 0.30 0.28 0.29 0.31 0.32 0.36 0.39 0.40 0.41 0.39 0.36 0.37
0.23 0.21 0.20 0.19 0.19 0.25 0.27 0.28 0.29 0.29 0.29 0.29 0.29 0.30 0.31 0.31 0.31 0.33 0.32 0.33 0.32 0.32 0.35 0.36 0.36 0.34 0.30 0.31 0.33 0.32 0.35 0.33 0.40 0.42 0.44 0.43 0.42 0.38
0.21 0.19 0.18 0.19 0.23 0.26 0.27 0.28 0.29 0.30 0.29 0.29 0.28 0.27 0.27 0.28 0.29 0.32 0.33 0.33 0.31 0.31 0.32 0.34 0.36 0.36 0.36 0.35 0.33 0.35 0.37 0.39 0.41 0.43 0.45 0.41 0.45 0.44
0.19 0.17 0.19 0.22 0.25 0.26 0.27 0.27 0.29 0.29 0.29 0.27 0.27 0.27 0.26 0.26 0.26 0.30 0.33 0.32 0.31 0.32 0.32 0.34 0.34 0.33 0.34 0.36 0.40 0.37 0.41 0.41 0.43 0.44 0.44 0.41 0.41 0.45
0.18 0.19 0.22 0.25 0.26 0.27 0.27 0.28 0.27 0.27 0.27 0.27 0.27 0.25 0.26 0.26 0.26 0.28 0.31 0.33 0.32 0.33 0.34 0.35 0.34 0.32 0.29 0.29 0.37 0.46 0.41 0.44 0.44 0.43 0.45 0.41 0.40 0.41
0.20 0.22 0.24 0.27 0.27 0.26 0.27 0.26 0.26 0.26 0.27 0.27 0.27 0.25 0.26 0.26 0.26 0.27 0.29 0.32 0.32 0.33 0.34 0.35 0.35 0.34 0.32 0.32 0.33 0.41 0.49 0.46 0.45 0.42 0.42 0.45 0.46 0.48
0.22 0.25 0.26 0.27 0.26 0.26 0.27 0.27 0.27 0.27 0.27 0.27 0.26 0.26 0.26 0.27 0.27 0.28 0.29 0.32 0.34 0.33 0.32 0.33 0.36 0.41 0.41 0.41 0.37 0.39 0.45 0.50 0.50 0.48 0.48 0.46 0.44 0.43
0.25 0.25 0.26 0.25 0.26 0.27 0.27 0.27 0.28 0.29 0.29 0.29 0.26 0.27 0.27 0.28 0.28 0.28 0.30 0.31 0.32 0.34 0.34 0.37 0.39 0.39 0.38 0.36 0.35 0.38 0.42 0.47 0.52 0.53 0.54 0.53 0.47 0.38
0.25 0.25 0.25 0.27 0.28 0.28 0.28 0.29 0.29 0.29 0.30 0.30 0.27 0.28 0.28 0.28 0.29 0.29 0.30 0.32 0.33 0.32 0.33 0.35 0.37 0.38 0.37 0.36 0.37 0.38 0.40 0.42 0.44 0.44 0.47 0.53 0.55 0.56

GFSNE_prec_pwat_033.txt.gz
Precipitable_Water
0.26 0.25 0.24 0.23 0.22 0.22 0.20 0.19 0.17 0.13 0.12 0.16 0.17 0.21 0.23 0.23 0.24 0.24 0.24 0.24 0.26 0.27 0.29 0.30 0.28 0.29 0.31 0.32 0.33 0.35 0.36 0.38 0.40 0.41 0.42 0.46 0.45 0.43
0.25 0.23 0.22 0.22 0.22 0.21 0.21 0.20 0.20 0.18 0.15 0.17 0.18 0.20 0.22 0.23 0.24 0.25 0.25 0.27 0.26 0.27 0.27 0.29 0.31 0.29 0.29 0.29 0.28 0.30 0.31 0.39 0.40 0.42 0.44 0.44 0.43 0.39
0.23 0.22 0.21 0.22 0.21 0.22 0.22 0.21 0.21 0.21 0.18 0.17 0.18 0.20 0.19 0.19 0.21 0.23 0.25 0.26 0.27 0.28 0.30 0.29 0.26 0.26 0.27 0.29 0.31 0.32 0.32 0.33 0.35 0.38 0.41 0.39 0.38 0.39
0.21 0.21 0.21 0.21 0.21 0.22 0.22 0.21 0.21 0.21 0.20 0.18 0.19 0.17 0.17 0.19 0.20 0.23 0.27 0.30 0.32 0.28 0.23 0.23 0.24 0.25 0.26 0.27 0.30 0.30 0.31 0.31 0.31 0.32 0.32 0.32 0.34 0.37
0.21 0.21 0.21 0.22 0.21 0.22 0.21 0.21 0.21 0.23 0.23 0.20 0.17 0.20 0.21 0.24 0.24 0.27 0.26 0.24 0.23 0.22 0.22 0.23 0.24 0.26 0.26 0.28 0.29 0.29 0.30 0.31 0.32 0.33 0.33 0.36 0.37 0.37
0.22 0.22 0.22 0.22 0.21 0.21 0.21 0.22 0.23 0.20 0.20 0.20 0.20 0.21 0.23 0.26 0.25 0.21 0.18 0.20 0.19 0.22 0.23 0.25 0.27 0.26 0.26 0.26 0.26 0.27 0.28 0.27 0.27 0.27 0.29 0.31 0.30 0.30
0.23 0.22 0.22 0.22 0.22 0.22 0.22 0.20 0.20 0.21 0.21 0.21 0.21 0.23 0.21 0.19 0.17 0.19 0.20 0.23 0.27 0.30 0.29 0.28 0.27 0.27 0.27 0.27 0.27 0.27 0.28 0.27 0.28 0.28 0.28 0.27 0.27 0.29
0.20 0.20 0.20 0.20 0.21 0.21 0.21 0.22 0.23 0.22 0.23 0.24 0.21 0.19 0.17 0.19 0.22 0.25 0.27 0.25 0.22 0.28 0.27 0.26 0.28 0.27 0.27 0.28 0.28 0.29 0.30 0.31 0.31 0.32 0.33 0.32 0.33 0.32
0.20 0.19 0.19 0.21 0.22 0.21 0.21 0.22 0.27 0.28 0.26 0.23 0.18 0.19 0.22 0.27 0.30 0.28 0.27 0.27 0.26 0.29 0.29 0.26 0.28 0.26 0.27 0.27 0.28 0.29 0.30 0.31 0.31 0.32 0.33 0.34 0.33 0.33
0.20 0.20 0.21 0.21 0.22 0.22 0.23 0.26 0.22 0.22 0.21 0.21 0.24 0.29 0.32 0.32 0.30 0.30 0.30 0.30 0.30 0.30 0.30 0.24 0.28 0.27 0.29 0.30 0.30 0.30 0.31 0.31 0.31 0.31 0.32 0.33 0.34 0.35
0.21 0.23 0.23 0.22 0.21 0.24 0.25 0.22 0.20 0.19 0.22 0.29 0.33 0.32 0.30 0.31 0.33 0.32 0.28 0.27 0.25 0.26 0.29 0.27 0.27 0.28 0.30 0.29 0.30 0.31 0.32 0.33 0.32 0.31 0.32 0.34 0.37 0.37
0.23 0.22 0.22 0.21 0.22 0.26 0.22 0.21 0.18 0.22 0.30 0.31 0.28 0.29 0.30 0.32 0.33 0.33 0.31 0.27 0.26 0.25 0.28 0.27 0.27 0.28 0.26 0.29 0.30 0.31 0.32 0.32 0.33 0.33 0.34 0.35 0.36 0.36
0.18 0.19 0.20 0.22 0.24 0.22 0.22 0.21 0.25 0.31 0.30 0.28 0.28 0.29 0.31 0.31 0.32 0.33 0.34 0.31 0.28 0.27 0.31 0.31 0.28 0.29 0.28 0.26 0.29 0.31 0.33 0.34 0.35 0.35 0.35 0.36 0.36 0.36
0.20 0.20 0.22 0.23 0.21 0.21 0.21 0.28 0.30 0.30 0.28 0.28 0.28 0.29 0.28 0.28 0.30 0.31 0.33 0.35 0.35 0.33 0.34 0.34 0.29 0.29 0.27 0.26 0.27 0.32 0.34 0.37 0.38 0.38 0.39 0.40 0.40 0.39
0.22 0.21 0.21 0.20 0.20 0.21 0.27 0.29 0.29 0.28 0.28 0.28 0.28 0.27 0.28 0.29 0.30 0.30 0.32 0.35 0.35 0.35 0.36 0.36 0.34 0.32 0.31 0.29 0.30 0.32 0.33 0.37 0.39 0.39 0.40 0.39 0.38 0.37
0.21 0.20 0.19 0.19 0.21 0.26 0.27 0.28 0.28 0.29 0.29 0.28 0.26 0.28 0.28 0.27 0.27 0.28 0.30 0.32 0.32 0.32 0.36 0.36 0.37 0.35 0.32 0.34 0.35 0.34 0.36 0.33 0.39 0.42 0.41 0.39 0.43 0.38
0.20 0.18 0.17 0.19 0.23 0.26 0.27 0.28 0.28 0.29 0.27 0.26 0.27 0.27 0.25 0.25 0.26 0.28 0.30 0.32 0.31 0.31 0.32 0.35 0.37 0.38 0.39 0.38 0.35 0.37 0.37 0.38 0.40 0.41 0.42 0.41 0.43 0.36
0.18 0.16 0.19 0.22 0.25 0.26 0.26 0.26 0.28 0.27 0.26 0.27 0.27 0.26 0.24 0.24 0.25 0.27 0.28 0.32 0.31 0.32 0.33 0.34 0.35 0.35 0.36 0.38 0.42 0.37 0.39 0.39 0.42 0.43 0.43 0.37 0.38 0.36
0.17 0.19 0.22 0.25 0.26 0.25 0.26 0.26 0.25 0.26 0.28 0.27 0.27 0.25 0.25 0.25 0.25 0.26 0.27 0.30 0.32 0.33 0.35 0.35 0.35 0.33 0.31 0.30 0.39 0.46 0.38 0.40 0.42 0.42 0.44 0.40 0.39 0.39
0.20 0.22 0.24 0.26 0.25 0.25 0.26 0.26 0.26 0.27 0.28 0.28 0.28 0.26 0.26 0.25 0.25 0.26 0.27 0.28 0.32 0.33 0.34 0.35 0.35 0.34 0.33 0.33 0.35 0.41 0.48 0.42 0.41 0.40 0.42 0.42 0.45 0.49
0.22 0.23 0.25 0.25 0.25 0.27 0.27 0.27 0.28 0.28 0.29 0.29 0.28 0.26 0.27 0.26 0.26 0.26 0.27 0.29 0.33 0.33 0.32 0.33 0.36 0.41 0.42 0.41 0.37 0.39 0.45 0.49 0.49 0.42 0.44 0.42 0.38 0.38
0.23 0.23 0.25 0.26 0.27 0.27 0.27 0.28 0.28 0.28 0.28 0.29 0.29 0.27 0.27 0.28 0.27 0.27 0.28 0.28 0.30 0.34 0.33 0.37 0.39 0.39 0.38 0.37 0.36 0.38 0.41 0.46 0.50 0.51 0.49 0.46 0.39 0.32
0.23 0.24 0.25 0.27 0.28 0.28 0.28 0.28 0.28 0.28 0.29 0.30 0.29 0.28 0.29 0.28 0.29 0.30 0.30 0.30 0.31 0.32 0.33 0.34 0.37 0.37 0.37 0.37 0.37 0.38 0.39 0.41 0.43 0.44 0.44 0.47 0.48 0.49

GFSNE_prec_pwat_036.txt.gz
Precipitable_Water
0.27 0.27 0.27 0.26 0.25 0.24 0.23 0.22 0.19 0.14 0.14 0.17 0.18 0.21 0.21 0.22 0.22 0.23 0.23 0.22 0.25 0.26 0.26 0.26 0.26 0.28 0.30 0.31 0.33 0.36 0.36 0.36 0.38 0.38 0.38 0.41 0.43 0.44
0.27 0.27 0.26 0.24 0.23 0.24 0.23 0.23 0.23 0.20 0.16 0.17 0.18 0.19 0.21 0.21 0.22 0.23 0.22 0.24 0.24 0.25 0.27 0.28 0.29 0.29 0.31 0.32 0.28 0.28 0.29 0.32 0.33 0.34 0.35 0.37 0.43 0.46
0.27 0.25 0.23 0.23 0.22 0.23 0.24 0.24 0.22 0.22 0.17 0.16 0.18 0.18 0.19 0.19 0.20 0.23 0.25 0.26 0.26 0.27 0.28 0.29 0.29 0.29 0.28 0.28 0.28 0.30 0.31 0.32 0.33 0.34 0.36 0.37 0.41 0.44
0.24 0.24 0.22 0.23 0.22 0.23 0.23 0.21 0.21 0.21 0.20 0.17 0.17 0.17 0.18 0.20 0.22 0.24 0.26 0.27 0.26 0.24 0.24 0.25 0.25 0.26 0.27 0.27 0.28 0.30 0.30 0.29 0.31 0.32 0.33 0.34 0.35 0.38
0.25 0.23 0.22 0.22 0.21 0.20 0.21 0.20 0.21 0.22 0.22 0.19 0.17 0.20 0.21 0.24 0.24 0.24 0.22 0.20 0.23 0.26 0.28 0.28 0.30 0.31 0.32 0.33 0.33 0.32 0.31 0.31 0.29 0.30 0.31 0.33 0.34 0.35
0.24 0.23 0.21 0.20 0.20 0.21 0.21 0.21 0.22 0.19 0.19 0.20 0.20 0.22 0.24 0.23 0.20 0.17 0.21 0.25 0.26 0.29 0.30 0.31 0.32 0.31 0.31 0.30 0.30 0.30 0.30 0.30 0.29 0.29 0.29 0.31 0.31 0.33
0.23 0.22 0.21 0.22 0.22 0.23 0.22 0.21 0.21 0.21 0.21 0.23 0.21 0.20 0.18 0.17 0.20 0.24 0.25 0.27 0.29 0.30 0.29 0.30 0.30 0.30 0.29 0.30 0.29 0.29 0.29 0.30 0.31 0.31 0.32 0.32 0.32 0.31
0.21 0.21 0.21 0.21 0.21 0.22 0.22 0.23 0.24 0.23 0.23 0.21 0.19 0.17 0.19 0.24 0.26 0.27 0.28 0.26 0.24 0.31 0.30 0.29 0.31 0.30 0.31 0.31 0.31 0.32 0.32 0.32 0.31 0.32 0.34 0.35 0.35 0.34
0.21 0.20 0.20 0.21 0.21 0.21 0.22 0.24 0.26 0.27 0.24 0.21 0.18 0.22 0.25 0.28 0.30 0.29 0.28 0.28 0.27 0.30 0.31 0.27 0.30 0.29 0.31 0.31 0.31 0.33 0.34 0.34 0.34 0.34 0.33 0.33 0.34 0.34
0.21 0.21 0.21 0.20 0.22 0.22 0.23 0.26 0.23 0.22 0.20 0.23 0.28 0.29 0.33 0.32 0.31 0.31 0.30 0.30 0.31 0.30 0.31 0.25 0.29 0.28 0.30 0.31 0.32 0.32 0.33 0.33 0.34 0.34 0.34 0.34 0.34 0.33
0.21 0.22 0.22 0.21 0.22 0.24 0.25 0.22 0.20 0.19 0.25 0.30 0.33 0.33 0.31 0.32 0.33 0.32 0.28 0.27 0.25 0.27 0.30 0.28 0.27 0.28 0.30 0.30 0.31 0.32 0.33 0.33 0.33 0.34 0.35 0.36 0.36 0.35
0.21 0.20 0.21 0.22 0.22 0.26 0.21 0.20 0.18 0.24 0.29 0.31 0.29 0.29 0.30 0.31 0.32 0.30 0.29 0.25 0.25 0.25 0.30 0.27 0.28 0.28 0.25 0.29 0.30 0.32 0.34 0.35 0.37 0.38 0.38 0.37 0.36 0.35
0.19 0.19 0.21 0.21 0.23 0.22 0.22 0.21 0.26 0.31 0.29 0.27 0.28 0.29 0.29 0.29 0.29 0.30 0.31 0.28 0.26 0.28 0.32 0.31 0.29 0.29 0.28 0.27 0.31 0.34 0.36 0.37 0.38 0.39 0.39 0.40 0.41 0.39
0.19 0.20 0.21 0.22 0.21 0.20 0.21 0.28 0.30 0.30 0.28 0.28 0.28 0.27 0.26 0.27 0.27 0.28 0.30 0.30 0.34 0.33 0.35 0.34 0.30 0.29 0.29 0.29 0.29 0.34 0.37 0.39 0.40 0.39 0.40 0.41 0.41 0.41
0.21 0.21 0.21 0.20 0.19 0.19 0.27 0.29 0.29 0.28 0.28 0.27 0.25 0.25 0.27 0.27 0.27 0.28 0.29 0.30 0.35 0.36 0.37 0.36 0.35 0.35 0.34 0.32 0.31 0.33 0.34 0.37 0.38 0.39 0.41 0.41 0.39 0.39
0.21 0.20 0.19 0.18 0.20 0.25 0.28 0.28 0.27 0.28 0.27 0.26 0.25 0.27 0.28 0.25 0.25 0.27 0.26 0.27 0.31 0.33 0.37 0.37 0.38 0.38 0.35 0.37 0.35 0.35 0.37 0.33 0.38 0.39 0.41 0.40 0.40 0.39
0.20 0.17 0.16 0.18 0.23 0.26 0.26 0.26 0.28 0.27 0.26 0.26 0.26 0.26 0.25 0.25 0.25 0.27 0.27 0.26 0.29 0.31 0.33 0.35 0.39 0.40 0.40 0.39 0.36 0.37 0.37 0.38 0.40 0.40 0.40 0.37 0.38 0.36
0.17 0.15 0.18 0.22 0.25 0.25 0.24 0.26 0.27 0.26 0.26 0.27 0.27 0.27 0.25 0.25 0.25 0.26 0.27 0.26 0.28 0.32 0.33 0.35 0.36 0.35 0.36 0.39 0.43 0.37 0.39 0.40 0.42 0.43 0.42 0.33 0.30 0.31
0.15 0.18 0.21 0.23 0.24 0.24 0.26 0.26 0.25 0.27 0.28 0.28 0.28 0.28 0.26 0.26 0.25 0.25 0.25 0.26 0.27 0.32 0.35 0.35 0.35 0.34 0.30 0.30 0.38 0.44 0.39 0.41 0.42 0.43 0.40 0.36 0.33 0.32
0.18 0.21 0.22 0.24 0.24 0.25 0.26 0.26 0.27 0.27 0.27 0.27 0.28 0.28 0.26 0.25 0.25 0.25 0.25 0.25 0.27 0.32 0.33 0.34 0.35 0.35 0.33 0.32 0.34 0.39 0.47 0.41 0.41 0.42 0.40 0.38 0.39 0.40
0.20 0.22 0.23 0.24 0.26 0.26 0.27 0.27 0.27 0.27 0.27 0.27 0.28 0.28 0.27 0.26 0.26 0.27 0.27 0.28 0.28 0.31 0.31 0.32 0.36 0.41 0.42 0.41 0.36 0.38 0.43 0.46 0.46 0.44 0.43 0.35 0.35 0.35
0.22 0.22 0.24 0.26 0.26 0.27 0.27 0.27 0.27 0.27 0.28 0.29 0.29 0.28 0.28 0.29 0.28 0.28 0.28 0.27 0.28 0.31 0.33 0.35 0.37 0.38 0.37 0.36 0.35 0.37 0.39 0.43 0.46 0.46 0.48 0.43 0.35 0.29
0.22 0.24 0.26 0.26 0.27 0.27 0.28 0.28 0.28 0.29 0.30 0.30 0.29 0.29 0.30 0.29 0.30 0.30 0.30 0.29 0.29 0.32 0.32 0.33 0.34 0.35 0.35 0.36 0.37 0.37 0.39 0.40 0.40 0.39 0.42 0.46 0.47 0.47

GFSNE_prec_pwat_039.txt.gz
Precipitable_Water
0.29 0.29 0.27 0.27 0.27 0.25 0.24 0.23 0.20 0.15 0.14 0.17 0.17 0.21 0.22 0.23 0.23 0.23 0.24 0.24 0.25 0.26 0.27 0.28 0.28 0.29 0.30 0.32 0.33 0.34 0.34 0.37 0.39 0.40 0.39 0.40 0.41 0.45
0.29 0.27 0.27 0.26 0.25 0.25 0.24 0.24 0.22 0.19 0.14 0.16 0.17 0.20 0.22 0.22 0.23 0.24 0.24 0.25 0.24 0.25 0.26 0.27 0.27 0.28 0.29 0.31 0.31 0.31 0.32 0.32 0.34 0.36 0.35 0.35 0.36 0.38
0.28 0.26 0.25 0.25 0.24 0.24 0.23 0.22 0.20 0.19 0.16 0.15 0.19 0.20 0.20 0.21 0.22 0.24 0.26 0.26 0.25 0.23 0.24 0.27 0.30 0.31 0.32 0.33 0.34 0.35 0.35 0.34 0.33 0.34 0.35 0.37 0.39 0.42
0.26 0.26 0.25 0.25 0.23 0.22 0.20 0.19 0.20 0.21 0.19 0.16 0.17 0.18 0.19 0.21 0.23 0.24 0.23 0.22 0.23 0.26 0.28 0.30 0.32 0.32 0.33 0.34 0.34 0.35 0.35 0.35 0.35 0.35 0.34 0.34 0.35 0.38
0.27 0.26 0.24 0.22 0.21 0.20 0.20 0.21 0.21 0.22 0.22 0.20 0.17 0.19 0.21 0.24 0.22 0.20 0.20 0.25 0.27 0.28 0.30 0.31 0.32 0.34 0.35 0.35 0.36 0.35 0.35 0.35 0.36 0.34 0.34 0.35 0.33 0.34
0.27 0.26 0.23 0.22 0.21 0.21 0.23 0.23 0.23 0.21 0.20 0.20 0.20 0.22 0.22 0.20 0.19 0.22 0.24 0.27 0.28 0.31 0.31 0.33 0.33 0.33 0.33 0.33 0.33 0.33 0.34 0.34 0.34 0.33 0.33 0.34 0.35 0.33
0.26 0.24 0.23 0.23 0.24 0.24 0.23 0.22 0.21 0.21 0.21 0.21 0.22 0.20 0.17 0.19 0.23 0.25 0.26 0.28 0.30 0.30 0.29 0.30 0.31 0.31 0.32 0.33 0.33 0.33 0.33 0.34 0.35 0.36 0.36 0.34 0.34 0.34
0.23 0.22 0.22 0.23 0.22 0.23 0.22 0.23 0.24 0.22 0.23 0.22 0.20 0.17 0.20 0.24 0.26 0.28 0.29 0.27 0.24 0.30 0.29 0.28 0.31 0.31 0.32 0.32 0.32 0.33 0.34 0.35 0.35 0.36 0.37 0.37 0.36 0.35
0.22 0.21 0.21 0.22 0.21 0.21 0.22 0.24 0.25 0.28 0.25 0.22 0.19 0.23 0.25 0.27 0.31 0.30 0.28 0.28 0.26 0.28 0.29 0.26 0.30 0.29 0.31 0.31 0.32 0.33 0.34 0.34 0.35 0.36 0.37 0.37 0.37 0.36
0.22 0.21 0.21 0.20 0.21 0.22 0.22 0.24 0.24 0.22 0.21 0.23 0.28 0.29 0.32 0.34 0.31 0.31 0.29 0.28 0.28 0.28 0.29 0.25 0.30 0.28 0.31 0.32 0.32 0.33 0.34 0.35 0.36 0.36 0.36 0.36 0.37 0.37
0.21 0.21 0.21 0.20 0.21 0.23 0.24 0.22 0.20 0.20 0.23 0.30 0.33 0.33 0.31 0.32 0.32 0.30 0.27 0.25 0.21 0.23 0.28 0.29 0.29 0.28 0.30 0.31 0.33 0.35 0.37 0.38 0.39 0.39 0.39 0.39 0.39 0.38
0.21 0.20 0.20 0.21 0.21 0.24 0.22 0.21 0.18 0.21 0.29 0.32 0.28 0.29 0.30 0.30 0.31 0.30 0.28 0.23 0.22 0.20 0.28 0.29 0.29 0.28 0.25 0.31 0.33 0.35 0.37 0.39 0.40 0.40 0.41 0.41 0.42 0.41
0.19 0.18 0.20 0.21 0.24 0.22 0.22 0.20 0.23 0.31 0.30 0.28 0.28 0.29 0.29 0.29 0.29 0.29 0.28 0.27 0.23 0.23 0.31 0.33 0.30 0.29 0.30 0.29 0.33 0.36 0.38 0.38 0.39 0.40 0.41 0.41 0.42 0.41
0.18 0.20 0.20 0.22 0.20 0.20 0.20 0.25 0.31 0.30 0.28 0.28 0.27 0.26 0.26 0.27 0.28 0.28 0.29 0.29 0.30 0.28 0.34 0.36 0.31 0.31 0.31 0.30 0.30 0.35 0.38 0.41 0.39 0.39 0.40 0.41 0.42 0.42
0.21 0.20 0.21 0.19 0.18 0.19 0.25 0.30 0.29 0.27 0.27 0.26 0.25 0.25 0.27 0.28 0.28 0.28 0.29 0.29 0.30 0.31 0.35 0.38 0.36 0.35 0.35 0.33 0.32 0.34 0.35 0.39 0.41 0.39 0.39 0.38 0.38 0.39
0.20 0.20 0.18 0.17 0.19 0.24 0.28 0.26 0.26 0.27 0.27 0.26 0.25 0.27 0.29 0.28 0.26 0.28 0.26 0.27 0.26 0.27 0.34 0.39 0.38 0.38 0.35 0.37 0.37 0.36 0.39 0.35 0.40 0.41 0.40 0.40 0.38 0.37
0.19 0.17 0.15 0.17 0.22 0.25 0.24 0.26 0.27 0.27 0.27 0.27 0.27 0.27 0.27 0.27 0.25 0.27 0.27 0.26 0.24 0.25 0.30 0.36 0.39 0.40 0.39 0.38 0.36 0.38 0.38 0.40 0.42 0.40 0.37 0.34 0.32 0.32
0.16 0.14 0.16 0.21 0.23 0.23 0.24 0.25 0.27 0.27 0.27 0.27 0.27 0.27 0.27 0.25 0.25 0.26 0.27 0.26 0.24 0.26 0.31 0.35 0.35 0.35 0.35 0.36 0.41 0.39 0.39 0.41 0.42 0.40 0.37 0.31 0.29 0.30
0.14 0.16 0.20 0.22 0.23 0.25 0.25 0.25 0.25 0.27 0.28 0.27 0.27 0.27 0.27 0.26 0.26 0.26 0.26 0.26 0.26 0.27 0.32 0.35 0.35 0.33 0.30 0.28 0.36 0.43 0.39 0.41 0.42 0.39 0.39 0.35 0.31 0.29
0.17 0.19 0.21 0.23 0.25 0.25 0.25 0.26 0.26 0.27 0.27 0.27 0.28 0.28 0.28 0.27 0.26 0.26 0.27 0.26 0.26 0.28 0.31 0.34 0.34 0.34 0.33 0.32 0.33 0.39 0.45 0.41 0.41 0.39 0.37 0.40 0.39 0.40
0.19 0.21 0.23 0.24 0.25 0.25 0.26 0.27 0.28 0.28 0.29 0.29 0.29 0.28 0.28 0.28 0.27 0.28 0.27 0.28 0.27 0.28 0.30 0.32 0.34 0.39 0.39 0.40 0.36 0.37 0.41 0.45 0.44 0.41 0.40 0.39 0.35 0.36
0.21 0.22 0.24 0.25 0.25 0.26 0.27 0.28 0.28 0.29 0.29 0.29 0.29 0.29 0.30 0.30 0.29 0.28 0.28 0.27 0.27 0.29 0.32 0.35 0.35 0.36 0.36 0.35 0.34 0.36 0.38 0.41 0.44 0.45 0.45 0.43 0.36 0.32
0.22 0.24 0.25 0.26 0.27 0.28 0.29 0.29 0.29 0.29 0.29 0.29 0.30 0.30 0.31 0.30 0.30 0.30 0.30 0.29 0.29 0.29 0.32 0.33 0.34 0.35 0.34 0.34 0.36 0.37 0.38 0.38 0.39 0.39 0.42 0.46 0.46 0.46

GFSNE_prec_pwat_045.txt.gz
Precipitable_Water
0.48 0.46 0.42 0.38 0.35 0.33 0.30 0.29 0.26 0.21 0.21 0.23 0.21 0.23 0.23 0.23 0.24 0.25 0.24 0.23 0.24 0.26 0.28 0.28 0.29 0.29 0.29 0.30 0.32 0.34 0.36 0.36 0.37 0.37 0.38 0.39 0.39 0.42
0.47 0.43 0.40 0.36 0.33 0.31 0.30 0.28 0.26 0.24 0.20 0.22 0.21 0.22 0.24 0.25 0.24 0.25 0.24 0.24 0.25 0.25 0.26 0.27 0.27 0.29 0.31 0.34 0.35 0.36 0.37 0.38 0.40 0.41 0.42 0.43 0.44 0.44
0.45 0.42 0.37 0.34 0.30 0.29 0.27 0.26 0.25 0.24 0.20 0.21 0.23 0.25 0.23 0.23 0.24 0.24 0.26 0.25 0.23 0.24 0.24 0.27 0.30 0.32 0.35 0.36 0.37 0.37 0.38 0.38 0.40 0.41 0.43 0.44 0.44 0.45
0.42 0.38 0.33 0.30 0.28 0.27 0.26 0.25 0.24 0.23 0.23 0.20 0.22 0.22 0.23 0.24 0.24 0.25 0.26 0.26 0.22 0.24 0.27 0.30 0.33 0.34 0.35 0.36 0.36 0.36 0.37 0.38 0.39 0.40 0.41 0.41 0.42 0.42
0.38 0.33 0.30 0.28 0.27 0.26 0.25 0.24 0.24 0.25 0.23 0.21 0.19 0.22 0.22 0.25 0.26 0.28 0.22 0.22 0.25 0.27 0.29 0.31 0.32 0.33 0.34 0.35 0.35 0.35 0.35 0.36 0.38 0.39 0.39 0.40 0.39 0.40
0.33 0.30 0.29 0.29 0.27 0.25 0.24 0.24 0.24 0.22 0.22 0.20 0.19 0.20 0.23 0.27 0.24 0.20 0.20 0.24 0.27 0.30 0.32 0.32 0.32 0.32 0.32 0.31 0.31 0.33 0.35 0.37 0.37 0.38 0.38 0.38 0.38 0.39
0.29 0.30 0.29 0.28 0.27 0.27 0.26 0.24 0.24 0.22 0.21 0.21 0.21 0.23 0.22 0.20 0.19 0.21 0.23 0.27 0.29 0.33 0.30 0.28 0.30 0.28 0.29 0.29 0.31 0.32 0.35 0.37 0.38 0.37 0.38 0.38 0.39 0.39
0.29 0.27 0.27 0.25 0.25 0.24 0.25 0.25 0.24 0.22 0.23 0.23 0.22 0.21 0.20 0.19 0.23 0.25 0.27 0.27 0.26 0.31 0.29 0.27 0.28 0.26 0.28 0.29 0.31 0.34 0.37 0.38 0.37 0.38 0.40 0.41 0.41 0.42
0.27 0.26 0.25 0.24 0.24 0.23 0.23 0.23 0.24 0.24 0.26 0.24 0.22 0.20 0.20 0.25 0.27 0.28 0.30 0.29 0.27 0.28 0.28 0.24 0.27 0.24 0.27 0.29 0.32 0.35 0.38 0.38 0.40 0.41 0.42 0.42 0.42 0.42
0.26 0.25 0.23 0.22 0.22 0.22 0.22 0.23 0.24 0.25 0.24 0.22 0.22 0.24 0.28 0.31 0.34 0.34 0.31 0.28 0.27 0.28 0.29 0.22 0.26 0.24 0.27 0.31 0.33 0.35 0.38 0.39 0.41 0.41 0.42 0.43 0.43 0.44
0.24 0.23 0.22 0.22 0.21 0.24 0.23 0.23 0.23 0.20 0.21 0.23 0.28 0.31 0.33 0.33 0.32 0.30 0.27 0.25 0.22 0.24 0.27 0.26 0.26 0.25 0.25 0.28 0.32 0.35 0.37 0.39 0.41 0.42 0.43 0.44 0.44 0.45
0.21 0.21 0.21 0.21 0.23 0.24 0.23 0.22 0.18 0.18 0.22 0.28 0.30 0.29 0.29 0.29 0.30 0.30 0.28 0.25 0.24 0.22 0.26 0.25 0.25 0.26 0.20 0.28 0.31 0.34 0.35 0.38 0.41 0.43 0.44 0.46 0.44 0.42
0.20 0.19 0.20 0.21 0.23 0.24 0.23 0.20 0.20 0.26 0.29 0.28 0.27 0.27 0.28 0.29 0.30 0.31 0.32 0.30 0.26 0.24 0.28 0.28 0.25 0.25 0.25 0.26 0.30 0.33 0.35 0.37 0.40 0.43 0.46 0.45 0.45 0.44
0.19 0.19 0.21 0.22 0.23 0.21 0.20 0.23 0.28 0.28 0.26 0.26 0.25 0.26 0.26 0.28 0.30 0.31 0.32 0.32 0.32 0.29 0.30 0.31 0.26 0.26 0.25 0.26 0.27 0.32 0.35 0.38 0.42 0.43 0.43 0.44 0.46 0.47
0.20 0.21 0.21 0.21 0.19 0.19 0.22 0.26 0.26 0.25 0.25 0.24 0.25 0.26 0.28 0.29 0.30 0.30 0.31 0.32 0.31 0.31 0.31 0.32 0.31 0.30 0.29 0.30 0.29 0.31 0.33 0.38 0.42 0.43 0.44 0.44 0.43 0.43
0.21 0.20 0.19 0.17 0.18 0.22 0.24 0.25 0.25 0.26 0.27 0.27 0.27 0.28 0.29 0.29 0.29 0.30 0.29 0.29 0.28 0.28 0.32 0.33 0.33 0.32 0.30 0.34 0.34 0.33 0.36 0.35 0.41 0.44 0.43 0.41 0.42 0.44
0.20 0.18 0.15 0.17 0.20 0.22 0.23 0.25 0.26 0.27 0.27 0.29 0.29 0.28 0.28 0.29 0.28 0.30 0.30 0.29 0.27 0.26 0.26 0.29 0.33 0.34 0.37 0.36 0.33 0.34 0.35 0.38 0.41 0.42 0.42 0.37 0.41 0.42
0.17 0.14 0.16 0.19 0.20 0.22 0.23 0.24 0.26 0.27 0.29 0.29 0.29 0.28 0.28 0.28 0.28 0.30 0.30 0.28 0.27 0.26 0.26 0.28 0.29 0.30 0.33 0.35 0.37 0.35 0.36 0.38 0.40 0.41 0.41 0.36 0.36 0.42
0.14 0.16 0.19 0.20 0.22 0.23 0.24 0.25 0.26 0.28 0.30 0.30 0.29 0.29 0.29 0.29 0.29 0.28 0.29 0.28 0.27 0.27 0.27 0.29 0.30 0.32 0.28 0.25 0.32 0.38 0.35 0.38 0.38 0.38 0.39 0.38 0.37 0.42
0.16 0.19 0.20 0.22 0.24 0.25 0.26 0.27 0.28 0.29 0.30 0.30 0.30 0.30 0.30 0.30 0.29 0.29 0.29 0.28 0.27 0.27 0.27 0.29 0.32 0.33 0.30 0.30 0.31 0.34 0.41 0.39 0.38 0.37 0.38 0.41 0.44 0.48
0.19 0.20 0.23 0.24 0.26 0.27 0.28 0.29 0.30 0.30 0.31 0.31 0.31 0.31 0.31 0.30 0.29 0.30 0.29 0.29 0.28 0.27 0.25 0.29 0.34 0.37 0.38 0.39 0.33 0.33 0.38 0.43 0.43 0.40 0.40 0.39 0.37 0.41
0.21 0.23 0.25 0.26 0.27 0.28 0.29 0.30 0.31 0.31 0.31 0.32 0.31 0.31 0.31 0.31 0.30 0.30 0.30 0.28 0.28 0.27 0.28 0.33 0.35 0.36 0.36 0.34 0.33 0.35 0.36 0.41 0.43 0.45 0.47 0.45 0.38 0.34
0.23 0.26 0.26 0.27 0.29 0.30 0.30 0.31 0.32 0.32 0.33 0.32 0.32 0.31 0.31 0.30 0.31 0.31 0.31 0.30 0.29 0.29 0.29 0.31 0.33 0.35 0.34 0.36 0.36 0.36 0.37 0.37 0.39 0.40 0.43 0.47 0.49 0.52

GFSNE_prec_pwat_048.txt.gz
Precipitable_Water
0.55 0.52 0.49 0.48 0.48 0.43 0.39 0.34 0.28 0.23 0.23 0.25 0.24 0.26 0.25 0.25 0.25 0.26 0.24 0.23 0.25 0.26 0.28 0.28 0.28 0.29 0.30 0.31 0.32 0.34 0.36 0.37 0.39 0.41 0.43 0.44 0.45 0.45
0.54 0.50 0.49 0.49 0.44 0.40 0.35 0.31 0.29 0.25 0.22 0.24 0.23 0.24 0.26 0.26 0.25 0.24 0.24 0.24 0.24 0.26 0.27 0.28 0.29 0.30 0.32 0.33 0.34 0.36 0.38 0.39 0.40 0.42 0.43 0.45 0.45 0.46
0.52 0.51 0.49 0.45 0.40 0.35 0.31 0.28 0.26 0.26 0.22 0.23 0.24 0.26 0.25 0.24 0.23 0.24 0.24 0.25 0.26 0.26 0.25 0.27 0.30 0.32 0.33 0.35 0.36 0.37 0.37 0.39 0.40 0.41 0.42 0.44 0.46 0.46
0.52 0.50 0.44 0.40 0.34 0.30 0.28 0.27 0.26 0.26 0.24 0.21 0.23 0.23 0.22 0.22 0.22 0.23 0.25 0.27 0.24 0.23 0.27 0.29 0.31 0.33 0.34 0.35 0.36 0.37 0.37 0.37 0.38 0.39 0.39 0.40 0.41 0.43
0.51 0.44 0.38 0.33 0.29 0.28 0.28 0.26 0.26 0.26 0.24 0.22 0.20 0.22 0.21 0.23 0.24 0.26 0.24 0.22 0.24 0.25 0.27 0.29 0.31 0.33 0.35 0.34 0.35 0.35 0.35 0.35 0.35 0.35 0.37 0.39 0.40 0.42
0.44 0.37 0.32 0.29 0.29 0.28 0.27 0.26 0.26 0.24 0.23 0.21 0.20 0.20 0.22 0.25 0.24 0.22 0.19 0.23 0.23 0.28 0.29 0.32 0.34 0.32 0.32 0.31 0.31 0.32 0.33 0.33 0.33 0.35 0.39 0.41 0.42 0.40
0.33 0.30 0.30 0.29 0.29 0.29 0.27 0.25 0.25 0.23 0.22 0.22 0.20 0.20 0.20 0.21 0.21 0.22 0.22 0.24 0.26 0.30 0.32 0.31 0.30 0.29 0.29 0.29 0.30 0.30 0.32 0.33 0.35 0.38 0.41 0.42 0.41 0.41
0.27 0.28 0.28 0.28 0.26 0.26 0.25 0.26 0.25 0.22 0.21 0.20 0.20 0.20 0.20 0.20 0.23 0.24 0.25 0.25 0.24 0.33 0.29 0.27 0.29 0.26 0.28 0.29 0.29 0.31 0.32 0.34 0.37 0.40 0.41 0.42 0.43 0.44
0.27 0.27 0.26 0.25 0.24 0.23 0.23 0.23 0.23 0.24 0.25 0.23 0.20 0.19 0.19 0.24 0.27 0.26 0.28 0.29 0.27 0.28 0.27 0.23 0.27 0.24 0.27 0.28 0.29 0.31 0.33 0.35 0.38 0.41 0.42 0.43 0.44 0.45
0.26 0.25 0.23 0.22 0.22 0.23 0.22 0.23 0.23 0.23 0.23 0.23 0.22 0.25 0.28 0.30 0.31 0.32 0.30 0.28 0.27 0.27 0.28 0.22 0.26 0.24 0.26 0.28 0.29 0.30 0.32 0.35 0.38 0.40 0.40 0.42 0.44 0.44
0.24 0.22 0.21 0.21 0.21 0.23 0.23 0.21 0.21 0.21 0.23 0.25 0.28 0.30 0.31 0.31 0.31 0.29 0.26 0.25 0.22 0.24 0.29 0.26 0.25 0.24 0.24 0.24 0.27 0.29 0.32 0.34 0.36 0.39 0.39 0.42 0.44 0.45
0.21 0.21 0.21 0.21 0.22 0.23 0.23 0.22 0.19 0.20 0.24 0.27 0.28 0.28 0.28 0.28 0.29 0.29 0.28 0.25 0.24 0.22 0.28 0.25 0.24 0.24 0.19 0.23 0.26 0.29 0.31 0.33 0.36 0.37 0.39 0.42 0.44 0.45
0.21 0.19 0.20 0.21 0.23 0.24 0.23 0.21 0.22 0.26 0.26 0.26 0.25 0.26 0.26 0.27 0.28 0.29 0.30 0.29 0.25 0.24 0.28 0.28 0.25 0.25 0.24 0.22 0.24 0.29 0.31 0.33 0.35 0.36 0.40 0.43 0.45 0.46
0.19 0.19 0.20 0.22 0.22 0.21 0.21 0.22 0.26 0.26 0.24 0.24 0.25 0.25 0.26 0.28 0.29 0.30 0.31 0.31 0.32 0.30 0.31 0.32 0.27 0.27 0.25 0.23 0.22 0.28 0.31 0.34 0.36 0.37 0.40 0.43 0.45 0.46
0.19 0.20 0.21 0.21 0.19 0.18 0.21 0.24 0.25 0.24 0.24 0.24 0.25 0.26 0.28 0.29 0.31 0.30 0.31 0.32 0.32 0.33 0.33 0.32 0.30 0.29 0.28 0.25 0.24 0.28 0.30 0.33 0.36 0.38 0.40 0.42 0.44 0.44
0.20 0.20 0.19 0.17 0.17 0.21 0.22 0.23 0.24 0.25 0.26 0.26 0.26 0.28 0.29 0.29 0.28 0.30 0.29 0.29 0.28 0.28 0.32 0.32 0.31 0.31 0.27 0.28 0.30 0.30 0.33 0.31 0.36 0.38 0.41 0.42 0.44 0.44
0.20 0.17 0.15 0.15 0.19 0.21 0.23 0.24 0.25 0.26 0.27 0.28 0.28 0.28 0.28 0.28 0.29 0.30 0.30 0.29 0.27 0.26 0.27 0.30 0.32 0.32 0.31 0.32 0.31 0.32 0.32 0.33 0.36 0.37 0.38 0.37 0.40 0.42
0.16 0.13 0.13 0.19 0.20 0.22 0.23 0.24 0.26 0.27 0.29 0.30 0.30 0.30 0.29 0.29 0.29 0.30 0.30 0.29 0.27 0.27 0.27 0.28 0.27 0.27 0.30 0.33 0.35 0.33 0.33 0.33 0.35 0.38 0.38 0.35 0.36 0.41
0.14 0.13 0.18 0.20 0.22 0.23 0.25 0.26 0.27 0.29 0.31 0.31 0.30 0.30 0.30 0.29 0.29 0.28 0.28 0.28 0.27 0.27 0.27 0.28 0.28 0.29 0.27 0.25 0.31 0.37 0.33 0.35 0.36 0.36 0.38 0.38 0.37 0.40
0.14 0.18 0.20 0.23 0.24 0.25 0.26 0.27 0.29 0.30 0.31 0.31 0.31 0.31 0.30 0.29 0.28 0.27 0.28 0.27 0.27 0.27 0.27 0.28 0.30 0.32 0.29 0.29 0.30 0.33 0.40 0.37 0.37 0.35 0.36 0.40 0.42 0.46
0.18 0.21 0.24 0.25 0.26 0.27 0.28 0.29 0.31 0.31 0.32 0.32 0.31 0.31 0.30 0.29 0.28 0.28 0.28 0.28 0.28 0.28 0.25 0.27 0.33 0.37 0.37 0.37 0.33 0.33 0.36 0.41 0.42 0.39 0.39 0.37 0.36 0.39
0.22 0.24 0.26 0.26 0.27 0.28 0.29 0.31 0.31 0.32 0.32 0.32 0.31 0.31 0.31 0.30 0.28 0.28 0.28 0.27 0.27 0.28 0.28 0.32 0.35 0.36 0.35 0.34 0.33 0.34 0.36 0.39 0.42 0.43 0.44 0.43 0.39 0.35
0.25 0.26 0.27 0.27 0.29 0.30 0.31 0.32 0.32 0.33 0.32 0.32 0.32 0.31 0.31 0.29 0.30 0.30 0.29 0.29 0.29 0.29 0.31 0.31 0.34 0.35 0.35 0.36 0.35 0.35 0.36 0.36 0.38 0.37 0.39 0.45 0.50 0.50

GFSNE_prec_pwat_051.txt.gz
Precipitable_Water
0.62 0.61 0.58 0.55 0.53 0.50 0.48 0.45 0.37 0.30 0.28 0.29 0.27 0.28 0.28 0.27 0.27 0.28 0.27 0.25 0.27 0.27 0.27 0.29 0.31 0.31 0.31 0.32 0.33 0.36 0.37 0.39 0.40 0.40 0.41 0.42 0.44 0.44
0.61 0.59 0.56 0.54 0.52 0.50 0.47 0.40 0.35 0.30 0.25 0.26 0.26 0.27 0.27 0.27 0.27 0.26 0.24 0.24 0.24 0.25 0.27 0.28 0.29 0.29 0.31 0.33 0.33 0.34 0.38 0.38 0.40 0.41 0.43 0.44 0.45 0.47
0.60 0.58 0.55 0.54 0.51 0.47 0.41 0.36 0.31 0.28 0.24 0.25 0.26 0.27 0.25 0.24 0.23 0.23 0.23 0.23 0.23 0.24 0.25 0.26 0.28 0.30 0.30 0.31 0.34 0.35 0.37 0.38 0.39 0.41 0.43 0.44 0.45 0.46
0.57 0.55 0.53 0.52 0.46 0.40 0.35 0.31 0.28 0.28 0.25 0.23 0.24 0.23 0.23 0.23 0.23 0.22 0.23 0.24 0.24 0.23 0.24 0.27 0.27 0.29 0.31 0.33 0.36 0.39 0.36 0.37 0.38 0.39 0.40 0.40 0.41 0.42
0.57 0.54 0.51 0.44 0.37 0.33 0.31 0.28 0.28 0.28 0.26 0.23 0.21 0.23 0.23 0.23 0.21 0.23 0.23 0.22 0.23 0.25 0.25 0.26 0.29 0.32 0.35 0.35 0.35 0.35 0.35 0.35 0.35 0.35 0.36 0.36 0.36 0.38
0.55 0.49 0.42 0.35 0.31 0.29 0.28 0.28 0.28 0.26 0.24 0.23 0.21 0.21 0.22 0.22 0.22 0.20 0.18 0.22 0.22 0.26 0.28 0.30 0.33 0.33 0.33 0.32 0.32 0.32 0.32 0.33 0.34 0.35 0.36 0.37 0.39 0.40
0.45 0.36 0.32 0.31 0.31 0.30 0.29 0.28 0.25 0.23 0.22 0.21 0.21 0.20 0.19 0.18 0.18 0.20 0.22 0.24 0.25 0.28 0.29 0.31 0.31 0.30 0.29 0.29 0.29 0.30 0.31 0.33 0.33 0.34 0.35 0.37 0.39 0.42
0.32 0.30 0.29 0.29 0.28 0.28 0.26 0.25 0.25 0.23 0.22 0.21 0.21 0.18 0.18 0.20 0.23 0.24 0.23 0.22 0.21 0.29 0.28 0.26 0.28 0.26 0.27 0.28 0.28 0.29 0.30 0.32 0.33 0.34 0.36 0.38 0.40 0.42
0.28 0.27 0.26 0.27 0.26 0.24 0.23 0.24 0.24 0.25 0.25 0.23 0.20 0.20 0.22 0.24 0.25 0.24 0.25 0.25 0.24 0.26 0.26 0.23 0.27 0.25 0.28 0.28 0.28 0.29 0.30 0.32 0.33 0.35 0.37 0.38 0.41 0.43
0.26 0.27 0.25 0.23 0.22 0.23 0.23 0.23 0.23 0.23 0.23 0.24 0.24 0.25 0.26 0.28 0.30 0.29 0.27 0.26 0.26 0.26 0.28 0.22 0.26 0.25 0.27 0.28 0.28 0.28 0.29 0.31 0.33 0.34 0.35 0.37 0.40 0.41
0.26 0.24 0.23 0.22 0.22 0.24 0.23 0.21 0.22 0.22 0.23 0.25 0.27 0.29 0.29 0.29 0.29 0.27 0.25 0.23 0.21 0.23 0.27 0.25 0.25 0.24 0.25 0.25 0.27 0.28 0.29 0.30 0.31 0.33 0.35 0.37 0.39 0.40
0.22 0.22 0.22 0.21 0.22 0.23 0.24 0.22 0.19 0.18 0.23 0.25 0.26 0.26 0.26 0.27 0.28 0.29 0.27 0.24 0.24 0.22 0.27 0.24 0.25 0.26 0.21 0.25 0.26 0.27 0.28 0.29 0.31 0.33 0.34 0.36 0.39 0.39
0.20 0.18 0.19 0.20 0.23 0.24 0.23 0.20 0.19 0.24 0.25 0.24 0.23 0.24 0.26 0.27 0.29 0.30 0.31 0.29 0.26 0.25 0.29 0.29 0.26 0.26 0.25 0.23 0.25 0.27 0.28 0.28 0.30 0.32 0.33 0.36 0.38 0.40
0.18 0.19 0.20 0.23 0.22 0.20 0.19 0.19 0.24 0.25 0.23 0.22 0.23 0.24 0.26 0.27 0.29 0.30 0.31 0.32 0.33 0.31 0.32 0.32 0.27 0.27 0.25 0.22 0.21 0.25 0.27 0.29 0.31 0.31 0.34 0.36 0.38 0.41
0.20 0.21 0.22 0.20 0.18 0.16 0.18 0.23 0.24 0.23 0.23 0.24 0.25 0.26 0.28 0.30 0.31 0.31 0.32 0.32 0.32 0.33 0.33 0.33 0.31 0.29 0.28 0.24 0.23 0.24 0.25 0.29 0.32 0.33 0.34 0.35 0.36 0.39
0.21 0.20 0.19 0.16 0.15 0.18 0.22 0.24 0.24 0.25 0.26 0.26 0.27 0.29 0.31 0.31 0.31 0.31 0.29 0.29 0.28 0.28 0.32 0.33 0.32 0.31 0.27 0.27 0.27 0.26 0.29 0.28 0.32 0.33 0.34 0.36 0.38 0.40
0.19 0.16 0.14 0.13 0.16 0.21 0.23 0.24 0.26 0.27 0.27 0.29 0.29 0.30 0.31 0.30 0.30 0.31 0.29 0.28 0.26 0.26 0.27 0.29 0.31 0.31 0.30 0.29 0.28 0.30 0.30 0.30 0.32 0.34 0.35 0.34 0.37 0.39
0.15 0.13 0.12 0.16 0.21 0.22 0.23 0.24 0.26 0.27 0.29 0.31 0.31 0.31 0.30 0.29 0.28 0.29 0.29 0.28 0.25 0.26 0.26 0.27 0.27 0.26 0.27 0.32 0.35 0.31 0.31 0.32 0.34 0.36 0.37 0.34 0.34 0.39
0.13 0.13 0.16 0.21 0.22 0.24 0.25 0.25 0.27 0.30 0.32 0.32 0.31 0.30 0.29 0.28 0.28 0.27 0.27 0.26 0.25 0.26 0.26 0.27 0.27 0.27 0.25 0.24 0.31 0.36 0.32 0.34 0.35 0.35 0.36 0.36 0.35 0.38
0.14 0.15 0.22 0.23 0.24 0.25 0.26 0.28 0.30 0.31 0.32 0.31 0.30 0.30 0.29 0.28 0.27 0.26 0.26 0.26 0.25 0.26 0.26 0.28 0.29 0.30 0.29 0.28 0.30 0.33 0.39 0.36 0.36 0.34 0.35 0.39 0.41 0.42
0.15 0.23 0.24 0.25 0.26 0.27 0.29 0.30 0.31 0.31 0.31 0.31 0.31 0.30 0.29 0.28 0.27 0.27 0.27 0.27 0.27 0.27 0.25 0.27 0.31 0.37 0.38 0.38 0.33 0.33 0.36 0.39 0.40 0.37 0.37 0.36 0.35 0.36
0.23 0.25 0.26 0.27 0.28 0.30 0.31 0.31 0.31 0.31 0.32 0.31 0.30 0.30 0.30 0.29 0.28 0.27 0.27 0.26 0.27 0.28 0.29 0.32 0.36 0.37 0.37 0.34 0.32 0.33 0.35 0.38 0.41 0.41 0.42 0.42 0.38 0.33
0.25 0.26 0.27 0.29 0.30 0.31 0.32 0.32 0.32 0.32 0.33 0.33 0.32 0.32 0.31 0.29 0.30 0.30 0.30 0.30 0.30 0.31 0.33 0.33 0.35 0.37 0.36 0.36 0.35 0.35 0.35 0.35 0.37 0.38 0.42 0.46 0.46 0.47

GFSNE_prec_pwat_054.txt.gz
Precipitable_Water
0.67 0.68 0.64 0.60 0.58 0.56 0.55 0.53 0.47 0.40 0.40 0.40 0.35 0.35 0.33 0.32 0.30 0.30 0.29 0.27 0.27 0.28 0.28 0.28 0.29 0.30 0.31 0.32 0.32 0.35 0.38 0.36 0.37 0.38 0.40 0.41 0.43 0.44
0.67 0.66 0.62 0.62 0.57 0.56 0.54 0.51 0.47 0.42 0.34 0.33 0.30 0.31 0.30 0.30 0.29 0.28 0.27 0.26 0.25 0.25 0.25 0.27 0.28 0.28 0.29 0.31 0.34 0.33 0.34 0.37 0.37 0.39 0.40 0.42 0.44 0.45
0.67 0.71 0.68 0.59 0.56 0.55 0.53 0.48 0.43 0.37 0.29 0.28 0.29 0.29 0.28 0.26 0.26 0.25 0.24 0.23 0.22 0.22 0.24 0.26 0.27 0.28 0.29 0.30 0.31 0.33 0.34 0.36 0.39 0.40 0.39 0.41 0.44 0.46
0.64 0.59 0.58 0.57 0.56 0.53 0.48 0.43 0.36 0.32 0.28 0.25 0.27 0.27 0.26 0.26 0.25 0.23 0.22 0.22 0.22 0.22 0.24 0.26 0.27 0.28 0.29 0.31 0.34 0.35 0.37 0.37 0.37 0.38 0.38 0.38 0.39 0.41
0.72 0.63 0.59 0.56 0.51 0.47 0.40 0.33 0.30 0.30 0.29 0.26 0.25 0.26 0.25 0.24 0.23 0.22 0.21 0.21 0.23 0.25 0.27 0.28 0.29 0.31 0.32 0.34 0.35 0.35 0.34 0.35 0.35 0.35 0.35 0.36 0.37 0.38
0.63 0.58 0.55 0.50 0.42 0.36 0.32 0.30 0.29 0.28 0.27 0.24 0.23 0.23 0.22 0.23 0.21 0.18 0.17 0.22 0.23 0.26 0.27 0.28 0.30 0.31 0.31 0.31 0.31 0.31 0.31 0.32 0.33 0.34 0.35 0.37 0.37 0.38
0.56 0.50 0.44 0.38 0.35 0.33 0.30 0.30 0.29 0.25 0.24 0.23 0.22 0.21 0.20 0.18 0.17 0.20 0.21 0.22 0.23 0.25 0.25 0.26 0.27 0.28 0.28 0.29 0.29 0.29 0.29 0.31 0.32 0.32 0.33 0.35 0.36 0.37
0.43 0.36 0.32 0.30 0.29 0.30 0.30 0.28 0.27 0.25 0.23 0.22 0.21 0.19 0.18 0.18 0.21 0.22 0.22 0.21 0.18 0.27 0.25 0.23 0.26 0.24 0.26 0.27 0.28 0.30 0.31 0.31 0.32 0.32 0.33 0.34 0.35 0.36
0.32 0.29 0.28 0.28 0.28 0.26 0.25 0.25 0.25 0.25 0.25 0.24 0.21 0.19 0.18 0.22 0.24 0.23 0.24 0.24 0.22 0.25 0.25 0.22 0.25 0.23 0.26 0.27 0.28 0.29 0.30 0.31 0.32 0.32 0.33 0.34 0.35 0.37
0.29 0.28 0.27 0.26 0.25 0.24 0.24 0.24 0.24 0.24 0.24 0.23 0.22 0.22 0.26 0.28 0.29 0.27 0.25 0.25 0.25 0.26 0.27 0.20 0.25 0.24 0.26 0.27 0.28 0.29 0.29 0.30 0.31 0.32 0.32 0.32 0.33 0.34
0.28 0.27 0.26 0.24 0.23 0.25 0.24 0.23 0.23 0.22 0.23 0.21 0.25 0.29 0.29 0.28 0.28 0.27 0.24 0.23 0.21 0.23 0.28 0.24 0.25 0.24 0.25 0.26 0.29 0.30 0.30 0.30 0.30 0.30 0.31 0.32 0.33 0.35
0.24 0.23 0.22 0.21 0.22 0.24 0.24 0.22 0.18 0.18 0.18 0.24 0.26 0.25 0.25 0.26 0.28 0.28 0.27 0.24 0.24 0.22 0.27 0.25 0.25 0.26 0.20 0.25 0.26 0.28 0.29 0.29 0.30 0.30 0.31 0.32 0.33 0.34
0.21 0.19 0.19 0.21 0.24 0.23 0.22 0.20 0.17 0.21 0.25 0.24 0.23 0.24 0.26 0.27 0.29 0.31 0.32 0.30 0.27 0.26 0.30 0.30 0.26 0.26 0.25 0.23 0.25 0.27 0.28 0.28 0.28 0.29 0.30 0.31 0.33 0.34
0.19 0.19 0.21 0.22 0.21 0.19 0.18 0.18 0.21 0.25 0.23 0.23 0.24 0.25 0.26 0.28 0.30 0.32 0.34 0.34 0.34 0.32 0.32 0.32 0.27 0.27 0.25 0.23 0.22 0.25 0.26 0.27 0.29 0.29 0.30 0.32 0.33 0.35
0.21 0.21 0.21 0.19 0.17 0.16 0.16 0.22 0.25 0.24 0.24 0.24 0.25 0.26 0.29 0.31 0.33 0.33 0.34 0.33 0.33 0.32 0.32 0.32 0.30 0.29 0.28 0.25 0.23 0.23 0.24 0.26 0.30 0.30 0.30 0.31 0.33 0.35
0.20 0.18 0.17 0.15 0.15 0.17 0.22 0.24 0.25 0.25 0.26 0.26 0.28 0.30 0.32 0.31 0.30 0.31 0.29 0.29 0.28 0.27 0.30 0.31 0.31 0.30 0.27 0.27 0.26 0.24 0.28 0.27 0.30 0.31 0.32 0.34 0.35 0.36
0.18 0.15 0.13 0.13 0.15 0.21 0.23 0.25 0.26 0.27 0.28 0.30 0.30 0.29 0.29 0.29 0.28 0.29 0.28 0.27 0.25 0.25 0.25 0.28 0.30 0.31 0.30 0.28 0.26 0.29 0.29 0.30 0.31 0.33 0.33 0.32 0.34 0.36
0.15 0.12 0.12 0.15 0.21 0.23 0.23 0.24 0.27 0.29 0.30 0.30 0.29 0.29 0.28 0.27 0.26 0.27 0.28 0.26 0.24 0.25 0.25 0.26 0.27 0.27 0.27 0.30 0.34 0.31 0.30 0.31 0.33 0.36 0.36 0.33 0.33 0.37
0.13 0.13 0.15 0.21 0.23 0.24 0.25 0.27 0.28 0.30 0.31 0.30 0.30 0.29 0.28 0.27 0.27 0.26 0.26 0.25 0.24 0.25 0.26 0.28 0.28 0.27 0.25 0.25 0.31 0.36 0.32 0.34 0.36 0.35 0.35 0.34 0.33 0.36
0.14 0.15 0.21 0.24 0.25 0.26 0.28 0.29 0.30 0.30 0.31 0.31 0.31 0.30 0.29 0.28 0.26 0.26 0.26 0.25 0.25 0.26 0.27 0.30 0.31 0.32 0.30 0.29 0.31 0.34 0.39 0.36 0.35 0.34 0.34 0.37 0.38 0.40
0.14 0.21 0.24 0.25 0.27 0.29 0.30 0.30 0.30 0.31 0.32 0.33 0.33 0.32 0.31 0.30 0.28 0.29 0.28 0.29 0.30 0.30 0.29 0.31 0.34 0.38 0.38 0.38 0.33 0.33 0.36 0.39 0.39 0.36 0.36 0.34 0.33 0.34
0.21 0.24 0.26 0.28 0.29 0.30 0.31 0.31 0.31 0.31 0.32 0.33 0.33 0.34 0.34 0.33 0.31 0.31 0.32 0.32 0.32 0.33 0.33 0.35 0.37 0.38 0.37 0.34 0.32 0.33 0.36 0.39 0.43 0.44 0.45 0.43 0.38 0.33
0.25 0.26 0.28 0.29 0.30 0.31 0.32 0.31 0.31 0.32 0.33 0.34 0.34 0.34 0.34 0.33 0.34 0.35 0.35 0.35 0.35 0.35 0.35 0.35 0.36 0.38 0.37 0.36 0.35 0.35 0.37 0.38 0.40 0.39 0.40 0.45 0.45 0.46

GFSNE_prec_pwat_057.txt.gz
Precipitable_Water
0.78 0.74 0.68 0.65 0.66 0.65 0.62 0.57 0.53 0.48 0.47 0.49 0.46 0.46 0.42 0.38 0.35 0.34 0.32 0.31 0.31 0.31 0.30 0.30 0.30 0.30 0.31 0.32 0.32 0.32 0.34 0.35 0.37 0.37 0.38 0.38 0.40 0.43
0.76 0.71 0.70 0.67 0.63 0.65 0.68 0.66 0.59 0.51 0.44 0.46 0.43 0.39 0.36 0.33 0.32 0.32 0.30 0.29 0.27 0.27 0.27 0.28 0.29 0.30 0.30 0.30 0.31 0.32 0.31 0.32 0.34 0.37 0.38 0.39 0.41 0.44
0.70 0.76 0.78 0.77 0.68 0.66 0.59 0.60 0.57 0.51 0.44 0.42 0.37 0.33 0.31 0.30 0.29 0.29 0.28 0.25 0.24 0.23 0.24 0.26 0.28 0.29 0.29 0.30 0.31 0.32 0.34 0.35 0.37 0.39 0.41 0.43 0.42 0.42
0.82 0.75 0.71 0.70 0.70 0.69 0.64 0.58 0.52 0.47 0.39 0.30 0.31 0.29 0.29 0.29 0.28 0.26 0.25 0.24 0.22 0.22 0.24 0.27 0.29 0.29 0.30 0.31 0.32 0.33 0.35 0.36 0.36 0.36 0.36 0.38 0.38 0.40
0.75 0.77 0.79 0.72 0.67 0.63 0.58 0.50 0.43 0.36 0.33 0.29 0.27 0.29 0.28 0.28 0.25 0.25 0.23 0.22 0.22 0.23 0.25 0.26 0.27 0.28 0.29 0.30 0.31 0.32 0.32 0.32 0.32 0.33 0.34 0.34 0.35 0.37
0.79 0.78 0.73 0.69 0.60 0.51 0.42 0.36 0.34 0.31 0.29 0.27 0.25 0.25 0.25 0.25 0.24 0.21 0.19 0.19 0.21 0.24 0.25 0.26 0.27 0.28 0.27 0.27 0.28 0.28 0.29 0.29 0.31 0.31 0.32 0.33 0.34 0.35
0.68 0.64 0.61 0.54 0.45 0.39 0.36 0.32 0.31 0.29 0.26 0.24 0.24 0.23 0.21 0.21 0.19 0.19 0.18 0.21 0.23 0.24 0.23 0.24 0.25 0.26 0.26 0.26 0.26 0.27 0.27 0.29 0.31 0.32 0.33 0.34 0.35 0.35
0.55 0.53 0.42 0.36 0.34 0.33 0.31 0.30 0.29 0.26 0.24 0.23 0.22 0.20 0.20 0.20 0.19 0.19 0.22 0.21 0.18 0.25 0.24 0.23 0.26 0.24 0.25 0.27 0.27 0.29 0.30 0.31 0.31 0.32 0.32 0.33 0.34 0.35
0.43 0.36 0.34 0.32 0.30 0.28 0.27 0.26 0.26 0.26 0.26 0.25 0.21 0.20 0.19 0.19 0.22 0.23 0.24 0.23 0.21 0.24 0.25 0.21 0.25 0.23 0.26 0.27 0.29 0.30 0.30 0.32 0.32 0.32 0.32 0.32 0.34 0.35
0.34 0.32 0.30 0.28 0.26 0.25 0.25 0.24 0.24 0.24 0.25 0.24 0.22 0.21 0.22 0.27 0.29 0.27 0.25 0.24 0.25 0.26 0.28 0.20 0.25 0.24 0.27 0.28 0.30 0.30 0.31 0.31 0.32 0.33 0.33 0.33 0.33 0.33
0.31 0.30 0.28 0.25 0.24 0.25 0.23 0.23 0.23 0.22 0.23 0.21 0.22 0.26 0.28 0.28 0.27 0.26 0.23 0.23 0.21 0.23 0.28 0.26 0.26 0.26 0.27 0.27 0.28 0.30 0.31 0.32 0.31 0.31 0.32 0.32 0.33 0.33
0.26 0.25 0.23 0.22 0.23 0.25 0.25 0.22 0.18 0.17 0.18 0.21 0.24 0.25 0.25 0.26 0.28 0.28 0.27 0.25 0.25 0.24 0.29 0.27 0.27 0.27 0.22 0.25 0.26 0.28 0.29 0.30 0.31 0.31 0.32 0.32 0.32 0.31
0.21 0.20 0.20 0.22 0.24 0.23 0.22 0.19 0.17 0.20 0.22 0.23 0.23 0.24 0.26 0.27 0.29 0.31 0.32 0.31 0.28 0.27 0.31 0.31 0.27 0.27 0.26 0.23 0.25 0.27 0.28 0.28 0.28 0.29 0.29 0.30 0.31 0.31
0.19 0.20 0.21 0.22 0.21 0.19 0.17 0.17 0.20 0.24 0.23 0.23 0.23 0.24 0.27 0.29 0.30 0.31 0.32 0.32 0.32 0.30 0.32 0.32 0.26 0.26 0.24 0.22 0.21 0.25 0.27 0.28 0.28 0.28 0.29 0.31 0.31 0.32
0.21 0.22 0.20 0.18 0.16 0.15 0.16 0.21 0.24 0.24 0.24 0.24 0.26 0.27 0.29 0.30 0.30 0.29 0.29 0.30 0.30 0.31 0.31 0.31 0.29 0.28 0.26 0.24 0.23 0.24 0.24 0.26 0.30 0.31 0.31 0.31 0.30 0.32
0.20 0.17 0.15 0.15 0.15 0.16 0.21 0.24 0.25 0.25 0.26 0.27 0.27 0.29 0.30 0.29 0.27 0.27 0.26 0.26 0.25 0.25 0.29 0.30 0.30 0.29 0.26 0.27 0.27 0.25 0.28 0.27 0.31 0.31 0.32 0.33 0.34 0.35
0.17 0.14 0.12 0.13 0.15 0.20 0.23 0.24 0.26 0.28 0.28 0.28 0.29 0.29 0.29 0.28 0.27 0.28 0.27 0.26 0.24 0.24 0.25 0.28 0.31 0.31 0.31 0.30 0.28 0.30 0.30 0.31 0.32 0.32 0.33 0.32 0.34 0.36
0.13 0.12 0.12 0.15 0.20 0.23 0.23 0.25 0.28 0.28 0.29 0.29 0.30 0.31 0.30 0.29 0.28 0.28 0.29 0.27 0.26 0.26 0.26 0.28 0.30 0.30 0.30 0.31 0.34 0.31 0.31 0.31 0.33 0.35 0.35 0.33 0.33 0.36
0.12 0.13 0.14 0.21 0.23 0.25 0.26 0.27 0.27 0.29 0.30 0.30 0.31 0.31 0.31 0.31 0.30 0.29 0.29 0.29 0.29 0.29 0.30 0.32 0.32 0.31 0.27 0.26 0.31 0.35 0.32 0.34 0.35 0.34 0.35 0.34 0.33 0.35
0.13 0.14 0.21 0.23 0.25 0.27 0.28 0.28 0.29 0.30 0.30 0.31 0.32 0.32 0.32 0.31 0.31 0.31 0.32 0.31 0.31 0.32 0.32 0.34 0.34 0.33 0.30 0.29 0.30 0.35 0.39 0.35 0.35 0.34 0.35 0.37 0.38 0.39
0.15 0.21 0.24 0.26 0.27 0.28 0.29 0.30 0.30 0.30 0.31 0.31 0.32 0.32 0.32 0.32 0.32 0.33 0.33 0.34 0.34 0.33 0.32 0.33 0.36 0.39 0.39 0.39 0.33 0.34 0.38 0.42 0.42 0.38 0.37 0.35 0.33 0.33
0.21 0.24 0.26 0.28 0.28 0.29 0.29 0.30 0.31 0.31 0.32 0.32 0.32 0.33 0.33 0.34 0.33 0.33 0.34 0.34 0.34 0.34 0.34 0.37 0.39 0.39 0.38 0.35 0.33 0.35 0.37 0.40 0.43 0.45 0.45 0.43 0.37 0.31
0.24 0.26 0.27 0.29 0.30 0.30 0.30 0.30 0.31 0.32 0.32 0.32 0.33 0.33 0.34 0.33 0.35 0.35 0.35 0.36 0.36 0.36 0.36 0.35 0.37 0.38 0.37 0.36 0.36 0.36 0.37 0.38 0.39 0.39 0.40 0.44 0.45 0.45

GFSNE_prec_pwat_060.txt.gz
Precipitable_Water
0.93 0.88 0.85 0.83 0.78 0.74 0.71 0.68 0.63 0.59 0.60 0.63 0.58 0.58 0.54 0.53 0.49 0.46 0.42 0.38 0.36 0.35 0.33 0.33 0.33 0.34 0.34 0.34 0.34 0.34 0.34 0.35 0.36 0.37 0.36 0.37 0.41 0.42
0.87 0.83 0.82 0.80 0.77 0.75 0.74 0.74 0.77 0.65 0.54 0.59 0.58 0.56 0.53 0.48 0.43 0.41 0.37 0.35 0.33 0.31 0.31 0.31 0.31 0.33 0.32 0.32 0.33 0.34 0.34 0.35 0.35 0.37 0.39 0.39 0.41 0.43
0.82 0.83 0.78 0.79 0.77 0.78 0.75 0.75 0.67 0.68 0.61 0.58 0.55 0.49 0.43 0.38 0.35 0.34 0.32 0.31 0.29 0.27 0.26 0.27 0.29 0.31 0.31 0.32 0.33 0.33 0.33 0.34 0.34 0.36 0.38 0.40 0.41 0.40
0.82 0.82 0.82 0.81 0.80 0.78 0.77 0.70 0.65 0.62 0.58 0.48 0.43 0.37 0.34 0.33 0.31 0.30 0.29 0.28 0.26 0.24 0.24 0.27 0.28 0.28 0.30 0.31 0.32 0.32 0.33 0.34 0.34 0.34 0.35 0.35 0.35 0.36
0.83 0.84 0.81 0.83 0.76 0.75 0.71 0.65 0.56 0.51 0.44 0.36 0.32 0.32 0.30 0.30 0.28 0.27 0.26 0.25 0.23 0.22 0.23 0.25 0.26 0.28 0.30 0.30 0.31 0.31 0.30 0.30 0.30 0.31 0.31 0.31 0.31 0.32
0.86 0.81 0.79 0.79 0.73 0.69 0.57 0.50 0.45 0.38 0.34 0.31 0.29 0.26 0.26 0.27 0.26 0.23 0.21 0.21 0.19 0.22 0.24 0.26 0.27 0.27 0.28 0.28 0.29 0.29 0.28 0.28 0.29 0.31 0.31 0.31 0.31 0.32
0.82 0.80 0.77 0.70 0.63 0.55 0.48 0.42 0.39 0.33 0.29 0.26 0.24 0.24 0.23 0.22 0.21 0.21 0.18 0.19 0.22 0.25 0.23 0.24 0.25 0.25 0.26 0.27 0.27 0.27 0.27 0.29 0.31 0.32 0.33 0.34 0.35 0.35
0.69 0.65 0.59 0.51 0.46 0.40 0.35 0.33 0.31 0.28 0.25 0.24 0.23 0.22 0.21 0.21 0.20 0.18 0.20 0.21 0.19 0.25 0.23 0.22 0.26 0.24 0.26 0.27 0.27 0.29 0.30 0.31 0.32 0.33 0.34 0.34 0.34 0.35
0.58 0.49 0.42 0.39 0.35 0.31 0.29 0.28 0.27 0.27 0.27 0.26 0.23 0.21 0.20 0.20 0.21 0.23 0.24 0.23 0.21 0.25 0.25 0.21 0.26 0.24 0.27 0.28 0.29 0.30 0.31 0.33 0.34 0.35 0.34 0.34 0.34 0.34
0.43 0.39 0.34 0.31 0.29 0.27 0.26 0.25 0.25 0.25 0.25 0.24 0.22 0.21 0.22 0.26 0.28 0.27 0.25 0.24 0.25 0.27 0.30 0.23 0.27 0.26 0.29 0.30 0.31 0.32 0.33 0.34 0.34 0.35 0.34 0.33 0.33 0.34
0.34 0.31 0.28 0.26 0.25 0.26 0.25 0.25 0.23 0.21 0.22 0.21 0.22 0.26 0.27 0.27 0.27 0.26 0.25 0.25 0.23 0.24 0.27 0.25 0.25 0.24 0.26 0.27 0.29 0.31 0.32 0.33 0.33 0.32 0.32 0.32 0.33 0.33
0.26 0.25 0.24 0.23 0.25 0.25 0.24 0.21 0.17 0.16 0.17 0.21 0.24 0.24 0.25 0.26 0.29 0.30 0.28 0.24 0.22 0.20 0.24 0.23 0.23 0.25 0.20 0.24 0.26 0.28 0.29 0.29 0.30 0.31 0.31 0.32 0.32 0.32
0.22 0.21 0.21 0.23 0.23 0.22 0.21 0.18 0.16 0.20 0.23 0.23 0.23 0.24 0.27 0.29 0.29 0.30 0.30 0.26 0.23 0.22 0.26 0.26 0.23 0.24 0.23 0.22 0.24 0.26 0.27 0.27 0.27 0.28 0.29 0.30 0.31 0.31
0.20 0.20 0.20 0.20 0.18 0.17 0.16 0.17 0.21 0.24 0.23 0.23 0.24 0.26 0.27 0.28 0.30 0.30 0.29 0.29 0.29 0.28 0.29 0.30 0.25 0.25 0.23 0.22 0.21 0.24 0.26 0.28 0.28 0.28 0.29 0.31 0.32 0.33
0.20 0.19 0.17 0.15 0.15 0.14 0.17 0.21 0.24 0.24 0.24 0.25 0.26 0.26 0.28 0.31 0.32 0.31 0.30 0.30 0.30 0.30 0.31 0.30 0.29 0.28 0.27 0.25 0.25 0.26 0.27 0.29 0.32 0.32 0.32 0.32 0.31 0.32
0.17 0.16 0.14 0.14 0.15 0.17 0.21 0.24 0.25 0.26 0.28 0.27 0.26 0.28 0.31 0.31 0.31 0.31 0.29 0.29 0.28 0.28 0.31 0.32 0.32 0.32 0.30 0.30 0.30 0.28 0.31 0.29 0.32 0.33 0.33 0.34 0.35 0.35
0.16 0.13 0.12 0.13 0.15 0.21 0.23 0.25 0.27 0.28 0.27 0.28 0.28 0.29 0.30 0.31 0.31 0.32 0.31 0.31 0.29 0.29 0.30 0.33 0.36 0.36 0.35 0.33 0.29 0.31 0.30 0.30 0.32 0.33 0.33 0.32 0.34 0.36
0.13 0.11 0.12 0.15 0.21 0.23 0.24 0.26 0.27 0.28 0.28 0.29 0.29 0.30 0.30 0.30 0.30 0.31 0.32 0.31 0.31 0.31 0.31 0.33 0.34 0.33 0.32 0.32 0.35 0.31 0.31 0.31 0.33 0.35 0.35 0.32 0.32 0.36
0.12 0.12 0.16 0.21 0.23 0.24 0.26 0.27 0.27 0.29 0.30 0.30 0.30 0.30 0.31 0.31 0.31 0.31 0.31 0.32 0.31 0.32 0.33 0.35 0.34 0.32 0.28 0.26 0.32 0.37 0.33 0.34 0.35 0.35 0.36 0.36 0.34 0.35
0.14 0.16 0.21 0.23 0.24 0.25 0.27 0.27 0.28 0.29 0.30 0.31 0.31 0.32 0.32 0.31 0.31 0.31 0.32 0.32 0.32 0.33 0.34 0.35 0.35 0.34 0.31 0.30 0.32 0.36 0.41 0.37 0.37 0.36 0.37 0.39 0.40 0.41
0.16 0.21 0.24 0.25 0.26 0.27 0.27 0.28 0.28 0.29 0.30 0.31 0.31 0.31 0.31 0.31 0.30 0.31 0.32 0.33 0.34 0.34 0.33 0.33 0.36 0.41 0.40 0.40 0.34 0.35 0.39 0.43 0.43 0.40 0.39 0.37 0.35 0.35
0.20 0.23 0.25 0.26 0.27 0.28 0.28 0.28 0.28 0.29 0.29 0.30 0.31 0.31 0.31 0.31 0.31 0.32 0.33 0.32 0.33 0.35 0.35 0.37 0.39 0.39 0.38 0.35 0.33 0.35 0.36 0.39 0.41 0.42 0.43 0.43 0.38 0.32
0.23 0.25 0.27 0.28 0.28 0.29 0.29 0.29 0.29 0.29 0.30 0.30 0.30 0.31 0.31 0.30 0.33 0.34 0.33 0.33 0.34 0.36 0.37 0.36 0.37 0.38 0.37 0.36 0.36 0.35 0.35 0.35 0.36 0.38 0.39 0.41 0.41 0.44

GFSNE_prec_pwat_063.txt.gz
Precipitable_Water
1.05 1.00 0.96 0.93 0.85 0.85 0.82 0.73 0.68 0.66 0.65 0.69 0.69 0.73 0.69 0.63 0.63 0.64 0.59 0.52 0.48 0.44 0.42 0.40 0.38 0.37 0.37 0.37 0.38 0.38 0.38 0.38 0.39 0.40 0.41 0.40 0.43 0.43
0.99 0.94 0.86 0.83 0.80 0.79 0.83 0.76 0.77 0.75 0.72 0.74 0.70 0.68 0.68 0.64 0.59 0.57 0.50 0.45 0.41 0.39 0.36 0.35 0.35 0.35 0.35 0.35 0.35 0.36 0.37 0.37 0.39 0.39 0.40 0.42 0.43 0.44
0.87 0.83 0.80 0.78 0.76 0.78 0.79 0.82 0.82 0.79 0.74 0.75 0.71 0.64 0.59 0.52 0.47 0.42 0.40 0.37 0.34 0.32 0.31 0.30 0.31 0.32 0.32 0.32 0.33 0.33 0.34 0.36 0.37 0.37 0.39 0.40 0.42 0.42
0.76 0.76 0.75 0.78 0.81 0.83 0.84 0.81 0.81 0.76 0.66 0.61 0.58 0.53 0.45 0.40 0.39 0.36 0.34 0.32 0.30 0.27 0.26 0.27 0.28 0.28 0.29 0.30 0.31 0.32 0.33 0.34 0.35 0.35 0.35 0.35 0.36 0.37
0.72 0.75 0.77 0.80 0.84 0.84 0.83 0.77 0.73 0.65 0.60 0.52 0.46 0.45 0.42 0.37 0.34 0.32 0.29 0.28 0.26 0.24 0.24 0.25 0.26 0.27 0.29 0.30 0.31 0.31 0.31 0.31 0.31 0.32 0.32 0.32 0.33 0.33
0.83 0.82 0.84 0.85 0.82 0.79 0.74 0.67 0.60 0.55 0.51 0.44 0.37 0.33 0.32 0.31 0.29 0.26 0.23 0.23 0.21 0.24 0.25 0.27 0.27 0.27 0.27 0.27 0.28 0.28 0.28 0.29 0.30 0.31 0.32 0.32 0.33 0.34
0.82 0.84 0.82 0.79 0.74 0.67 0.60 0.55 0.49 0.41 0.34 0.33 0.30 0.28 0.25 0.25 0.23 0.23 0.20 0.21 0.24 0.25 0.24 0.25 0.26 0.26 0.27 0.27 0.27 0.27 0.28 0.29 0.31 0.32 0.33 0.34 0.35 0.36
0.75 0.72 0.70 0.64 0.59 0.53 0.47 0.42 0.38 0.33 0.30 0.27 0.25 0.23 0.22 0.22 0.21 0.20 0.21 0.21 0.19 0.26 0.24 0.25 0.28 0.27 0.28 0.30 0.30 0.31 0.32 0.33 0.33 0.33 0.34 0.35 0.36 0.36
0.64 0.55 0.50 0.48 0.46 0.40 0.35 0.32 0.30 0.30 0.28 0.26 0.23 0.21 0.20 0.19 0.21 0.23 0.24 0.23 0.23 0.26 0.26 0.23 0.26 0.23 0.25 0.25 0.27 0.28 0.30 0.33 0.35 0.36 0.36 0.36 0.36 0.37
0.54 0.48 0.41 0.35 0.31 0.29 0.28 0.26 0.25 0.25 0.24 0.23 0.22 0.20 0.22 0.26 0.27 0.27 0.25 0.26 0.27 0.27 0.27 0.19 0.22 0.21 0.24 0.25 0.26 0.27 0.28 0.30 0.33 0.35 0.36 0.36 0.36 0.36
0.35 0.32 0.28 0.25 0.26 0.27 0.26 0.23 0.20 0.19 0.19 0.19 0.21 0.25 0.26 0.27 0.27 0.27 0.26 0.24 0.22 0.22 0.24 0.22 0.22 0.22 0.23 0.23 0.25 0.26 0.28 0.29 0.31 0.32 0.33 0.33 0.34 0.34
0.27 0.25 0.24 0.23 0.24 0.24 0.22 0.18 0.15 0.14 0.17 0.21 0.23 0.23 0.25 0.27 0.29 0.29 0.27 0.25 0.24 0.20 0.25 0.23 0.23 0.23 0.20 0.23 0.25 0.27 0.27 0.28 0.29 0.30 0.31 0.31 0.32 0.31
0.21 0.20 0.20 0.21 0.20 0.19 0.19 0.16 0.15 0.20 0.23 0.23 0.23 0.25 0.27 0.28 0.28 0.30 0.31 0.30 0.26 0.25 0.29 0.28 0.26 0.26 0.26 0.25 0.27 0.29 0.29 0.29 0.30 0.30 0.31 0.31 0.32 0.32
0.18 0.18 0.18 0.18 0.16 0.15 0.15 0.18 0.22 0.25 0.23 0.24 0.25 0.26 0.26 0.27 0.30 0.32 0.33 0.33 0.33 0.31 0.33 0.33 0.29 0.29 0.28 0.27 0.26 0.30 0.31 0.32 0.33 0.33 0.34 0.35 0.35 0.35
0.18 0.17 0.15 0.14 0.14 0.15 0.18 0.23 0.24 0.24 0.25 0.25 0.25 0.26 0.28 0.31 0.32 0.33 0.33 0.34 0.34 0.34 0.35 0.35 0.34 0.34 0.32 0.30 0.29 0.29 0.29 0.32 0.34 0.33 0.34 0.34 0.34 0.35
0.16 0.14 0.13 0.14 0.16 0.19 0.23 0.24 0.25 0.26 0.26 0.26 0.26 0.28 0.30 0.31 0.31 0.32 0.31 0.31 0.31 0.32 0.36 0.37 0.36 0.36 0.33 0.33 0.32 0.30 0.32 0.30 0.33 0.33 0.34 0.35 0.36 0.37
0.16 0.13 0.13 0.14 0.18 0.22 0.23 0.25 0.26 0.27 0.27 0.28 0.28 0.29 0.29 0.30 0.30 0.32 0.32 0.31 0.30 0.30 0.32 0.35 0.38 0.38 0.37 0.35 0.31 0.32 0.32 0.32 0.34 0.35 0.35 0.34 0.36 0.37
0.12 0.12 0.13 0.18 0.21 0.22 0.23 0.24 0.26 0.27 0.27 0.28 0.29 0.29 0.29 0.30 0.30 0.31 0.32 0.31 0.30 0.31 0.32 0.34 0.35 0.35 0.34 0.35 0.37 0.33 0.33 0.33 0.36 0.38 0.38 0.35 0.35 0.39
0.12 0.14 0.18 0.21 0.22 0.23 0.24 0.25 0.25 0.27 0.28 0.28 0.28 0.29 0.29 0.29 0.29 0.29 0.30 0.30 0.30 0.31 0.33 0.35 0.36 0.34 0.30 0.27 0.33 0.40 0.36 0.37 0.37 0.37 0.38 0.37 0.36 0.38
0.14 0.17 0.21 0.22 0.24 0.24 0.25 0.26 0.26 0.27 0.27 0.28 0.28 0.29 0.29 0.29 0.28 0.28 0.30 0.31 0.30 0.31 0.33 0.36 0.36 0.36 0.33 0.31 0.32 0.36 0.42 0.38 0.37 0.35 0.36 0.38 0.40 0.42
0.17 0.21 0.23 0.24 0.25 0.26 0.27 0.27 0.27 0.27 0.28 0.28 0.28 0.28 0.28 0.29 0.29 0.31 0.31 0.32 0.31 0.31 0.31 0.34 0.37 0.41 0.41 0.40 0.34 0.33 0.37 0.41 0.41 0.39 0.38 0.36 0.34 0.35
0.20 0.22 0.24 0.26 0.27 0.28 0.28 0.28 0.28 0.28 0.28 0.28 0.29 0.29 0.28 0.28 0.30 0.31 0.31 0.29 0.28 0.29 0.31 0.36 0.40 0.40 0.38 0.36 0.33 0.33 0.35 0.38 0.41 0.42 0.43 0.43 0.38 0.32
0.22 0.24 0.26 0.27 0.28 0.29 0.29 0.29 0.29 0.29 0.30 0.30 0.31 0.31 0.30 0.28 0.29 0.31 0.31 0.29 0.30 0.29 0.30 0.32 0.37 0.38 0.37 0.36 0.35 0.34 0.35 0.35 0.37 0.37 0.39 0.45 0.46 0.47

GFSNE_prec_pwat_066.txt.gz
Precipitable_Water
1.16 1.16 1.14 1.08 1.03 0.98 0.98 0.92 0.84 0.75 0.72 0.74 0.71 0.76 0.76 0.76 0.77 0.78 0.74 0.71 0.68 0.63 0.56 0.49 0.46 0.44 0.42 0.42 0.40 0.40 0.40 0.40 0.40 0.41 0.43 0.44 0.45 0.46
1.15 1.11 1.09 1.02 1.01 0.97 0.91 0.88 0.80 0.75 0.68 0.77 0.77 0.82 0.83 0.80 0.78 0.73 0.66 0.62 0.57 0.52 0.46 0.44 0.42 0.40 0.39 0.38 0.37 0.38 0.38 0.38 0.40 0.40 0.41 0.42 0.45 0.46
0.99 1.02 0.96 0.96 0.92 0.86 0.82 0.81 0.80 0.79 0.75 0.82 0.84 0.84 0.79 0.70 0.66 0.62 0.56 0.52 0.50 0.47 0.42 0.39 0.37 0.37 0.37 0.35 0.35 0.35 0.36 0.36 0.36 0.37 0.38 0.40 0.41 0.43
0.87 0.86 0.85 0.81 0.79 0.79 0.79 0.80 0.81 0.81 0.79 0.74 0.75 0.72 0.64 0.58 0.57 0.55 0.53 0.47 0.39 0.35 0.34 0.33 0.32 0.32 0.32 0.32 0.32 0.33 0.33 0.34 0.34 0.35 0.36 0.37 0.38 0.37
0.79 0.78 0.75 0.76 0.75 0.76 0.79 0.81 0.81 0.79 0.77 0.69 0.62 0.63 0.57 0.51 0.43 0.40 0.37 0.33 0.31 0.27 0.27 0.29 0.29 0.30 0.30 0.31 0.31 0.31 0.30 0.30 0.31 0.31 0.32 0.32 0.33 0.34
0.77 0.76 0.76 0.75 0.77 0.81 0.80 0.78 0.74 0.68 0.63 0.56 0.50 0.44 0.40 0.38 0.35 0.31 0.28 0.27 0.24 0.26 0.28 0.29 0.29 0.29 0.29 0.29 0.29 0.30 0.30 0.30 0.31 0.32 0.32 0.33 0.33 0.34
0.79 0.76 0.81 0.80 0.82 0.79 0.73 0.68 0.61 0.54 0.49 0.41 0.36 0.33 0.29 0.26 0.25 0.24 0.21 0.22 0.24 0.26 0.26 0.26 0.27 0.28 0.28 0.29 0.28 0.27 0.27 0.27 0.29 0.31 0.32 0.34 0.35 0.37
0.74 0.77 0.79 0.76 0.70 0.65 0.59 0.56 0.48 0.38 0.33 0.30 0.26 0.24 0.24 0.23 0.22 0.20 0.21 0.21 0.19 0.27 0.26 0.26 0.28 0.25 0.26 0.25 0.24 0.25 0.27 0.28 0.30 0.31 0.32 0.33 0.34 0.36
0.72 0.71 0.66 0.62 0.57 0.50 0.39 0.33 0.31 0.29 0.28 0.26 0.23 0.21 0.20 0.20 0.21 0.22 0.23 0.23 0.23 0.27 0.27 0.23 0.26 0.23 0.24 0.24 0.25 0.26 0.27 0.28 0.29 0.30 0.32 0.32 0.34 0.36
0.64 0.59 0.49 0.36 0.31 0.30 0.28 0.27 0.25 0.25 0.24 0.22 0.20 0.19 0.20 0.24 0.26 0.26 0.26 0.26 0.28 0.27 0.28 0.22 0.25 0.23 0.25 0.26 0.26 0.27 0.27 0.28 0.29 0.30 0.32 0.32 0.33 0.34
0.39 0.32 0.28 0.26 0.25 0.26 0.24 0.23 0.21 0.19 0.19 0.18 0.20 0.23 0.26 0.27 0.28 0.28 0.26 0.24 0.23 0.25 0.29 0.27 0.26 0.25 0.26 0.26 0.29 0.29 0.30 0.30 0.31 0.31 0.32 0.33 0.33 0.33
0.24 0.23 0.23 0.23 0.23 0.23 0.20 0.18 0.15 0.14 0.17 0.21 0.23 0.24 0.25 0.27 0.28 0.28 0.27 0.25 0.26 0.25 0.30 0.27 0.27 0.28 0.25 0.30 0.32 0.33 0.33 0.34 0.34 0.34 0.34 0.34 0.34 0.33
0.20 0.20 0.20 0.21 0.19 0.18 0.17 0.16 0.15 0.20 0.24 0.23 0.23 0.24 0.26 0.27 0.29 0.30 0.32 0.31 0.28 0.27 0.32 0.32 0.29 0.30 0.30 0.29 0.32 0.34 0.35 0.35 0.35 0.34 0.34 0.35 0.36 0.36
0.18 0.18 0.18 0.17 0.16 0.16 0.16 0.19 0.22 0.25 0.23 0.23 0.24 0.25 0.26 0.27 0.30 0.32 0.33 0.34 0.34 0.32 0.34 0.35 0.31 0.31 0.30 0.29 0.29 0.33 0.35 0.36 0.35 0.35 0.36 0.37 0.36 0.37
0.18 0.18 0.16 0.15 0.15 0.16 0.19 0.23 0.24 0.24 0.24 0.24 0.25 0.26 0.28 0.30 0.32 0.32 0.34 0.35 0.35 0.35 0.36 0.36 0.35 0.34 0.34 0.32 0.31 0.32 0.32 0.34 0.36 0.36 0.36 0.36 0.36 0.37
0.18 0.15 0.14 0.15 0.16 0.20 0.23 0.24 0.24 0.25 0.25 0.25 0.26 0.28 0.30 0.30 0.30 0.32 0.31 0.31 0.30 0.30 0.36 0.37 0.37 0.37 0.34 0.35 0.34 0.32 0.34 0.32 0.35 0.36 0.38 0.38 0.40 0.40
0.17 0.14 0.14 0.15 0.18 0.21 0.22 0.24 0.25 0.25 0.26 0.27 0.27 0.27 0.28 0.28 0.29 0.31 0.30 0.29 0.28 0.29 0.30 0.34 0.37 0.39 0.39 0.37 0.33 0.34 0.34 0.34 0.36 0.38 0.38 0.37 0.40 0.41
0.13 0.13 0.14 0.18 0.20 0.21 0.22 0.24 0.25 0.26 0.26 0.27 0.27 0.27 0.27 0.27 0.28 0.30 0.31 0.30 0.29 0.30 0.29 0.32 0.33 0.35 0.37 0.38 0.40 0.35 0.36 0.36 0.38 0.39 0.39 0.36 0.35 0.40
0.13 0.14 0.17 0.21 0.22 0.23 0.24 0.25 0.25 0.27 0.28 0.27 0.27 0.28 0.28 0.27 0.27 0.27 0.29 0.31 0.30 0.30 0.30 0.32 0.32 0.32 0.31 0.29 0.36 0.40 0.36 0.37 0.37 0.36 0.37 0.37 0.35 0.37
0.14 0.17 0.20 0.22 0.24 0.25 0.26 0.26 0.27 0.28 0.28 0.28 0.28 0.28 0.29 0.28 0.26 0.26 0.28 0.29 0.29 0.28 0.28 0.29 0.30 0.32 0.32 0.33 0.33 0.37 0.41 0.38 0.37 0.36 0.36 0.39 0.40 0.42
0.16 0.20 0.22 0.24 0.25 0.27 0.27 0.28 0.28 0.28 0.28 0.28 0.29 0.30 0.31 0.30 0.29 0.29 0.28 0.29 0.30 0.30 0.29 0.30 0.29 0.34 0.38 0.41 0.35 0.35 0.38 0.42 0.42 0.39 0.39 0.37 0.35 0.36
0.19 0.22 0.23 0.26 0.27 0.28 0.28 0.28 0.28 0.29 0.29 0.30 0.30 0.31 0.32 0.32 0.30 0.30 0.29 0.28 0.30 0.30 0.29 0.31 0.30 0.32 0.35 0.36 0.34 0.35 0.36 0.39 0.42 0.43 0.43 0.43 0.39 0.33
0.21 0.23 0.24 0.27 0.28 0.29 0.29 0.29 0.30 0.31 0.32 0.33 0.33 0.34 0.34 0.32 0.32 0.32 0.30 0.30 0.31 0.29 0.29 0.26 0.27 0.32 0.34 0.38 0.37 0.36 0.36 0.36 0.38 0.38 0.40 0.45 0.47 0.48

GFSNE_prec_pwat_069.txt.gz
Precipitable_Water
1.11 1.07 1.04 1.08 1.09 1.06 1.04 1.08 0.97 0.85 0.88 0.90 0.87 0.86 0.83 0.85 0.83 0.85 0.84 0.86 0.86 0.83 0.79 0.73 0.67 0.62 0.57 0.52 0.51 0.49 0.47 0.46 0.46 0.46 0.46 0.47 0.48 0.50
1.00 1.01 1.01 1.05 1.08 1.08 1.09 1.05 1.00 0.93 0.80 0.86 0.80 0.82 0.85 0.87 0.86 0.89 0.86 0.81 0.77 0.71 0.66 0.61 0.60 0.59 0.55 0.52 0.48 0.46 0.45 0.44 0.44 0.43 0.44 0.45 0.45 0.48
0.93 0.94 0.94 0.97 0.95 1.00 1.00 0.94 0.94 0.89 0.81 0.81 0.83 0.84 0.83 0.82 0.82 0.81 0.77 0.69 0.64 0.62 0.60 0.57 0.53 0.47 0.44 0.42 0.41 0.40 0.40 0.40 0.40 0.40 0.40 0.40 0.41 0.42
0.81 0.84 0.88 0.90 0.88 0.86 0.82 0.85 0.85 0.82 0.76 0.73 0.75 0.76 0.79 0.77 0.73 0.69 0.65 0.60 0.51 0.45 0.41 0.39 0.37 0.37 0.37 0.37 0.36 0.36 0.36 0.36 0.36 0.36 0.37 0.37 0.37 0.37
0.78 0.81 0.83 0.82 0.80 0.78 0.77 0.77 0.77 0.76 0.74 0.69 0.72 0.72 0.68 0.63 0.55 0.52 0.46 0.40 0.36 0.32 0.29 0.28 0.30 0.31 0.32 0.32 0.33 0.34 0.34 0.34 0.34 0.34 0.34 0.34 0.34 0.35
0.73 0.76 0.78 0.79 0.79 0.79 0.77 0.77 0.72 0.67 0.69 0.68 0.63 0.55 0.51 0.46 0.39 0.31 0.29 0.29 0.24 0.25 0.27 0.28 0.30 0.30 0.30 0.30 0.30 0.31 0.31 0.31 0.31 0.31 0.31 0.30 0.31 0.32
0.72 0.75 0.77 0.81 0.81 0.80 0.71 0.69 0.68 0.65 0.60 0.54 0.47 0.39 0.32 0.28 0.25 0.25 0.22 0.21 0.21 0.25 0.25 0.26 0.27 0.27 0.28 0.28 0.28 0.27 0.28 0.28 0.29 0.29 0.30 0.31 0.32 0.33
0.72 0.77 0.78 0.78 0.78 0.74 0.71 0.67 0.63 0.52 0.43 0.33 0.28 0.23 0.22 0.23 0.21 0.19 0.19 0.19 0.18 0.27 0.26 0.26 0.28 0.26 0.27 0.27 0.27 0.27 0.27 0.28 0.29 0.30 0.30 0.31 0.32 0.33
0.73 0.72 0.71 0.68 0.65 0.60 0.52 0.47 0.39 0.31 0.28 0.24 0.20 0.20 0.19 0.19 0.19 0.18 0.21 0.23 0.23 0.28 0.28 0.23 0.27 0.26 0.28 0.28 0.27 0.27 0.29 0.29 0.29 0.30 0.32 0.32 0.33 0.33
0.69 0.67 0.60 0.53 0.46 0.38 0.31 0.28 0.26 0.25 0.24 0.23 0.20 0.19 0.19 0.21 0.25 0.26 0.26 0.27 0.27 0.28 0.29 0.23 0.28 0.27 0.30 0.31 0.30 0.30 0.31 0.32 0.32 0.33 0.33 0.34 0.34 0.34
0.44 0.37 0.32 0.28 0.26 0.26 0.23 0.22 0.20 0.20 0.20 0.18 0.18 0.21 0.25 0.27 0.28 0.27 0.24 0.24 0.23 0.26 0.30 0.28 0.28 0.28 0.29 0.29 0.31 0.33 0.34 0.35 0.35 0.36 0.37 0.37 0.37 0.37
0.25 0.24 0.23 0.23 0.23 0.22 0.19 0.17 0.15 0.14 0.15 0.20 0.24 0.25 0.25 0.26 0.28 0.28 0.27 0.24 0.25 0.25 0.30 0.28 0.28 0.28 0.25 0.30 0.32 0.34 0.35 0.36 0.36 0.37 0.37 0.38 0.38 0.37
0.19 0.19 0.19 0.19 0.18 0.17 0.16 0.15 0.15 0.18 0.22 0.24 0.23 0.23 0.25 0.27 0.28 0.30 0.31 0.30 0.28 0.27 0.32 0.31 0.29 0.29 0.29 0.28 0.31 0.34 0.35 0.36 0.37 0.37 0.37 0.37 0.38 0.38
0.17 0.18 0.18 0.18 0.16 0.16 0.16 0.17 0.20 0.25 0.23 0.22 0.23 0.24 0.26 0.28 0.30 0.32 0.33 0.33 0.34 0.32 0.34 0.34 0.29 0.29 0.28 0.27 0.28 0.33 0.35 0.37 0.37 0.36 0.37 0.38 0.39 0.39
0.19 0.19 0.17 0.16 0.16 0.17 0.18 0.21 0.24 0.23 0.23 0.23 0.24 0.26 0.28 0.29 0.30 0.31 0.32 0.33 0.33 0.33 0.34 0.35 0.34 0.32 0.31 0.29 0.30 0.32 0.33 0.35 0.37 0.37 0.38 0.38 0.39 0.40
0.21 0.19 0.15 0.16 0.17 0.18 0.22 0.24 0.24 0.24 0.24 0.24 0.25 0.27 0.28 0.29 0.28 0.30 0.28 0.29 0.28 0.30 0.35 0.36 0.35 0.34 0.30 0.31 0.33 0.33 0.36 0.33 0.37 0.38 0.38 0.39 0.40 0.42
0.19 0.16 0.15 0.15 0.17 0.21 0.23 0.24 0.25 0.25 0.25 0.26 0.26 0.26 0.27 0.27 0.28 0.29 0.28 0.27 0.26 0.28 0.29 0.32 0.34 0.34 0.35 0.33 0.30 0.35 0.36 0.36 0.37 0.37 0.37 0.36 0.38 0.40
0.16 0.14 0.15 0.16 0.20 0.22 0.23 0.24 0.26 0.26 0.26 0.27 0.27 0.27 0.27 0.27 0.27 0.29 0.29 0.27 0.26 0.27 0.28 0.30 0.30 0.31 0.31 0.32 0.35 0.33 0.38 0.37 0.38 0.39 0.39 0.36 0.35 0.38
0.16 0.15 0.16 0.19 0.22 0.23 0.25 0.25 0.25 0.27 0.28 0.27 0.27 0.27 0.27 0.28 0.28 0.29 0.30 0.29 0.27 0.27 0.29 0.32 0.31 0.30 0.25 0.21 0.28 0.37 0.36 0.37 0.38 0.37 0.37 0.36 0.35 0.37
0.16 0.16 0.18 0.22 0.23 0.24 0.26 0.27 0.27 0.28 0.28 0.28 0.28 0.28 0.28 0.29 0.29 0.29 0.30 0.29 0.29 0.28 0.28 0.31 0.29 0.27 0.25 0.23 0.26 0.33 0.42 0.39 0.39 0.36 0.37 0.39 0.40 0.42
0.17 0.17 0.22 0.24 0.25 0.26 0.27 0.28 0.29 0.28 0.29 0.29 0.29 0.30 0.31 0.31 0.30 0.31 0.31 0.31 0.31 0.28 0.27 0.28 0.29 0.32 0.31 0.33 0.30 0.32 0.38 0.43 0.43 0.39 0.39 0.37 0.36 0.36
0.18 0.20 0.23 0.25 0.26 0.27 0.28 0.29 0.29 0.29 0.29 0.30 0.32 0.33 0.33 0.34 0.32 0.32 0.32 0.30 0.29 0.28 0.29 0.30 0.31 0.31 0.30 0.30 0.30 0.34 0.37 0.40 0.43 0.43 0.43 0.42 0.38 0.33
0.20 0.22 0.24 0.25 0.27 0.28 0.29 0.29 0.30 0.30 0.31 0.32 0.33 0.34 0.34 0.33 0.33 0.33 0.32 0.31 0.29 0.28 0.30 0.29 0.30 0.28 0.29 0.31 0.34 0.35 0.37 0.38 0.39 0.38 0.40 0.44 0.45 0.47

GFSNE_prec_pwat_072.txt.gz
Precipitable_Water
1.15 1.16 1.09 1.06 1.05 1.05 1.04 1.03 0.97 0.86 0.87 0.91 0.90 1.02 1.01 1.02 0.98 0.93 0.85 0.85 0.87 0.85 0.85 0.81 0.77 0.77 0.71 0.67 0.66 0.65 0.63 0.62 0.59 0.58 0.57 0.56 0.56 0.55
0.99 1.01 1.02 1.02 1.00 1.00 0.99 0.99 0.98 0.92 0.83 0.91 0.92 0.93 0.96 0.95 0.92 0.89 0.87 0.84 0.80 0.78 0.74 0.72 0.71 0.70 0.66 0.64 0.61 0.56 0.55 0.54 0.52 0.52 0.52 0.52 0.51 0.52
0.83 0.84 0.86 0.91 0.92 0.93 0.95 0.95 0.94 0.90 0.82 0.83 0.90 0.91 0.88 0.85 0.85 0.82 0.78 0.75 0.71 0.69 0.64 0.58 0.56 0.54 0.52 0.50 0.49 0.47 0.47 0.45 0.45 0.45 0.45 0.45 0.45 0.46
0.76 0.76 0.78 0.80 0.81 0.84 0.84 0.85 0.85 0.84 0.79 0.73 0.77 0.80 0.77 0.77 0.73 0.69 0.66 0.60 0.54 0.49 0.46 0.44 0.41 0.38 0.38 0.38 0.38 0.38 0.38 0.38 0.38 0.39 0.39 0.40 0.39 0.39
0.78 0.76 0.75 0.76 0.76 0.76 0.77 0.79 0.79 0.79 0.80 0.78 0.73 0.71 0.68 0.63 0.56 0.53 0.50 0.45 0.39 0.34 0.30 0.27 0.29 0.30 0.32 0.33 0.33 0.34 0.34 0.35 0.35 0.35 0.35 0.35 0.34 0.34
0.76 0.76 0.76 0.73 0.70 0.74 0.73 0.77 0.76 0.74 0.72 0.66 0.61 0.58 0.53 0.50 0.46 0.37 0.31 0.29 0.24 0.24 0.25 0.25 0.27 0.28 0.29 0.29 0.29 0.30 0.31 0.31 0.32 0.32 0.32 0.32 0.31 0.31
0.72 0.72 0.72 0.73 0.73 0.73 0.76 0.74 0.69 0.64 0.64 0.59 0.50 0.45 0.40 0.34 0.26 0.25 0.20 0.18 0.18 0.21 0.23 0.25 0.26 0.26 0.27 0.28 0.28 0.28 0.29 0.31 0.31 0.31 0.31 0.31 0.31 0.32
0.66 0.69 0.70 0.72 0.72 0.75 0.73 0.70 0.64 0.55 0.49 0.43 0.37 0.26 0.23 0.22 0.20 0.19 0.17 0.17 0.17 0.26 0.25 0.24 0.27 0.25 0.26 0.28 0.29 0.31 0.32 0.32 0.33 0.32 0.32 0.32 0.32 0.32
0.70 0.70 0.69 0.72 0.71 0.65 0.59 0.54 0.49 0.44 0.34 0.25 0.20 0.19 0.18 0.18 0.17 0.17 0.21 0.21 0.21 0.25 0.25 0.21 0.27 0.26 0.29 0.30 0.31 0.32 0.33 0.34 0.34 0.34 0.35 0.36 0.36 0.36
0.68 0.66 0.62 0.52 0.46 0.41 0.35 0.29 0.28 0.26 0.25 0.23 0.20 0.18 0.17 0.19 0.23 0.24 0.24 0.24 0.24 0.25 0.27 0.21 0.27 0.26 0.29 0.31 0.31 0.32 0.33 0.35 0.35 0.37 0.38 0.39 0.39 0.39
0.27 0.27 0.26 0.25 0.26 0.26 0.23 0.21 0.20 0.18 0.19 0.17 0.17 0.21 0.25 0.27 0.28 0.26 0.22 0.21 0.20 0.23 0.28 0.26 0.27 0.26 0.27 0.28 0.31 0.33 0.34 0.35 0.36 0.38 0.39 0.39 0.40 0.40
0.20 0.21 0.21 0.21 0.21 0.20 0.17 0.16 0.14 0.14 0.15 0.19 0.22 0.24 0.24 0.24 0.26 0.26 0.25 0.22 0.23 0.22 0.28 0.25 0.26 0.27 0.23 0.28 0.30 0.32 0.33 0.35 0.36 0.37 0.39 0.39 0.40 0.39
0.19 0.19 0.20 0.20 0.19 0.18 0.18 0.16 0.15 0.18 0.19 0.22 0.22 0.23 0.25 0.26 0.27 0.29 0.29 0.28 0.25 0.24 0.29 0.30 0.27 0.27 0.27 0.25 0.27 0.30 0.32 0.34 0.36 0.38 0.38 0.38 0.39 0.39
0.18 0.20 0.21 0.20 0.18 0.17 0.17 0.19 0.20 0.22 0.23 0.22 0.23 0.24 0.25 0.26 0.28 0.29 0.30 0.30 0.31 0.30 0.31 0.32 0.29 0.29 0.27 0.25 0.23 0.27 0.30 0.34 0.37 0.37 0.38 0.38 0.39 0.40
0.22 0.22 0.20 0.18 0.18 0.18 0.19 0.20 0.23 0.23 0.23 0.23 0.23 0.24 0.26 0.28 0.29 0.29 0.30 0.31 0.31 0.31 0.31 0.33 0.32 0.31 0.29 0.26 0.25 0.27 0.27 0.30 0.36 0.37 0.38 0.38 0.37 0.38
0.23 0.21 0.19 0.18 0.19 0.20 0.21 0.23 0.24 0.25 0.25 0.24 0.25 0.26 0.28 0.28 0.27 0.29 0.28 0.28 0.27 0.27 0.31 0.33 0.33 0.33 0.29 0.30 0.30 0.28 0.28 0.27 0.33 0.38 0.39 0.38 0.39 0.39
0.22 0.18 0.17 0.17 0.17 0.19 0.22 0.24 0.25 0.26 0.26 0.26 0.26 0.26 0.26 0.27 0.27 0.29 0.29 0.29 0.28 0.28 0.29 0.31 0.33 0.34 0.34 0.32 0.27 0.26 0.25 0.27 0.33 0.38 0.39 0.36 0.38 0.39
0.19 0.17 0.16 0.17 0.18 0.21 0.22 0.24 0.25 0.26 0.27 0.27 0.27 0.27 0.26 0.26 0.26 0.28 0.29 0.29 0.28 0.29 0.29 0.30 0.29 0.30 0.30 0.30 0.32 0.25 0.28 0.30 0.34 0.38 0.39 0.36 0.34 0.38
0.18 0.18 0.17 0.18 0.20 0.23 0.24 0.25 0.25 0.27 0.29 0.28 0.28 0.28 0.27 0.27 0.27 0.27 0.29 0.29 0.30 0.31 0.31 0.31 0.29 0.28 0.24 0.21 0.25 0.32 0.29 0.32 0.36 0.37 0.38 0.37 0.35 0.37
0.19 0.18 0.18 0.20 0.23 0.24 0.25 0.26 0.27 0.28 0.29 0.29 0.28 0.28 0.28 0.28 0.29 0.30 0.31 0.30 0.30 0.30 0.30 0.30 0.28 0.28 0.26 0.24 0.23 0.28 0.36 0.34 0.38 0.37 0.37 0.40 0.41 0.42
0.18 0.18 0.20 0.22 0.25 0.25 0.26 0.27 0.28 0.28 0.29 0.29 0.29 0.30 0.30 0.30 0.30 0.31 0.32 0.31 0.31 0.29 0.27 0.26 0.29 0.33 0.33 0.31 0.25 0.26 0.31 0.39 0.42 0.40 0.40 0.38 0.36 0.36
0.20 0.20 0.21 0.24 0.26 0.26 0.27 0.27 0.27 0.28 0.29 0.29 0.30 0.31 0.31 0.32 0.32 0.32 0.32 0.31 0.30 0.29 0.27 0.28 0.31 0.31 0.30 0.27 0.24 0.25 0.28 0.36 0.42 0.43 0.44 0.43 0.38 0.32
0.21 0.22 0.22 0.23 0.25 0.26 0.26 0.26 0.27 0.28 0.29 0.30 0.31 0.32 0.32 0.32 0.33 0.33 0.33 0.32 0.30 0.28 0.28 0.27 0.28 0.30 0.29 0.28 0.28 0.27 0.29 0.33 0.38 0.38 0.40 0.44 0.45 0.45

GFSNE_prec_pwat_075.txt.gz
Precipitable_Water
0.93 0.95 0.97 0.97 1.02 1.04 1.06 1.04 0.96 0.82 0.83 0.91 0.90 1.00 0.99 0.99 0.99 0.99 0.97 0.96 0.95 0.93 0.91 0.92 0.88 0.82 0.78 0.77 0.74 0.73 0.73 0.69 0.67 0.66 0.64 0.63 0.63 0.63
0.77 0.82 0.81 0.85 0.89 0.92 0.93 0.94 0.96 0.91 0.81 0.90 0.91 0.93 0.94 0.95 0.94 0.94 0.92 0.90 0.88 0.87 0.85 0.81 0.78 0.74 0.73 0.69 0.64 0.60 0.57 0.56 0.56 0.56 0.57 0.57 0.57 0.57
0.72 0.73 0.75 0.79 0.79 0.81 0.81 0.81 0.83 0.85 0.79 0.83 0.88 0.90 0.87 0.85 0.85 0.86 0.85 0.82 0.80 0.76 0.73 0.69 0.60 0.54 0.51 0.47 0.45 0.45 0.46 0.47 0.47 0.48 0.48 0.49 0.50 0.51
0.68 0.69 0.71 0.76 0.78 0.81 0.80 0.78 0.80 0.82 0.81 0.75 0.80 0.80 0.79 0.80 0.79 0.78 0.74 0.70 0.60 0.53 0.48 0.44 0.40 0.36 0.35 0.36 0.37 0.37 0.37 0.37 0.37 0.37 0.38 0.39 0.39 0.41
0.68 0.69 0.70 0.71 0.71 0.73 0.75 0.72 0.74 0.77 0.75 0.74 0.71 0.75 0.75 0.73 0.67 0.64 0.55 0.46 0.41 0.36 0.31 0.28 0.28 0.28 0.30 0.32 0.32 0.32 0.32 0.33 0.33 0.33 0.33 0.33 0.34 0.35
0.70 0.69 0.70 0.69 0.68 0.69 0.70 0.70 0.69 0.71 0.71 0.70 0.69 0.62 0.62 0.57 0.50 0.42 0.35 0.32 0.27 0.25 0.23 0.24 0.27 0.29 0.29 0.30 0.31 0.30 0.29 0.30 0.31 0.32 0.33 0.33 0.32 0.32
0.66 0.68 0.69 0.70 0.71 0.71 0.70 0.71 0.69 0.65 0.65 0.64 0.57 0.51 0.43 0.40 0.33 0.27 0.21 0.20 0.19 0.22 0.24 0.25 0.26 0.27 0.27 0.28 0.28 0.29 0.31 0.33 0.33 0.34 0.34 0.34 0.33 0.32
0.65 0.67 0.69 0.71 0.71 0.72 0.74 0.74 0.71 0.64 0.58 0.51 0.45 0.37 0.27 0.23 0.20 0.18 0.16 0.16 0.17 0.26 0.24 0.23 0.26 0.24 0.26 0.28 0.30 0.32 0.33 0.34 0.35 0.36 0.36 0.36 0.36 0.35
0.62 0.61 0.61 0.63 0.62 0.60 0.57 0.51 0.43 0.39 0.36 0.31 0.23 0.20 0.18 0.18 0.17 0.16 0.19 0.21 0.21 0.24 0.24 0.21 0.25 0.24 0.27 0.28 0.30 0.32 0.33 0.34 0.35 0.36 0.36 0.37 0.37 0.37
0.36 0.32 0.27 0.25 0.23 0.25 0.24 0.22 0.23 0.23 0.22 0.22 0.20 0.18 0.18 0.18 0.20 0.24 0.24 0.24 0.24 0.25 0.27 0.20 0.25 0.24 0.27 0.27 0.29 0.31 0.33 0.33 0.34 0.35 0.36 0.37 0.38 0.39
0.21 0.21 0.21 0.21 0.24 0.25 0.20 0.19 0.19 0.18 0.20 0.20 0.19 0.21 0.24 0.28 0.29 0.27 0.23 0.21 0.20 0.22 0.26 0.24 0.24 0.23 0.25 0.25 0.29 0.31 0.32 0.32 0.33 0.34 0.35 0.37 0.39 0.40
0.21 0.21 0.23 0.22 0.22 0.21 0.18 0.17 0.15 0.16 0.17 0.18 0.21 0.22 0.24 0.25 0.27 0.27 0.25 0.22 0.22 0.20 0.26 0.24 0.24 0.24 0.21 0.27 0.28 0.29 0.29 0.30 0.31 0.32 0.34 0.37 0.39 0.39
0.20 0.20 0.21 0.23 0.21 0.20 0.20 0.17 0.16 0.20 0.20 0.20 0.22 0.23 0.25 0.27 0.28 0.30 0.30 0.27 0.24 0.23 0.28 0.27 0.24 0.25 0.24 0.23 0.26 0.27 0.27 0.27 0.29 0.30 0.32 0.36 0.40 0.40
0.21 0.23 0.23 0.22 0.21 0.20 0.20 0.21 0.22 0.22 0.21 0.22 0.23 0.24 0.25 0.26 0.27 0.28 0.29 0.29 0.30 0.28 0.30 0.29 0.26 0.26 0.25 0.24 0.23 0.27 0.29 0.30 0.31 0.28 0.30 0.34 0.38 0.40
0.24 0.25 0.24 0.21 0.20 0.19 0.21 0.22 0.23 0.23 0.23 0.22 0.23 0.24 0.26 0.27 0.28 0.29 0.30 0.30 0.31 0.30 0.30 0.31 0.30 0.30 0.28 0.25 0.25 0.26 0.25 0.26 0.28 0.27 0.29 0.31 0.36 0.39
0.25 0.22 0.22 0.21 0.21 0.22 0.22 0.22 0.24 0.24 0.25 0.24 0.24 0.26 0.28 0.27 0.27 0.28 0.27 0.28 0.26 0.27 0.32 0.33 0.33 0.32 0.29 0.29 0.28 0.26 0.27 0.24 0.27 0.29 0.31 0.33 0.39 0.41
0.24 0.20 0.19 0.19 0.19 0.20 0.21 0.24 0.25 0.26 0.26 0.26 0.26 0.26 0.26 0.27 0.27 0.28 0.27 0.27 0.25 0.26 0.28 0.32 0.35 0.34 0.32 0.30 0.27 0.28 0.26 0.26 0.29 0.31 0.33 0.34 0.39 0.40
0.22 0.18 0.18 0.18 0.18 0.20 0.22 0.24 0.25 0.26 0.27 0.28 0.28 0.27 0.27 0.27 0.27 0.28 0.28 0.27 0.26 0.29 0.30 0.32 0.32 0.30 0.29 0.30 0.32 0.28 0.27 0.27 0.29 0.31 0.35 0.35 0.36 0.39
0.20 0.19 0.19 0.19 0.20 0.23 0.24 0.25 0.26 0.27 0.29 0.28 0.28 0.28 0.28 0.28 0.28 0.28 0.28 0.29 0.29 0.30 0.31 0.31 0.30 0.27 0.22 0.21 0.27 0.31 0.26 0.28 0.29 0.29 0.34 0.37 0.36 0.38
0.22 0.20 0.20 0.21 0.22 0.24 0.26 0.26 0.26 0.27 0.27 0.27 0.27 0.28 0.28 0.28 0.28 0.29 0.29 0.29 0.29 0.30 0.30 0.31 0.29 0.27 0.24 0.23 0.23 0.27 0.32 0.29 0.29 0.28 0.33 0.40 0.42 0.42
0.22 0.22 0.22 0.23 0.23 0.26 0.27 0.27 0.26 0.26 0.27 0.27 0.28 0.28 0.29 0.29 0.29 0.30 0.30 0.31 0.31 0.31 0.29 0.28 0.29 0.32 0.31 0.31 0.25 0.25 0.29 0.33 0.33 0.31 0.36 0.38 0.36 0.36
0.24 0.23 0.24 0.24 0.23 0.25 0.26 0.26 0.26 0.26 0.26 0.27 0.28 0.29 0.30 0.31 0.30 0.31 0.31 0.31 0.31 0.31 0.29 0.30 0.31 0.31 0.29 0.27 0.24 0.25 0.26 0.29 0.32 0.34 0.40 0.42 0.38 0.32
0.26 0.25 0.24 0.23 0.23 0.23 0.24 0.24 0.25 0.25 0.26 0.27 0.28 0.29 0.31 0.31 0.32 0.32 0.32 0.33 0.32 0.30 0.29 0.28 0.29 0.30 0.29 0.28 0.27 0.27 0.27 0.26 0.28 0.28 0.36 0.42 0.44 0.44

GFSNE_prec_pwat_078.txt.gz
Precipitable_Water
0.78 0.80 0.80 0.83 0.86 0.84 0.87 0.85 0.77 0.65 0.69 0.78 0.82 0.89 0.94 0.95 0.94 0.97 0.97 0.96 0.95 0.95 0.94 0.94 0.92 0.91 0.89 0.86 0.84 0.81 0.81 0.79 0.76 0.71 0.69 0.67 0.66 0.66
0.69 0.67 0.72 0.71 0.75 0.75 0.78 0.78 0.78 0.74 0.67 0.77 0.79 0.83 0.88 0.90 0.93 0.93 0.91 0.91 0.90 0.89 0.88 0.88 0.86 0.81 0.78 0.77 0.76 0.71 0.64 0.60 0.58 0.56 0.56 0.56 0.58 0.59
0.66 0.66 0.67 0.69 0.69 0.71 0.73 0.74 0.73 0.73 0.68 0.74 0.78 0.81 0.79 0.83 0.86 0.86 0.88 0.86 0.81 0.82 0.83 0.79 0.75 0.71 0.62 0.55 0.48 0.45 0.43 0.42 0.42 0.43 0.43 0.44 0.46 0.47
0.62 0.64 0.63 0.66 0.67 0.69 0.69 0.68 0.70 0.72 0.71 0.65 0.70 0.74 0.76 0.82 0.79 0.79 0.78 0.75 0.71 0.70 0.65 0.55 0.45 0.38 0.34 0.34 0.34 0.34 0.34 0.34 0.35 0.35 0.36 0.36 0.36 0.38
0.63 0.64 0.64 0.66 0.66 0.67 0.68 0.67 0.68 0.69 0.69 0.66 0.65 0.72 0.72 0.73 0.71 0.73 0.67 0.63 0.52 0.43 0.37 0.31 0.28 0.26 0.26 0.30 0.32 0.34 0.34 0.33 0.32 0.33 0.33 0.34 0.34 0.35
0.66 0.66 0.66 0.65 0.64 0.64 0.64 0.65 0.67 0.67 0.67 0.66 0.63 0.63 0.66 0.69 0.63 0.52 0.43 0.39 0.32 0.29 0.23 0.21 0.24 0.27 0.28 0.29 0.30 0.29 0.28 0.29 0.30 0.32 0.34 0.34 0.35 0.35
0.64 0.64 0.65 0.66 0.66 0.66 0.65 0.65 0.67 0.67 0.67 0.65 0.63 0.61 0.55 0.49 0.43 0.38 0.29 0.23 0.20 0.19 0.20 0.24 0.25 0.25 0.26 0.27 0.26 0.27 0.28 0.31 0.33 0.35 0.36 0.37 0.37 0.37
0.59 0.58 0.57 0.58 0.59 0.60 0.61 0.59 0.57 0.52 0.51 0.50 0.44 0.36 0.33 0.30 0.27 0.20 0.17 0.13 0.12 0.23 0.23 0.22 0.24 0.23 0.25 0.26 0.27 0.29 0.30 0.31 0.32 0.34 0.36 0.36 0.37 0.37
0.45 0.43 0.42 0.41 0.40 0.38 0.36 0.33 0.29 0.26 0.25 0.21 0.18 0.18 0.17 0.18 0.17 0.15 0.14 0.17 0.19 0.23 0.23 0.20 0.25 0.24 0.27 0.27 0.28 0.29 0.31 0.32 0.32 0.34 0.35 0.36 0.37 0.38
0.27 0.23 0.21 0.20 0.22 0.23 0.22 0.21 0.21 0.22 0.22 0.23 0.21 0.20 0.19 0.19 0.17 0.18 0.22 0.24 0.25 0.24 0.26 0.20 0.25 0.23 0.25 0.26 0.27 0.29 0.31 0.32 0.31 0.32 0.32 0.33 0.34 0.35
0.22 0.22 0.22 0.23 0.26 0.24 0.20 0.19 0.20 0.20 0.22 0.23 0.22 0.22 0.24 0.25 0.27 0.27 0.24 0.22 0.20 0.22 0.27 0.24 0.24 0.23 0.24 0.26 0.28 0.30 0.30 0.30 0.30 0.31 0.32 0.32 0.32 0.34
0.22 0.23 0.25 0.24 0.24 0.23 0.20 0.18 0.17 0.18 0.19 0.19 0.20 0.21 0.22 0.25 0.27 0.27 0.25 0.22 0.22 0.21 0.26 0.24 0.24 0.23 0.20 0.25 0.27 0.28 0.28 0.28 0.28 0.29 0.31 0.32 0.33 0.32
0.21 0.22 0.24 0.26 0.24 0.23 0.23 0.20 0.19 0.22 0.22 0.20 0.20 0.22 0.24 0.26 0.28 0.29 0.30 0.27 0.24 0.23 0.29 0.28 0.25 0.25 0.24 0.23 0.27 0.28 0.29 0.29 0.29 0.29 0.29 0.30 0.31 0.32
0.22 0.24 0.24 0.24 0.23 0.23 0.23 0.22 0.24 0.24 0.21 0.21 0.22 0.23 0.24 0.26 0.27 0.28 0.29 0.30 0.30 0.29 0.31 0.30 0.26 0.26 0.25 0.24 0.24 0.27 0.28 0.30 0.29 0.27 0.27 0.28 0.29 0.30
0.25 0.26 0.27 0.23 0.22 0.21 0.24 0.25 0.24 0.22 0.22 0.22 0.22 0.24 0.26 0.28 0.29 0.29 0.30 0.31 0.31 0.32 0.32 0.31 0.30 0.30 0.29 0.27 0.26 0.27 0.26 0.28 0.29 0.28 0.28 0.28 0.29 0.30
0.26 0.25 0.22 0.23 0.23 0.23 0.24 0.23 0.24 0.25 0.25 0.24 0.25 0.27 0.28 0.28 0.28 0.29 0.27 0.27 0.27 0.27 0.30 0.31 0.31 0.31 0.30 0.31 0.29 0.26 0.28 0.25 0.28 0.28 0.29 0.29 0.31 0.33
0.26 0.22 0.20 0.21 0.21 0.22 0.23 0.24 0.26 0.27 0.26 0.27 0.27 0.27 0.27 0.27 0.27 0.28 0.27 0.27 0.25 0.25 0.27 0.30 0.33 0.34 0.35 0.32 0.27 0.27 0.27 0.27 0.28 0.28 0.28 0.27 0.29 0.34
0.25 0.22 0.21 0.21 0.21 0.21 0.23 0.25 0.26 0.27 0.27 0.27 0.27 0.27 0.26 0.26 0.26 0.28 0.29 0.28 0.26 0.27 0.29 0.30 0.31 0.31 0.31 0.31 0.32 0.27 0.27 0.26 0.28 0.28 0.29 0.27 0.26 0.33
0.24 0.22 0.22 0.22 0.22 0.24 0.25 0.26 0.26 0.28 0.28 0.27 0.27 0.27 0.27 0.27 0.27 0.27 0.28 0.28 0.28 0.29 0.30 0.31 0.31 0.29 0.25 0.22 0.26 0.31 0.26 0.26 0.27 0.27 0.29 0.28 0.27 0.32
0.26 0.24 0.23 0.23 0.24 0.25 0.27 0.27 0.28 0.28 0.28 0.27 0.27 0.27 0.27 0.26 0.26 0.27 0.28 0.28 0.28 0.29 0.30 0.32 0.31 0.29 0.26 0.24 0.24 0.28 0.33 0.29 0.27 0.26 0.27 0.29 0.31 0.37
0.27 0.26 0.26 0.25 0.26 0.26 0.27 0.27 0.27 0.27 0.27 0.27 0.27 0.27 0.27 0.27 0.26 0.28 0.29 0.30 0.30 0.30 0.29 0.30 0.31 0.33 0.32 0.31 0.26 0.26 0.29 0.33 0.33 0.30 0.29 0.28 0.27 0.32
0.29 0.29 0.28 0.28 0.27 0.26 0.25 0.25 0.26 0.26 0.26 0.26 0.26 0.27 0.27 0.27 0.27 0.28 0.29 0.29 0.30 0.31 0.31 0.32 0.32 0.31 0.30 0.27 0.25 0.26 0.27 0.29 0.33 0.33 0.32 0.32 0.29 0.27
0.30 0.30 0.30 0.29 0.28 0.26 0.25 0.24 0.23 0.23 0.24 0.25 0.25 0.26 0.27 0.27 0.29 0.30 0.30 0.30 0.31 0.31 0.30 0.29 0.30 0.31 0.30 0.29 0.28 0.27 0.27 0.28 0.28 0.26 0.27 0.31 0.32 0.35

GFSNE_prec_pwat_081.txt.gz
Precipitable_Water
0.79 0.72 0.72 0.73 0.75 0.78 0.79 0.74 0.65 0.54 0.56 0.65 0.65 0.74 0.78 0.83 0.90 0.91 0.89 0.91 0.94 0.90 0.92 0.92 0.92 0.93 0.92 0.91 0.89 0.89 0.87 0.85 0.83 0.80 0.75 0.74 0.73 0.73
0.66 0.65 0.66 0.69 0.70 0.76 0.73 0.73 0.71 0.65 0.54 0.64 0.66 0.70 0.74 0.79 0.82 0.83 0.87 0.90 0.89 0.87 0.90 0.88 0.88 0.87 0.84 0.82 0.81 0.80 0.77 0.72 0.67 0.62 0.59 0.58 0.57 0.56
0.60 0.60 0.61 0.64 0.64 0.66 0.67 0.68 0.67 0.67 0.58 0.62 0.68 0.71 0.72 0.71 0.75 0.79 0.82 0.83 0.83 0.82 0.82 0.81 0.81 0.78 0.77 0.73 0.62 0.51 0.45 0.42 0.41 0.41 0.41 0.41 0.41 0.43
0.57 0.59 0.59 0.62 0.63 0.66 0.65 0.65 0.65 0.66 0.63 0.60 0.65 0.67 0.67 0.69 0.71 0.72 0.73 0.73 0.74 0.74 0.74 0.72 0.68 0.56 0.43 0.37 0.35 0.34 0.34 0.36 0.36 0.36 0.36 0.37 0.38 0.39
0.59 0.60 0.62 0.64 0.63 0.64 0.64 0.63 0.62 0.63 0.64 0.62 0.61 0.66 0.65 0.66 0.64 0.66 0.68 0.68 0.67 0.64 0.55 0.43 0.35 0.30 0.26 0.26 0.30 0.33 0.33 0.33 0.32 0.31 0.31 0.32 0.34 0.35
0.63 0.63 0.63 0.62 0.61 0.60 0.59 0.60 0.60 0.60 0.60 0.59 0.59 0.61 0.63 0.65 0.63 0.58 0.55 0.53 0.44 0.38 0.31 0.24 0.21 0.21 0.25 0.28 0.29 0.29 0.29 0.29 0.29 0.30 0.32 0.34 0.35 0.37
0.62 0.62 0.62 0.60 0.60 0.56 0.54 0.53 0.52 0.49 0.48 0.47 0.47 0.47 0.46 0.45 0.41 0.38 0.31 0.28 0.25 0.21 0.16 0.17 0.20 0.22 0.24 0.26 0.26 0.26 0.27 0.30 0.32 0.32 0.33 0.34 0.34 0.36
0.56 0.51 0.48 0.46 0.46 0.47 0.48 0.47 0.46 0.40 0.40 0.39 0.36 0.32 0.30 0.27 0.25 0.23 0.20 0.15 0.10 0.19 0.18 0.20 0.24 0.22 0.24 0.26 0.28 0.29 0.31 0.32 0.32 0.33 0.33 0.33 0.33 0.34
0.41 0.38 0.35 0.34 0.32 0.29 0.27 0.25 0.25 0.25 0.23 0.20 0.17 0.17 0.17 0.19 0.19 0.17 0.16 0.15 0.15 0.21 0.23 0.20 0.24 0.22 0.26 0.27 0.28 0.29 0.30 0.31 0.32 0.32 0.32 0.32 0.32 0.32
0.24 0.22 0.21 0.22 0.25 0.23 0.23 0.22 0.23 0.23 0.24 0.24 0.22 0.21 0.20 0.20 0.19 0.18 0.18 0.20 0.23 0.24 0.26 0.19 0.24 0.23 0.26 0.26 0.27 0.29 0.32 0.31 0.31 0.31 0.31 0.31 0.32 0.32
0.23 0.23 0.24 0.25 0.27 0.26 0.21 0.20 0.21 0.22 0.24 0.26 0.25 0.24 0.24 0.25 0.26 0.23 0.22 0.22 0.20 0.22 0.26 0.24 0.24 0.23 0.24 0.23 0.26 0.29 0.31 0.30 0.30 0.30 0.30 0.31 0.31 0.32
0.22 0.24 0.27 0.26 0.26 0.25 0.22 0.20 0.18 0.19 0.20 0.20 0.20 0.21 0.22 0.23 0.25 0.25 0.24 0.21 0.22 0.21 0.26 0.24 0.24 0.24 0.19 0.24 0.26 0.28 0.28 0.29 0.30 0.31 0.31 0.32 0.31 0.30
0.22 0.23 0.25 0.28 0.27 0.25 0.24 0.21 0.20 0.23 0.23 0.21 0.20 0.21 0.23 0.25 0.27 0.29 0.29 0.28 0.25 0.24 0.29 0.29 0.26 0.25 0.24 0.23 0.27 0.29 0.29 0.30 0.29 0.30 0.30 0.30 0.30 0.30
0.23 0.25 0.26 0.26 0.25 0.25 0.24 0.24 0.26 0.25 0.22 0.21 0.22 0.23 0.24 0.25 0.27 0.29 0.30 0.31 0.31 0.29 0.31 0.31 0.27 0.26 0.24 0.24 0.23 0.28 0.31 0.32 0.31 0.29 0.29 0.30 0.30 0.30
0.27 0.27 0.28 0.27 0.24 0.23 0.25 0.26 0.26 0.24 0.24 0.23 0.24 0.24 0.26 0.28 0.29 0.29 0.30 0.30 0.30 0.31 0.32 0.31 0.29 0.28 0.28 0.25 0.24 0.28 0.29 0.30 0.30 0.29 0.29 0.28 0.28 0.29
0.28 0.27 0.25 0.25 0.25 0.25 0.26 0.25 0.25 0.26 0.26 0.26 0.26 0.27 0.28 0.28 0.27 0.28 0.27 0.27 0.26 0.27 0.30 0.31 0.31 0.30 0.28 0.30 0.30 0.29 0.31 0.26 0.29 0.29 0.29 0.29 0.29 0.30
0.29 0.26 0.23 0.23 0.23 0.24 0.25 0.26 0.27 0.28 0.28 0.28 0.27 0.27 0.27 0.27 0.27 0.28 0.27 0.27 0.25 0.26 0.27 0.31 0.32 0.33 0.33 0.32 0.29 0.31 0.29 0.28 0.29 0.28 0.28 0.26 0.28 0.30
0.29 0.25 0.23 0.24 0.24 0.24 0.25 0.26 0.28 0.29 0.29 0.29 0.28 0.28 0.27 0.26 0.26 0.27 0.27 0.26 0.25 0.26 0.27 0.30 0.31 0.30 0.31 0.32 0.34 0.30 0.29 0.28 0.29 0.29 0.28 0.26 0.25 0.29
0.28 0.26 0.25 0.26 0.26 0.26 0.27 0.27 0.27 0.30 0.31 0.30 0.29 0.28 0.27 0.26 0.26 0.26 0.26 0.25 0.25 0.26 0.28 0.30 0.30 0.29 0.26 0.25 0.30 0.33 0.27 0.28 0.28 0.28 0.29 0.28 0.26 0.27
0.28 0.28 0.27 0.28 0.28 0.28 0.28 0.28 0.29 0.30 0.30 0.29 0.28 0.28 0.27 0.26 0.26 0.25 0.25 0.25 0.25 0.27 0.28 0.30 0.30 0.30 0.28 0.26 0.26 0.28 0.33 0.30 0.29 0.27 0.28 0.29 0.30 0.32
0.30 0.29 0.29 0.29 0.30 0.30 0.30 0.29 0.28 0.28 0.29 0.28 0.28 0.27 0.26 0.26 0.26 0.26 0.26 0.27 0.27 0.27 0.27 0.28 0.31 0.34 0.33 0.33 0.27 0.27 0.30 0.33 0.33 0.30 0.30 0.28 0.26 0.25
0.31 0.30 0.31 0.31 0.32 0.32 0.30 0.29 0.27 0.26 0.26 0.25 0.25 0.25 0.26 0.26 0.26 0.26 0.26 0.26 0.27 0.27 0.27 0.30 0.32 0.32 0.31 0.28 0.26 0.27 0.29 0.31 0.33 0.34 0.34 0.33 0.28 0.22
0.30 0.31 0.32 0.31 0.34 0.33 0.31 0.29 0.27 0.25 0.24 0.24 0.23 0.23 0.24 0.24 0.26 0.26 0.27 0.27 0.28 0.28 0.28 0.28 0.30 0.31 0.30 0.29 0.29 0.28 0.28 0.29 0.30 0.29 0.29 0.32 0.32 0.31

GFSNE_prec_pwat_084.txt.gz
Precipitable_Water
0.88 0.87 0.82 0.76 0.71 0.71 0.71 0.69 0.63 0.53 0.52 0.62 0.64 0.72 0.73 0.75 0.78 0.78 0.81 0.84 0.84 0.88 0.90 0.91 0.90 0.91 0.88 0.90 0.89 0.90 0.90 0.89 0.89 0.88 0.85 0.80 0.78 0.76
0.80 0.75 0.70 0.65 0.66 0.69 0.69 0.69 0.70 0.62 0.51 0.62 0.66 0.68 0.71 0.73 0.75 0.76 0.76 0.78 0.81 0.83 0.85 0.86 0.84 0.83 0.82 0.81 0.81 0.81 0.81 0.81 0.77 0.70 0.66 0.63 0.60 0.58
0.72 0.67 0.60 0.62 0.62 0.63 0.65 0.64 0.63 0.63 0.55 0.59 0.63 0.67 0.67 0.68 0.71 0.72 0.72 0.71 0.75 0.77 0.77 0.80 0.79 0.79 0.77 0.75 0.75 0.71 0.58 0.48 0.43 0.41 0.42 0.42 0.43 0.45
0.61 0.58 0.56 0.61 0.61 0.63 0.64 0.64 0.64 0.64 0.60 0.55 0.59 0.60 0.62 0.67 0.67 0.67 0.69 0.68 0.68 0.70 0.72 0.73 0.72 0.70 0.66 0.52 0.42 0.38 0.35 0.34 0.34 0.36 0.37 0.37 0.37 0.38
0.57 0.56 0.59 0.62 0.61 0.62 0.61 0.60 0.60 0.60 0.60 0.57 0.54 0.55 0.54 0.56 0.57 0.61 0.62 0.63 0.62 0.62 0.61 0.59 0.50 0.37 0.30 0.26 0.26 0.28 0.30 0.33 0.33 0.32 0.32 0.32 0.34 0.36
0.58 0.62 0.62 0.61 0.60 0.59 0.56 0.54 0.53 0.50 0.49 0.47 0.45 0.46 0.47 0.50 0.49 0.46 0.45 0.46 0.43 0.41 0.33 0.29 0.27 0.22 0.20 0.22 0.25 0.28 0.28 0.28 0.28 0.30 0.32 0.34 0.35 0.36
0.63 0.64 0.63 0.60 0.54 0.51 0.47 0.45 0.45 0.43 0.42 0.40 0.39 0.39 0.39 0.37 0.35 0.36 0.32 0.31 0.28 0.25 0.21 0.19 0.18 0.19 0.21 0.25 0.26 0.25 0.27 0.29 0.31 0.33 0.35 0.35 0.35 0.35
0.59 0.58 0.51 0.47 0.46 0.44 0.43 0.42 0.39 0.33 0.30 0.29 0.28 0.25 0.23 0.22 0.21 0.19 0.18 0.16 0.12 0.19 0.17 0.17 0.20 0.21 0.24 0.25 0.26 0.28 0.29 0.30 0.31 0.32 0.33 0.35 0.36 0.36
0.47 0.39 0.35 0.33 0.30 0.26 0.26 0.25 0.26 0.26 0.25 0.22 0.19 0.18 0.18 0.20 0.20 0.18 0.16 0.15 0.14 0.18 0.19 0.17 0.23 0.22 0.25 0.26 0.27 0.28 0.29 0.30 0.32 0.33 0.33 0.33 0.33 0.33
0.25 0.23 0.23 0.25 0.26 0.24 0.24 0.24 0.24 0.25 0.25 0.24 0.22 0.21 0.21 0.21 0.20 0.19 0.19 0.19 0.21 0.21 0.24 0.19 0.24 0.22 0.25 0.26 0.26 0.28 0.31 0.31 0.31 0.32 0.32 0.33 0.33 0.33
0.23 0.24 0.25 0.25 0.27 0.26 0.22 0.22 0.23 0.23 0.26 0.27 0.26 0.26 0.25 0.26 0.25 0.24 0.20 0.20 0.18 0.21 0.26 0.24 0.24 0.23 0.25 0.24 0.26 0.28 0.32 0.32 0.30 0.31 0.32 0.33 0.34 0.34
0.23 0.25 0.27 0.26 0.27 0.27 0.23 0.21 0.19 0.20 0.22 0.22 0.22 0.22 0.24 0.26 0.26 0.26 0.25 0.21 0.22 0.22 0.27 0.24 0.25 0.25 0.21 0.24 0.26 0.27 0.29 0.30 0.31 0.31 0.32 0.33 0.34 0.32
0.22 0.23 0.24 0.28 0.28 0.27 0.26 0.22 0.23 0.25 0.25 0.23 0.23 0.24 0.25 0.27 0.28 0.29 0.29 0.27 0.25 0.24 0.29 0.29 0.26 0.26 0.24 0.23 0.25 0.27 0.29 0.30 0.31 0.32 0.32 0.32 0.32 0.32
0.23 0.25 0.27 0.28 0.27 0.26 0.26 0.25 0.27 0.27 0.25 0.24 0.24 0.25 0.26 0.27 0.28 0.29 0.30 0.30 0.31 0.29 0.30 0.30 0.27 0.26 0.24 0.23 0.22 0.27 0.29 0.31 0.33 0.31 0.31 0.32 0.31 0.31
0.27 0.29 0.30 0.29 0.27 0.25 0.26 0.28 0.28 0.26 0.25 0.25 0.26 0.27 0.28 0.29 0.30 0.30 0.30 0.30 0.29 0.29 0.30 0.30 0.28 0.27 0.26 0.24 0.24 0.27 0.28 0.31 0.34 0.31 0.30 0.30 0.29 0.29
0.29 0.29 0.29 0.28 0.28 0.27 0.27 0.28 0.27 0.27 0.27 0.28 0.28 0.29 0.30 0.30 0.29 0.29 0.28 0.27 0.26 0.27 0.29 0.30 0.29 0.28 0.27 0.28 0.28 0.28 0.31 0.28 0.32 0.31 0.31 0.30 0.30 0.29
0.31 0.30 0.27 0.26 0.26 0.26 0.27 0.28 0.29 0.30 0.30 0.30 0.30 0.29 0.29 0.29 0.28 0.29 0.28 0.26 0.24 0.24 0.25 0.28 0.30 0.30 0.30 0.29 0.27 0.30 0.30 0.30 0.31 0.31 0.29 0.28 0.29 0.29
0.31 0.30 0.28 0.27 0.27 0.27 0.28 0.28 0.30 0.30 0.31 0.31 0.31 0.30 0.29 0.28 0.28 0.28 0.27 0.25 0.24 0.25 0.25 0.27 0.27 0.27 0.28 0.30 0.32 0.29 0.30 0.30 0.31 0.30 0.29 0.27 0.26 0.29
0.32 0.31 0.30 0.29 0.29 0.29 0.29 0.31 0.30 0.31 0.32 0.32 0.31 0.30 0.29 0.29 0.28 0.27 0.26 0.25 0.25 0.25 0.26 0.27 0.27 0.26 0.24 0.23 0.29 0.34 0.29 0.29 0.28 0.28 0.29 0.29 0.27 0.28
0.31 0.30 0.30 0.30 0.31 0.30 0.30 0.32 0.32 0.32 0.32 0.31 0.30 0.30 0.29 0.28 0.27 0.25 0.25 0.25 0.25 0.25 0.26 0.28 0.27 0.27 0.25 0.25 0.27 0.29 0.32 0.29 0.29 0.28 0.29 0.31 0.31 0.32
0.32 0.31 0.32 0.31 0.32 0.32 0.31 0.33 0.34 0.32 0.31 0.30 0.29 0.28 0.28 0.27 0.26 0.25 0.25 0.25 0.26 0.26 0.25 0.27 0.28 0.31 0.31 0.31 0.27 0.28 0.31 0.34 0.33 0.31 0.31 0.29 0.27 0.27
0.32 0.32 0.32 0.32 0.33 0.32 0.31 0.33 0.34 0.33 0.31 0.30 0.29 0.28 0.27 0.25 0.24 0.24 0.24 0.24 0.25 0.26 0.27 0.29 0.31 0.30 0.29 0.27 0.26 0.27 0.29 0.32 0.34 0.34 0.35 0.34 0.29 0.24
0.31 0.32 0.31 0.31 0.33 0.33 0.32 0.33 0.35 0.33 0.31 0.30 0.28 0.27 0.27 0.25 0.24 0.24 0.24 0.24 0.24 0.25 0.27 0.28 0.30 0.30 0.29 0.28 0.28 0.28 0.29 0.30 0.30 0.30 0.31 0.35 0.35 0.35

GFSNE_prec_pwat_087.txt.gz
Precipitable_Water
0.97 0.93 0.87 0.86 0.85 0.81 0.75 0.70 0.58 0.48 0.51 0.61 0.65 0.70 0.72 0.73 0.75 0.78 0.80 0.81 0.82 0.81 0.80 0.83 0.84 0.86 0.83 0.84 0.84 0.83 0.84 0.86 0.88 0.89 0.89 0.88 0.86 0.86
0.92 0.88 0.83 0.78 0.75 0.71 0.67 0.67 0.68 0.61 0.52 0.64 0.64 0.67 0.69 0.70 0.74 0.75 0.77 0.78 0.77 0.77 0.75 0.77 0.78 0.78 0.80 0.80 0.79 0.78 0.79 0.78 0.79 0.77 0.69 0.64 0.64 0.64
0.88 0.81 0.72 0.70 0.65 0.62 0.62 0.64 0.63 0.62 0.55 0.58 0.62 0.64 0.64 0.65 0.67 0.70 0.71 0.71 0.72 0.71 0.70 0.72 0.73 0.74 0.74 0.74 0.72 0.71 0.67 0.56 0.46 0.44 0.44 0.46 0.46 0.47
0.77 0.70 0.64 0.62 0.57 0.61 0.62 0.62 0.63 0.65 0.61 0.53 0.57 0.58 0.56 0.58 0.58 0.59 0.60 0.61 0.62 0.63 0.62 0.62 0.63 0.64 0.66 0.63 0.55 0.40 0.32 0.30 0.33 0.38 0.39 0.39 0.39 0.39
0.65 0.61 0.58 0.56 0.58 0.62 0.63 0.61 0.60 0.59 0.57 0.52 0.47 0.50 0.50 0.51 0.51 0.52 0.52 0.53 0.53 0.53 0.54 0.53 0.52 0.48 0.40 0.32 0.28 0.25 0.26 0.28 0.31 0.33 0.32 0.31 0.33 0.35
0.59 0.57 0.57 0.62 0.62 0.62 0.59 0.55 0.51 0.48 0.47 0.44 0.43 0.43 0.44 0.46 0.45 0.41 0.40 0.42 0.40 0.42 0.40 0.36 0.31 0.28 0.24 0.21 0.22 0.25 0.27 0.29 0.29 0.29 0.30 0.32 0.33 0.34
0.57 0.63 0.64 0.64 0.62 0.53 0.48 0.45 0.43 0.40 0.39 0.38 0.36 0.36 0.35 0.35 0.31 0.30 0.27 0.24 0.22 0.21 0.19 0.19 0.19 0.19 0.19 0.20 0.23 0.25 0.27 0.29 0.31 0.32 0.33 0.34 0.34 0.34
0.62 0.63 0.63 0.57 0.50 0.47 0.44 0.41 0.37 0.30 0.27 0.25 0.25 0.23 0.22 0.21 0.21 0.19 0.18 0.16 0.13 0.19 0.17 0.17 0.20 0.19 0.22 0.24 0.26 0.28 0.28 0.29 0.30 0.31 0.33 0.33 0.34 0.34
0.60 0.55 0.45 0.40 0.36 0.30 0.28 0.26 0.26 0.27 0.25 0.23 0.20 0.20 0.19 0.20 0.20 0.18 0.17 0.16 0.15 0.19 0.19 0.17 0.22 0.21 0.25 0.26 0.27 0.28 0.29 0.30 0.32 0.32 0.32 0.32 0.32 0.33
0.39 0.30 0.27 0.26 0.25 0.24 0.24 0.24 0.25 0.26 0.26 0.25 0.23 0.22 0.23 0.23 0.22 0.21 0.20 0.20 0.22 0.23 0.25 0.19 0.24 0.23 0.26 0.27 0.27 0.30 0.30 0.31 0.31 0.31 0.30 0.32 0.33 0.33
0.26 0.27 0.27 0.26 0.27 0.24 0.23 0.23 0.23 0.25 0.30 0.29 0.28 0.28 0.28 0.28 0.27 0.26 0.23 0.22 0.20 0.23 0.27 0.25 0.25 0.25 0.26 0.25 0.27 0.29 0.32 0.32 0.31 0.31 0.32 0.32 0.32 0.33
0.25 0.26 0.26 0.26 0.27 0.27 0.23 0.22 0.21 0.22 0.24 0.24 0.24 0.25 0.27 0.30 0.29 0.29 0.27 0.23 0.23 0.23 0.28 0.26 0.25 0.25 0.22 0.25 0.25 0.27 0.26 0.27 0.29 0.30 0.31 0.32 0.33 0.33
0.22 0.23 0.27 0.29 0.28 0.28 0.26 0.24 0.24 0.26 0.26 0.25 0.25 0.26 0.28 0.30 0.30 0.31 0.30 0.28 0.26 0.25 0.30 0.29 0.26 0.25 0.24 0.23 0.25 0.27 0.28 0.28 0.29 0.31 0.32 0.33 0.33 0.33
0.22 0.25 0.27 0.29 0.28 0.29 0.28 0.28 0.31 0.28 0.26 0.25 0.26 0.27 0.28 0.29 0.30 0.31 0.32 0.32 0.32 0.30 0.31 0.30 0.26 0.25 0.24 0.22 0.22 0.26 0.28 0.31 0.32 0.32 0.32 0.33 0.34 0.33
0.26 0.29 0.31 0.31 0.30 0.28 0.30 0.31 0.31 0.28 0.27 0.27 0.28 0.29 0.31 0.32 0.32 0.32 0.32 0.32 0.31 0.31 0.31 0.29 0.28 0.27 0.26 0.24 0.23 0.26 0.27 0.30 0.32 0.33 0.33 0.32 0.32 0.32
0.30 0.31 0.30 0.30 0.31 0.30 0.31 0.31 0.30 0.30 0.29 0.30 0.31 0.32 0.33 0.33 0.32 0.32 0.30 0.30 0.28 0.28 0.30 0.30 0.29 0.28 0.26 0.26 0.27 0.26 0.28 0.27 0.31 0.32 0.32 0.33 0.33 0.33
0.30 0.30 0.29 0.29 0.29 0.30 0.31 0.32 0.32 0.33 0.33 0.34 0.34 0.33 0.32 0.32 0.32 0.32 0.31 0.29 0.27 0.26 0.26 0.28 0.30 0.29 0.28 0.28 0.26 0.28 0.28 0.29 0.31 0.31 0.31 0.30 0.30 0.31
0.32 0.30 0.30 0.29 0.30 0.31 0.31 0.32 0.32 0.33 0.35 0.36 0.35 0.34 0.33 0.32 0.31 0.31 0.31 0.28 0.27 0.26 0.26 0.27 0.27 0.26 0.26 0.28 0.31 0.28 0.29 0.30 0.30 0.31 0.30 0.27 0.27 0.30
0.32 0.31 0.31 0.31 0.31 0.32 0.33 0.33 0.32 0.34 0.36 0.37 0.36 0.34 0.33 0.32 0.31 0.30 0.29 0.28 0.27 0.27 0.27 0.27 0.27 0.25 0.22 0.21 0.27 0.33 0.30 0.30 0.29 0.28 0.29 0.29 0.28 0.30
0.32 0.31 0.31 0.32 0.33 0.33 0.34 0.34 0.33 0.34 0.35 0.37 0.36 0.34 0.33 0.31 0.30 0.29 0.29 0.27 0.27 0.27 0.26 0.28 0.28 0.27 0.25 0.24 0.24 0.29 0.33 0.30 0.29 0.29 0.29 0.31 0.32 0.34
0.29 0.29 0.30 0.31 0.32 0.33 0.34 0.34 0.33 0.33 0.34 0.35 0.36 0.35 0.33 0.32 0.29 0.28 0.27 0.27 0.28 0.27 0.25 0.26 0.29 0.32 0.31 0.31 0.26 0.27 0.30 0.34 0.34 0.32 0.32 0.30 0.29 0.29
0.29 0.28 0.29 0.31 0.33 0.33 0.33 0.34 0.34 0.34 0.34 0.35 0.36 0.35 0.34 0.33 0.30 0.28 0.26 0.25 0.26 0.26 0.25 0.27 0.29 0.30 0.29 0.27 0.26 0.27 0.29 0.32 0.34 0.35 0.35 0.34 0.30 0.26
0.29 0.29 0.29 0.31 0.34 0.32 0.32 0.35 0.36 0.35 0.35 0.36 0.37 0.35 0.33 0.30 0.30 0.29 0.27 0.26 0.25 0.24 0.24 0.24 0.27 0.28 0.27 0.27 0.27 0.27 0.28 0.29 0.31 0.31 0.32 0.35 0.34 0.35

GFSNE_prec_pwat_090.txt.gz
Precipitable_Water
1.07 1.02 1.02 0.96 0.93 0.91 0.91 0.84 0.69 0.52 0.51 0.61 0.63 0.72 0.75 0.74 0.75 0.74 0.76 0.78 0.82 0.83 0.82 0.81 0.79 0.79 0.80 0.80 0.80 0.80 0.80 0.80 0.79 0.81 0.82 0.82 0.84 0.86
0.99 0.99 0.96 0.90 0.88 0.86 0.81 0.75 0.70 0.60 0.52 0.65 0.64 0.69 0.71 0.70 0.70 0.71 0.71 0.73 0.74 0.75 0.76 0.76 0.75 0.73 0.74 0.74 0.74 0.74 0.74 0.74 0.74 0.74 0.74 0.72 0.65 0.61
0.91 0.91 0.85 0.85 0.83 0.74 0.72 0.67 0.63 0.64 0.57 0.59 0.65 0.66 0.64 0.62 0.62 0.62 0.62 0.63 0.65 0.67 0.68 0.67 0.66 0.67 0.68 0.67 0.67 0.68 0.68 0.66 0.59 0.47 0.40 0.40 0.44 0.47
0.85 0.81 0.80 0.78 0.69 0.68 0.63 0.59 0.62 0.67 0.63 0.56 0.59 0.56 0.55 0.56 0.56 0.56 0.56 0.59 0.58 0.58 0.59 0.59 0.59 0.60 0.61 0.62 0.62 0.60 0.43 0.34 0.32 0.32 0.32 0.33 0.35 0.39
0.81 0.78 0.72 0.67 0.62 0.60 0.58 0.61 0.65 0.64 0.62 0.55 0.49 0.51 0.50 0.51 0.50 0.51 0.50 0.50 0.49 0.48 0.49 0.49 0.49 0.48 0.44 0.38 0.31 0.30 0.30 0.28 0.28 0.30 0.32 0.32 0.31 0.32
0.70 0.68 0.65 0.60 0.58 0.58 0.63 0.63 0.60 0.54 0.50 0.46 0.44 0.43 0.44 0.46 0.44 0.40 0.37 0.38 0.37 0.36 0.35 0.31 0.29 0.29 0.27 0.24 0.22 0.22 0.25 0.26 0.27 0.29 0.29 0.30 0.33 0.34
0.63 0.61 0.61 0.60 0.64 0.66 0.59 0.52 0.48 0.44 0.42 0.40 0.38 0.37 0.35 0.34 0.32 0.32 0.27 0.25 0.24 0.22 0.20 0.20 0.20 0.21 0.21 0.22 0.21 0.22 0.24 0.27 0.29 0.31 0.32 0.34 0.35 0.35
0.60 0.60 0.65 0.67 0.66 0.58 0.49 0.45 0.42 0.38 0.33 0.31 0.29 0.27 0.25 0.24 0.23 0.21 0.20 0.18 0.16 0.21 0.18 0.18 0.21 0.21 0.23 0.24 0.25 0.27 0.28 0.29 0.30 0.31 0.32 0.33 0.33 0.33
0.65 0.63 0.64 0.60 0.49 0.42 0.37 0.31 0.29 0.25 0.25 0.24 0.22 0.22 0.21 0.22 0.23 0.21 0.20 0.19 0.18 0.21 0.20 0.19 0.23 0.23 0.26 0.27 0.28 0.28 0.29 0.30 0.31 0.31 0.32 0.32 0.33 0.33
0.62 0.60 0.46 0.33 0.28 0.27 0.27 0.26 0.26 0.26 0.26 0.25 0.25 0.24 0.24 0.24 0.24 0.24 0.23 0.23 0.24 0.25 0.26 0.22 0.26 0.25 0.28 0.28 0.28 0.30 0.30 0.31 0.31 0.31 0.31 0.31 0.32 0.32
0.42 0.31 0.29 0.29 0.27 0.26 0.26 0.24 0.25 0.27 0.30 0.29 0.29 0.28 0.28 0.29 0.29 0.28 0.27 0.26 0.24 0.25 0.28 0.26 0.28 0.27 0.28 0.27 0.27 0.28 0.30 0.32 0.31 0.30 0.30 0.31 0.31 0.32
0.27 0.27 0.27 0.28 0.29 0.25 0.24 0.24 0.23 0.24 0.26 0.26 0.26 0.26 0.29 0.30 0.31 0.31 0.31 0.27 0.27 0.26 0.30 0.27 0.28 0.27 0.24 0.28 0.27 0.28 0.28 0.28 0.28 0.28 0.29 0.30 0.31 0.31
0.24 0.25 0.28 0.29 0.28 0.28 0.26 0.24 0.24 0.26 0.27 0.26 0.26 0.27 0.29 0.31 0.32 0.33 0.33 0.32 0.29 0.28 0.32 0.30 0.28 0.27 0.26 0.24 0.26 0.28 0.29 0.28 0.28 0.29 0.30 0.31 0.32 0.33
0.22 0.24 0.27 0.29 0.29 0.30 0.29 0.29 0.32 0.30 0.28 0.27 0.28 0.29 0.31 0.32 0.33 0.34 0.35 0.35 0.35 0.33 0.34 0.33 0.28 0.28 0.25 0.23 0.22 0.27 0.29 0.31 0.31 0.31 0.31 0.32 0.33 0.33
0.25 0.27 0.29 0.31 0.30 0.31 0.31 0.33 0.35 0.31 0.29 0.29 0.30 0.32 0.34 0.36 0.36 0.36 0.36 0.36 0.35 0.35 0.35 0.33 0.31 0.30 0.28 0.24 0.23 0.25 0.26 0.29 0.31 0.31 0.32 0.32 0.32 0.33
0.28 0.30 0.30 0.31 0.33 0.32 0.33 0.36 0.35 0.34 0.33 0.33 0.34 0.36 0.37 0.37 0.36 0.36 0.34 0.34 0.32 0.32 0.36 0.35 0.33 0.31 0.28 0.27 0.27 0.26 0.28 0.26 0.31 0.31 0.32 0.32 0.33 0.34
0.29 0.29 0.29 0.31 0.32 0.32 0.33 0.34 0.35 0.35 0.35 0.36 0.37 0.37 0.37 0.37 0.36 0.37 0.35 0.34 0.31 0.30 0.31 0.34 0.35 0.34 0.32 0.29 0.26 0.28 0.28 0.29 0.31 0.32 0.31 0.30 0.32 0.32
0.28 0.28 0.29 0.30 0.30 0.31 0.32 0.34 0.36 0.36 0.36 0.38 0.38 0.38 0.38 0.37 0.36 0.36 0.35 0.33 0.31 0.31 0.31 0.32 0.32 0.31 0.31 0.31 0.32 0.28 0.29 0.30 0.32 0.32 0.32 0.29 0.29 0.31
0.29 0.29 0.30 0.31 0.30 0.32 0.33 0.36 0.37 0.37 0.38 0.38 0.38 0.38 0.38 0.38 0.37 0.35 0.34 0.32 0.31 0.30 0.30 0.31 0.31 0.29 0.25 0.23 0.29 0.34 0.30 0.31 0.31 0.31 0.31 0.30 0.29 0.31
0.32 0.31 0.30 0.31 0.31 0.31 0.33 0.34 0.36 0.37 0.37 0.37 0.38 0.38 0.39 0.38 0.36 0.35 0.33 0.31 0.29 0.29 0.28 0.29 0.29 0.29 0.26 0.25 0.26 0.30 0.34 0.31 0.30 0.30 0.31 0.33 0.34 0.36
0.30 0.30 0.31 0.30 0.30 0.30 0.30 0.32 0.34 0.37 0.37 0.37 0.38 0.40 0.40 0.39 0.37 0.36 0.34 0.31 0.29 0.27 0.25 0.26 0.29 0.31 0.30 0.30 0.25 0.26 0.30 0.34 0.33 0.31 0.32 0.31 0.30 0.31
0.30 0.29 0.29 0.29 0.29 0.29 0.30 0.30 0.33 0.36 0.35 0.37 0.39 0.40 0.40 0.40 0.38 0.36 0.33 0.30 0.28 0.27 0.25 0.26 0.28 0.27 0.26 0.25 0.23 0.24 0.25 0.28 0.31 0.31 0.32 0.32 0.29 0.27
0.30 0.29 0.30 0.30 0.31 0.32 0.31 0.31 0.31 0.34 0.37 0.38 0.40 0.40 0.40 0.38 0.38 0.35 0.32 0.30 0.28 0.26 0.25 0.24 0.25 0.26 0.25 0.25 0.23 0.23 0.24 0.26 0.27 0.27 0.29 0.33 0.34 0.34

GFSNE_prec_pwat_093.txt.gz
Precipitable_Water
1.08 1.09 1.07 1.05 1.04 1.00 0.99 0.91 0.78 0.62 0.63 0.70 0.63 0.71 0.74 0.77 0.76 0.75 0.74 0.74 0.75 0.76 0.78 0.78 0.78 0.78 0.77 0.75 0.74 0.75 0.74 0.73 0.73 0.75 0.75 0.75 0.76 0.77
1.05 0.97 1.07 1.02 0.97 0.97 0.96 0.89 0.84 0.73 0.61 0.67 0.64 0.70 0.74 0.74 0.73 0.70 0.68 0.66 0.67 0.69 0.70 0.71 0.72 0.72 0.72 0.69 0.68 0.67 0.67 0.68 0.69 0.69 0.69 0.66 0.63 0.57
0.94 0.95 0.92 1.00 0.88 0.92 0.84 0.85 0.75 0.72 0.60 0.60 0.67 0.70 0.68 0.66 0.63 0.63 0.61 0.59 0.59 0.62 0.63 0.63 0.63 0.64 0.63 0.63 0.63 0.63 0.62 0.64 0.65 0.62 0.49 0.43 0.42 0.41
0.87 0.90 0.89 0.95 0.86 0.86 0.79 0.70 0.70 0.67 0.61 0.55 0.64 0.64 0.61 0.59 0.57 0.55 0.53 0.55 0.54 0.56 0.57 0.56 0.57 0.57 0.57 0.57 0.57 0.58 0.56 0.47 0.38 0.36 0.36 0.33 0.31 0.31
0.87 0.88 0.83 0.83 0.80 0.76 0.69 0.66 0.61 0.62 0.67 0.62 0.57 0.58 0.55 0.54 0.50 0.50 0.48 0.48 0.47 0.47 0.46 0.45 0.45 0.46 0.45 0.42 0.36 0.31 0.30 0.29 0.28 0.28 0.29 0.30 0.31 0.32
0.80 0.80 0.80 0.76 0.69 0.67 0.62 0.59 0.63 0.63 0.63 0.53 0.49 0.47 0.47 0.47 0.46 0.41 0.38 0.39 0.36 0.36 0.35 0.31 0.27 0.25 0.23 0.23 0.23 0.22 0.22 0.25 0.26 0.27 0.29 0.31 0.32 0.32
0.71 0.69 0.68 0.68 0.65 0.62 0.60 0.64 0.62 0.56 0.48 0.44 0.42 0.41 0.39 0.38 0.34 0.33 0.30 0.28 0.26 0.24 0.21 0.21 0.20 0.20 0.22 0.23 0.24 0.23 0.24 0.26 0.29 0.31 0.32 0.33 0.34 0.34
0.62 0.64 0.64 0.62 0.61 0.64 0.66 0.61 0.53 0.47 0.42 0.39 0.36 0.33 0.30 0.29 0.28 0.24 0.22 0.20 0.19 0.25 0.20 0.19 0.23 0.21 0.24 0.26 0.28 0.28 0.29 0.30 0.31 0.31 0.31 0.32 0.33 0.33
0.62 0.60 0.61 0.65 0.69 0.66 0.57 0.48 0.42 0.38 0.35 0.30 0.27 0.25 0.24 0.24 0.25 0.22 0.22 0.21 0.20 0.24 0.22 0.21 0.25 0.24 0.28 0.29 0.30 0.30 0.30 0.30 0.30 0.31 0.31 0.31 0.31 0.32
0.63 0.65 0.64 0.63 0.58 0.44 0.33 0.28 0.27 0.27 0.26 0.26 0.27 0.26 0.27 0.26 0.25 0.24 0.25 0.25 0.26 0.27 0.28 0.23 0.29 0.27 0.30 0.31 0.31 0.30 0.32 0.31 0.31 0.30 0.30 0.30 0.30 0.30
0.63 0.61 0.58 0.43 0.32 0.30 0.28 0.26 0.27 0.28 0.30 0.30 0.30 0.29 0.28 0.28 0.29 0.29 0.28 0.27 0.26 0.27 0.31 0.28 0.30 0.29 0.30 0.30 0.31 0.29 0.31 0.32 0.32 0.31 0.30 0.30 0.30 0.30
0.59 0.42 0.33 0.33 0.28 0.26 0.26 0.26 0.25 0.26 0.27 0.27 0.27 0.27 0.30 0.29 0.31 0.32 0.32 0.28 0.29 0.28 0.34 0.30 0.30 0.29 0.25 0.32 0.31 0.31 0.30 0.29 0.29 0.29 0.29 0.30 0.30 0.30
0.32 0.29 0.30 0.30 0.29 0.26 0.26 0.26 0.27 0.28 0.28 0.27 0.27 0.28 0.29 0.31 0.33 0.34 0.35 0.33 0.31 0.31 0.36 0.34 0.31 0.30 0.28 0.27 0.29 0.31 0.30 0.29 0.29 0.30 0.30 0.31 0.32 0.32
0.28 0.29 0.30 0.29 0.28 0.30 0.28 0.30 0.30 0.31 0.30 0.29 0.29 0.30 0.31 0.33 0.35 0.36 0.37 0.37 0.37 0.36 0.38 0.37 0.32 0.30 0.28 0.27 0.25 0.29 0.31 0.31 0.31 0.30 0.31 0.32 0.34 0.34
0.28 0.27 0.27 0.28 0.29 0.30 0.32 0.32 0.35 0.32 0.31 0.31 0.32 0.33 0.36 0.39 0.39 0.38 0.39 0.39 0.38 0.38 0.38 0.38 0.35 0.33 0.31 0.28 0.26 0.27 0.28 0.30 0.31 0.31 0.32 0.31 0.31 0.32
0.27 0.29 0.29 0.30 0.32 0.31 0.32 0.35 0.37 0.37 0.35 0.35 0.36 0.39 0.40 0.40 0.39 0.40 0.38 0.38 0.36 0.36 0.39 0.40 0.37 0.35 0.30 0.30 0.29 0.27 0.29 0.27 0.30 0.31 0.32 0.32 0.33 0.33
0.28 0.28 0.27 0.28 0.29 0.30 0.32 0.37 0.38 0.36 0.36 0.36 0.38 0.39 0.40 0.40 0.39 0.40 0.39 0.39 0.36 0.34 0.35 0.37 0.38 0.36 0.34 0.32 0.28 0.29 0.29 0.29 0.31 0.32 0.32 0.30 0.32 0.33
0.27 0.25 0.25 0.27 0.29 0.31 0.32 0.33 0.35 0.37 0.38 0.40 0.40 0.40 0.40 0.39 0.39 0.40 0.40 0.38 0.36 0.35 0.35 0.35 0.34 0.32 0.31 0.32 0.34 0.29 0.29 0.29 0.31 0.32 0.32 0.30 0.30 0.33
0.26 0.26 0.26 0.28 0.29 0.30 0.31 0.33 0.34 0.37 0.40 0.40 0.40 0.40 0.40 0.40 0.39 0.39 0.40 0.39 0.37 0.36 0.35 0.34 0.31 0.29 0.25 0.23 0.28 0.34 0.28 0.29 0.30 0.30 0.31 0.30 0.29 0.32
0.28 0.27 0.28 0.29 0.30 0.30 0.30 0.31 0.33 0.35 0.36 0.37 0.37 0.40 0.39 0.38 0.40 0.41 0.40 0.38 0.36 0.35 0.33 0.30 0.29 0.28 0.25 0.24 0.24 0.27 0.32 0.29 0.28 0.26 0.26 0.29 0.31 0.33
0.28 0.29 0.31 0.31 0.31 0.30 0.31 0.31 0.31 0.31 0.32 0.34 0.36 0.37 0.38 0.39 0.41 0.41 0.41 0.40 0.39 0.36 0.30 0.28 0.28 0.32 0.31 0.29 0.24 0.23 0.26 0.30 0.29 0.26 0.27 0.26 0.25 0.25
0.28 0.29 0.31 0.30 0.29 0.29 0.29 0.29 0.29 0.29 0.31 0.33 0.34 0.35 0.39 0.41 0.41 0.41 0.40 0.39 0.37 0.34 0.30 0.30 0.29 0.28 0.26 0.24 0.22 0.23 0.23 0.26 0.29 0.30 0.32 0.31 0.27 0.22
0.31 0.30 0.29 0.29 0.29 0.29 0.29 0.29 0.29 0.30 0.32 0.32 0.33 0.36 0.39 0.41 0.42 0.42 0.40 0.40 0.36 0.32 0.30 0.28 0.28 0.27 0.26 0.26 0.25 0.23 0.23 0.24 0.25 0.26 0.29 0.33 0.33 0.33

GFSNE_prec_pwat_096.txt.gz
Precipitable_Water
1.12 1.12 1.11 1.13 1.11 1.15 1.13 0.99 0.83 0.72 0.69 0.75 0.73 0.81 0.76 0.74 0.74 0.76 0.77 0.77 0.76 0.75 0.74 0.74 0.74 0.75 0.75 0.75 0.74 0.72 0.69 0.67 0.66 0.67 0.68 0.69 0.69 0.68
1.06 1.03 1.11 0.99 1.09 1.07 1.11 0.99 0.95 0.81 0.67 0.77 0.74 0.76 0.74 0.75 0.73 0.74 0.74 0.69 0.68 0.66 0.66 0.68 0.68 0.68 0.68 0.68 0.66 0.65 0.63 0.62 0.63 0.63 0.64 0.64 0.63 0.60
0.95 1.02 0.89 1.05 0.96 1.02 1.04 0.94 0.90 0.84 0.70 0.70 0.72 0.70 0.69 0.69 0.70 0.69 0.65 0.61 0.60 0.60 0.61 0.61 0.60 0.60 0.60 0.61 0.61 0.60 0.59 0.59 0.59 0.59 0.58 0.52 0.44 0.38
0.90 0.90 0.91 0.94 0.93 0.96 1.00 0.93 0.84 0.80 0.70 0.59 0.60 0.63 0.66 0.68 0.64 0.59 0.57 0.56 0.54 0.56 0.57 0.57 0.56 0.54 0.54 0.54 0.54 0.53 0.53 0.52 0.48 0.41 0.34 0.32 0.30 0.29
0.92 0.88 0.84 0.88 0.85 0.87 0.89 0.80 0.72 0.70 0.67 0.56 0.58 0.64 0.62 0.61 0.55 0.53 0.52 0.49 0.48 0.48 0.47 0.45 0.45 0.43 0.40 0.40 0.39 0.35 0.32 0.31 0.29 0.28 0.28 0.29 0.30 0.31
0.87 0.87 0.88 0.85 0.83 0.81 0.76 0.68 0.66 0.61 0.59 0.61 0.59 0.54 0.54 0.52 0.50 0.44 0.40 0.41 0.38 0.38 0.35 0.33 0.30 0.27 0.25 0.23 0.23 0.22 0.22 0.24 0.26 0.27 0.29 0.30 0.31 0.33
0.80 0.80 0.80 0.82 0.80 0.74 0.67 0.64 0.60 0.58 0.63 0.56 0.47 0.46 0.44 0.42 0.38 0.38 0.34 0.32 0.31 0.27 0.23 0.22 0.22 0.21 0.21 0.24 0.24 0.25 0.25 0.26 0.29 0.32 0.32 0.33 0.34 0.34
0.67 0.70 0.72 0.71 0.69 0.67 0.64 0.63 0.66 0.64 0.52 0.45 0.44 0.39 0.37 0.35 0.34 0.30 0.28 0.23 0.19 0.27 0.22 0.20 0.24 0.22 0.25 0.27 0.29 0.29 0.30 0.32 0.32 0.33 0.32 0.32 0.33 0.32
0.67 0.66 0.65 0.65 0.64 0.62 0.63 0.66 0.66 0.54 0.48 0.45 0.38 0.33 0.30 0.29 0.28 0.24 0.22 0.21 0.21 0.25 0.24 0.22 0.27 0.25 0.30 0.31 0.32 0.32 0.32 0.33 0.33 0.33 0.33 0.31 0.31 0.31
0.65 0.64 0.62 0.60 0.62 0.63 0.64 0.56 0.43 0.36 0.34 0.32 0.30 0.30 0.29 0.29 0.26 0.25 0.24 0.25 0.27 0.28 0.29 0.24 0.31 0.29 0.32 0.34 0.34 0.33 0.33 0.35 0.34 0.34 0.32 0.31 0.31 0.31
0.63 0.63 0.62 0.62 0.63 0.60 0.43 0.29 0.27 0.30 0.33 0.32 0.32 0.32 0.31 0.30 0.28 0.27 0.25 0.25 0.26 0.28 0.33 0.29 0.30 0.30 0.32 0.32 0.34 0.33 0.32 0.35 0.35 0.34 0.33 0.31 0.30 0.31
0.61 0.62 0.63 0.60 0.51 0.36 0.28 0.28 0.27 0.27 0.29 0.28 0.28 0.30 0.28 0.29 0.31 0.31 0.31 0.28 0.29 0.29 0.34 0.31 0.31 0.31 0.27 0.34 0.34 0.34 0.33 0.33 0.33 0.33 0.33 0.32 0.31 0.30
0.58 0.58 0.52 0.41 0.32 0.28 0.28 0.28 0.26 0.30 0.30 0.28 0.28 0.28 0.30 0.30 0.31 0.33 0.35 0.33 0.32 0.32 0.38 0.36 0.33 0.32 0.31 0.30 0.32 0.33 0.32 0.31 0.32 0.32 0.33 0.33 0.33 0.33
0.47 0.40 0.36 0.34 0.31 0.29 0.27 0.27 0.31 0.31 0.29 0.28 0.28 0.29 0.31 0.33 0.35 0.36 0.38 0.39 0.39 0.38 0.41 0.39 0.35 0.34 0.32 0.30 0.28 0.31 0.31 0.32 0.32 0.32 0.33 0.33 0.33 0.33
0.38 0.35 0.34 0.32 0.30 0.30 0.28 0.30 0.32 0.31 0.30 0.30 0.31 0.33 0.36 0.39 0.40 0.39 0.40 0.41 0.41 0.41 0.41 0.40 0.38 0.37 0.35 0.32 0.30 0.28 0.28 0.30 0.32 0.32 0.32 0.32 0.31 0.33
0.35 0.32 0.31 0.31 0.30 0.28 0.31 0.31 0.35 0.33 0.33 0.33 0.35 0.39 0.40 0.40 0.39 0.40 0.39 0.40 0.38 0.38 0.42 0.43 0.41 0.39 0.35 0.35 0.32 0.28 0.30 0.27 0.30 0.31 0.32 0.32 0.33 0.34
0.34 0.32 0.29 0.27 0.27 0.29 0.28 0.32 0.34 0.37 0.37 0.38 0.39 0.39 0.39 0.39 0.40 0.42 0.41 0.40 0.38 0.37 0.38 0.41 0.43 0.42 0.40 0.36 0.30 0.29 0.29 0.29 0.30 0.30 0.31 0.29 0.31 0.32
0.34 0.27 0.26 0.25 0.25 0.27 0.28 0.30 0.35 0.37 0.37 0.38 0.38 0.39 0.39 0.39 0.40 0.41 0.41 0.41 0.40 0.40 0.40 0.40 0.39 0.38 0.37 0.34 0.34 0.29 0.28 0.28 0.29 0.31 0.30 0.27 0.26 0.30
0.31 0.28 0.27 0.25 0.25 0.27 0.29 0.31 0.32 0.34 0.37 0.38 0.38 0.38 0.38 0.38 0.40 0.38 0.39 0.41 0.42 0.41 0.40 0.40 0.38 0.36 0.30 0.25 0.29 0.32 0.27 0.28 0.28 0.27 0.27 0.26 0.23 0.25
0.32 0.30 0.27 0.26 0.26 0.26 0.28 0.30 0.30 0.32 0.33 0.35 0.35 0.36 0.36 0.35 0.36 0.36 0.38 0.41 0.41 0.40 0.39 0.39 0.37 0.35 0.29 0.26 0.25 0.26 0.29 0.26 0.25 0.24 0.24 0.25 0.27 0.29
0.31 0.28 0.27 0.27 0.27 0.28 0.29 0.29 0.30 0.30 0.31 0.31 0.32 0.33 0.34 0.34 0.35 0.36 0.40 0.42 0.42 0.40 0.38 0.37 0.37 0.37 0.34 0.33 0.26 0.24 0.26 0.28 0.28 0.26 0.25 0.24 0.23 0.24
0.29 0.28 0.28 0.28 0.29 0.29 0.29 0.30 0.30 0.29 0.29 0.29 0.29 0.30 0.32 0.35 0.34 0.36 0.40 0.41 0.40 0.40 0.39 0.39 0.39 0.35 0.31 0.26 0.23 0.24 0.25 0.27 0.28 0.28 0.28 0.27 0.24 0.22
0.31 0.30 0.30 0.29 0.29 0.28 0.30 0.30 0.28 0.27 0.28 0.28 0.29 0.31 0.36 0.34 0.36 0.38 0.42 0.41 0.41 0.40 0.39 0.38 0.36 0.34 0.30 0.27 0.26 0.26 0.25 0.25 0.26 0.24 0.25 0.28 0.28 0.31

GFSNE_prec_pwat_099.txt.gz
Precipitable_Water
1.09 1.07 1.12 1.19 1.20 1.14 1.13 1.08 0.94 0.85 0.77 0.86 0.84 0.87 0.85 0.84 0.81 0.76 0.77 0.79 0.80 0.78 0.76 0.72 0.72 0.74 0.74 0.74 0.74 0.73 0.71 0.69 0.67 0.64 0.64 0.63 0.63 0.63
0.98 1.00 1.03 1.12 1.12 1.11 1.13 1.03 1.11 1.01 0.85 0.89 0.87 0.83 0.85 0.81 0.77 0.74 0.74 0.75 0.74 0.71 0.66 0.65 0.67 0.68 0.68 0.67 0.66 0.65 0.64 0.63 0.62 0.62 0.61 0.60 0.60 0.61
0.94 0.95 1.00 1.01 1.01 1.04 1.02 1.07 0.99 0.97 0.91 0.80 0.88 0.85 0.79 0.70 0.69 0.70 0.71 0.66 0.64 0.63 0.61 0.61 0.61 0.62 0.62 0.61 0.60 0.60 0.60 0.59 0.58 0.57 0.56 0.55 0.51 0.43
0.88 0.88 0.90 0.96 0.96 0.92 0.98 0.96 0.94 0.93 0.93 0.76 0.77 0.72 0.68 0.67 0.69 0.67 0.62 0.61 0.58 0.59 0.59 0.58 0.58 0.57 0.55 0.53 0.53 0.53 0.52 0.52 0.52 0.49 0.41 0.35 0.31 0.29
0.89 0.89 0.90 0.91 0.91 0.90 0.92 0.87 0.91 0.91 0.86 0.70 0.64 0.66 0.62 0.67 0.64 0.61 0.57 0.52 0.52 0.52 0.50 0.48 0.47 0.46 0.45 0.43 0.40 0.38 0.36 0.33 0.30 0.28 0.28 0.29 0.30 0.31
0.86 0.87 0.88 0.89 0.88 0.88 0.87 0.82 0.88 0.79 0.72 0.66 0.61 0.58 0.63 0.63 0.57 0.50 0.46 0.47 0.41 0.42 0.39 0.36 0.34 0.33 0.31 0.29 0.26 0.23 0.23 0.25 0.26 0.28 0.30 0.31 0.32 0.33
0.77 0.79 0.81 0.83 0.84 0.85 0.82 0.79 0.73 0.68 0.65 0.59 0.57 0.61 0.56 0.50 0.46 0.47 0.42 0.39 0.36 0.34 0.28 0.25 0.25 0.24 0.24 0.27 0.25 0.26 0.25 0.26 0.29 0.33 0.34 0.34 0.35 0.35
0.70 0.72 0.74 0.76 0.78 0.78 0.78 0.74 0.72 0.64 0.57 0.58 0.60 0.50 0.45 0.45 0.44 0.39 0.36 0.30 0.24 0.28 0.23 0.21 0.26 0.25 0.26 0.28 0.30 0.30 0.31 0.32 0.34 0.35 0.35 0.35 0.34 0.33
0.70 0.68 0.67 0.69 0.69 0.69 0.69 0.69 0.67 0.64 0.66 0.63 0.49 0.45 0.39 0.39 0.37 0.33 0.30 0.27 0.22 0.25 0.25 0.23 0.29 0.27 0.31 0.32 0.33 0.33 0.34 0.35 0.35 0.35 0.36 0.35 0.33 0.32
0.70 0.69 0.66 0.64 0.64 0.63 0.61 0.59 0.61 0.64 0.63 0.52 0.46 0.40 0.38 0.36 0.32 0.29 0.26 0.24 0.26 0.28 0.28 0.24 0.32 0.31 0.33 0.35 0.37 0.35 0.35 0.37 0.36 0.37 0.36 0.34 0.33 0.33
0.69 0.69 0.65 0.63 0.63 0.61 0.57 0.58 0.59 0.56 0.43 0.35 0.34 0.34 0.34 0.33 0.30 0.27 0.24 0.23 0.23 0.27 0.33 0.30 0.31 0.31 0.33 0.35 0.36 0.37 0.36 0.37 0.38 0.37 0.35 0.34 0.33 0.33
0.65 0.66 0.67 0.64 0.65 0.65 0.60 0.53 0.36 0.29 0.30 0.29 0.33 0.34 0.34 0.33 0.31 0.30 0.27 0.25 0.27 0.28 0.34 0.32 0.32 0.32 0.29 0.37 0.37 0.37 0.37 0.38 0.38 0.36 0.35 0.34 0.34 0.33
0.61 0.61 0.63 0.62 0.61 0.57 0.47 0.34 0.29 0.31 0.29 0.29 0.29 0.30 0.29 0.30 0.31 0.32 0.34 0.33 0.32 0.31 0.37 0.36 0.34 0.34 0.33 0.32 0.35 0.36 0.37 0.36 0.36 0.34 0.34 0.34 0.34 0.34
0.59 0.59 0.58 0.57 0.48 0.38 0.32 0.31 0.30 0.30 0.30 0.28 0.28 0.29 0.29 0.30 0.32 0.35 0.37 0.38 0.39 0.38 0.41 0.40 0.36 0.36 0.34 0.32 0.31 0.36 0.37 0.37 0.36 0.33 0.33 0.34 0.34 0.34
0.54 0.50 0.47 0.44 0.40 0.35 0.29 0.30 0.32 0.30 0.28 0.28 0.28 0.30 0.32 0.35 0.39 0.40 0.40 0.40 0.40 0.41 0.42 0.42 0.40 0.39 0.38 0.35 0.34 0.34 0.34 0.36 0.34 0.33 0.33 0.31 0.31 0.32
0.49 0.45 0.42 0.40 0.36 0.32 0.32 0.30 0.31 0.30 0.30 0.30 0.31 0.35 0.38 0.40 0.40 0.40 0.38 0.39 0.39 0.40 0.44 0.45 0.44 0.43 0.40 0.39 0.38 0.35 0.36 0.32 0.33 0.32 0.31 0.31 0.32 0.32
0.45 0.41 0.37 0.35 0.31 0.29 0.28 0.31 0.32 0.33 0.31 0.33 0.35 0.37 0.39 0.40 0.39 0.40 0.40 0.40 0.39 0.39 0.40 0.44 0.46 0.46 0.44 0.41 0.37 0.37 0.36 0.32 0.32 0.30 0.29 0.28 0.29 0.30
0.42 0.36 0.32 0.30 0.28 0.27 0.27 0.27 0.30 0.33 0.35 0.36 0.38 0.39 0.39 0.39 0.39 0.40 0.40 0.40 0.38 0.38 0.39 0.42 0.42 0.41 0.41 0.40 0.41 0.36 0.35 0.31 0.30 0.30 0.29 0.26 0.25 0.27
0.43 0.39 0.33 0.31 0.29 0.26 0.26 0.27 0.28 0.31 0.36 0.37 0.38 0.38 0.39 0.39 0.39 0.37 0.37 0.37 0.36 0.38 0.42 0.43 0.41 0.39 0.35 0.33 0.36 0.39 0.32 0.30 0.28 0.26 0.26 0.24 0.23 0.24
0.46 0.38 0.32 0.28 0.25 0.24 0.26 0.27 0.28 0.30 0.32 0.35 0.35 0.36 0.37 0.37 0.36 0.34 0.35 0.34 0.35 0.38 0.41 0.42 0.41 0.40 0.37 0.35 0.35 0.35 0.35 0.29 0.26 0.24 0.24 0.25 0.26 0.27
0.40 0.36 0.33 0.34 0.34 0.31 0.28 0.27 0.27 0.27 0.29 0.31 0.31 0.33 0.33 0.34 0.33 0.33 0.33 0.35 0.37 0.38 0.39 0.40 0.41 0.44 0.43 0.42 0.37 0.34 0.31 0.31 0.29 0.27 0.26 0.24 0.23 0.22
0.38 0.35 0.36 0.35 0.31 0.29 0.27 0.27 0.27 0.27 0.28 0.29 0.33 0.32 0.31 0.31 0.30 0.30 0.33 0.36 0.36 0.39 0.40 0.43 0.43 0.43 0.41 0.39 0.36 0.33 0.29 0.29 0.31 0.31 0.30 0.28 0.24 0.19
0.44 0.39 0.34 0.31 0.29 0.27 0.26 0.27 0.28 0.28 0.27 0.28 0.32 0.29 0.29 0.28 0.30 0.32 0.37 0.37 0.37 0.39 0.39 0.40 0.42 0.42 0.40 0.39 0.37 0.34 0.29 0.28 0.28 0.27 0.27 0.29 0.29 0.28

GFSNE_prec_pwat_102.txt.gz
Precipitable_Water
1.24 1.24 1.23 1.22 1.19 1.14 1.15 1.11 1.01 0.82 0.86 0.95 1.01 1.04 1.02 0.98 0.93 0.89 0.87 0.84 0.83 0.83 0.82 0.77 0.74 0.75 0.75 0.77 0.78 0.78 0.76 0.73 0.68 0.65 0.64 0.61 0.61 0.60
0.97 0.96 1.01 1.03 1.05 1.09 1.08 1.11 1.10 1.00 0.87 0.98 0.97 1.04 1.05 0.93 0.91 0.86 0.83 0.78 0.79 0.80 0.75 0.69 0.68 0.68 0.69 0.69 0.68 0.67 0.66 0.64 0.62 0.61 0.60 0.59 0.58 0.59
0.93 0.91 0.91 0.99 0.98 1.01 1.04 1.09 1.04 1.03 0.91 0.92 1.00 0.95 0.94 0.87 0.84 0.81 0.73 0.72 0.74 0.72 0.66 0.63 0.63 0.63 0.63 0.63 0.63 0.61 0.61 0.60 0.58 0.56 0.56 0.55 0.55 0.50
0.92 0.91 0.89 0.94 0.91 0.95 0.95 0.98 1.04 1.00 0.95 0.84 0.92 0.87 0.91 0.84 0.77 0.69 0.68 0.71 0.68 0.64 0.62 0.61 0.61 0.61 0.60 0.58 0.56 0.54 0.53 0.53 0.53 0.52 0.51 0.46 0.37 0.33
0.92 0.91 0.90 0.90 0.89 0.90 0.92 0.92 0.94 0.96 0.94 0.90 0.84 0.87 0.82 0.75 0.69 0.64 0.66 0.64 0.59 0.58 0.56 0.56 0.54 0.54 0.52 0.50 0.48 0.46 0.44 0.40 0.34 0.30 0.28 0.29 0.30 0.32
0.86 0.89 0.89 0.91 0.89 0.89 0.90 0.91 0.88 0.90 0.92 0.81 0.77 0.76 0.70 0.70 0.63 0.63 0.58 0.55 0.48 0.49 0.48 0.45 0.42 0.40 0.39 0.38 0.36 0.31 0.27 0.26 0.26 0.27 0.29 0.30 0.32 0.34
0.78 0.79 0.82 0.85 0.86 0.87 0.85 0.84 0.84 0.82 0.82 0.76 0.69 0.67 0.64 0.58 0.61 0.59 0.50 0.47 0.45 0.42 0.39 0.35 0.32 0.28 0.27 0.29 0.27 0.27 0.26 0.27 0.28 0.31 0.34 0.35 0.36 0.37
0.71 0.76 0.77 0.77 0.79 0.80 0.81 0.80 0.79 0.75 0.70 0.67 0.66 0.61 0.58 0.62 0.57 0.49 0.44 0.40 0.34 0.40 0.33 0.25 0.26 0.25 0.27 0.29 0.31 0.31 0.31 0.32 0.34 0.36 0.36 0.36 0.36 0.37
0.66 0.68 0.72 0.74 0.76 0.75 0.74 0.74 0.74 0.73 0.73 0.69 0.62 0.61 0.62 0.56 0.49 0.44 0.39 0.37 0.32 0.30 0.26 0.22 0.27 0.26 0.31 0.33 0.35 0.34 0.34 0.35 0.36 0.36 0.37 0.37 0.36 0.36
0.67 0.67 0.68 0.70 0.71 0.70 0.67 0.64 0.63 0.64 0.66 0.66 0.65 0.65 0.54 0.48 0.44 0.39 0.37 0.34 0.32 0.29 0.27 0.22 0.30 0.30 0.34 0.35 0.38 0.36 0.36 0.38 0.38 0.39 0.38 0.37 0.37 0.35
0.68 0.68 0.68 0.68 0.69 0.67 0.65 0.61 0.59 0.60 0.63 0.66 0.67 0.54 0.46 0.40 0.36 0.33 0.30 0.26 0.24 0.25 0.29 0.27 0.31 0.32 0.34 0.34 0.37 0.38 0.39 0.39 0.41 0.41 0.39 0.39 0.38 0.35
0.66 0.67 0.69 0.67 0.67 0.67 0.62 0.59 0.56 0.61 0.60 0.52 0.40 0.35 0.34 0.33 0.33 0.32 0.29 0.24 0.24 0.24 0.31 0.30 0.31 0.32 0.29 0.36 0.37 0.38 0.38 0.40 0.41 0.41 0.41 0.40 0.39 0.36
0.65 0.64 0.65 0.66 0.65 0.65 0.64 0.59 0.53 0.51 0.39 0.34 0.32 0.32 0.31 0.31 0.33 0.33 0.32 0.30 0.28 0.29 0.36 0.35 0.33 0.33 0.32 0.33 0.37 0.38 0.39 0.38 0.39 0.39 0.39 0.40 0.38 0.36
0.64 0.65 0.64 0.65 0.62 0.60 0.56 0.51 0.46 0.37 0.33 0.30 0.29 0.27 0.30 0.30 0.32 0.33 0.35 0.36 0.37 0.37 0.40 0.39 0.35 0.35 0.34 0.33 0.33 0.37 0.39 0.40 0.40 0.39 0.39 0.40 0.37 0.35
0.63 0.62 0.59 0.59 0.56 0.51 0.46 0.38 0.36 0.33 0.30 0.29 0.27 0.28 0.31 0.33 0.35 0.35 0.38 0.39 0.40 0.42 0.41 0.40 0.40 0.39 0.39 0.36 0.35 0.37 0.37 0.39 0.40 0.40 0.40 0.38 0.33 0.33
0.60 0.56 0.55 0.53 0.49 0.44 0.39 0.35 0.34 0.32 0.28 0.28 0.30 0.31 0.33 0.35 0.36 0.39 0.39 0.40 0.39 0.38 0.42 0.44 0.44 0.44 0.41 0.41 0.39 0.36 0.38 0.35 0.40 0.41 0.40 0.36 0.33 0.32
0.56 0.51 0.49 0.46 0.40 0.36 0.33 0.34 0.32 0.32 0.31 0.31 0.32 0.32 0.34 0.36 0.39 0.42 0.41 0.39 0.37 0.37 0.40 0.45 0.48 0.47 0.46 0.44 0.39 0.39 0.38 0.38 0.40 0.39 0.38 0.31 0.30 0.30
0.56 0.51 0.47 0.40 0.33 0.32 0.35 0.31 0.31 0.30 0.33 0.31 0.31 0.32 0.34 0.37 0.40 0.41 0.40 0.39 0.37 0.37 0.39 0.39 0.40 0.43 0.45 0.43 0.44 0.38 0.38 0.38 0.40 0.40 0.38 0.29 0.26 0.26
0.55 0.50 0.45 0.42 0.39 0.36 0.32 0.30 0.30 0.32 0.35 0.35 0.34 0.34 0.37 0.40 0.42 0.40 0.39 0.38 0.36 0.35 0.36 0.37 0.39 0.40 0.39 0.36 0.39 0.44 0.38 0.38 0.39 0.37 0.34 0.27 0.25 0.24
0.57 0.53 0.44 0.43 0.37 0.35 0.36 0.31 0.27 0.30 0.30 0.32 0.33 0.35 0.37 0.41 0.40 0.38 0.37 0.35 0.34 0.34 0.34 0.36 0.39 0.39 0.40 0.39 0.38 0.38 0.43 0.39 0.38 0.36 0.33 0.28 0.29 0.29
0.54 0.51 0.47 0.44 0.40 0.36 0.32 0.30 0.28 0.27 0.27 0.29 0.31 0.32 0.34 0.37 0.35 0.35 0.35 0.35 0.35 0.33 0.31 0.34 0.39 0.44 0.45 0.46 0.41 0.38 0.39 0.42 0.42 0.38 0.35 0.29 0.26 0.26
0.55 0.46 0.40 0.39 0.39 0.37 0.32 0.32 0.29 0.27 0.28 0.28 0.28 0.28 0.29 0.32 0.35 0.36 0.36 0.33 0.32 0.31 0.32 0.38 0.43 0.43 0.43 0.42 0.40 0.39 0.38 0.39 0.41 0.41 0.39 0.33 0.29 0.23
0.60 0.53 0.44 0.41 0.38 0.35 0.37 0.38 0.36 0.33 0.30 0.28 0.28 0.27 0.27 0.28 0.32 0.34 0.31 0.30 0.30 0.30 0.36 0.40 0.40 0.41 0.40 0.42 0.41 0.40 0.39 0.38 0.38 0.37 0.35 0.34 0.33 0.32

GFSNE_prec_pwat_105.txt.gz
Precipitable_Water
1.23 1.23 1.20 1.20 1.23 1.25 1.25 1.17 1.04 0.86 0.94 1.06 1.02 1.11 1.11 1.13 1.14 1.14 1.02 0.98 0.95 0.93 0.86 0.82 0.83 0.82 0.76 0.76 0.83 0.90 0.94 0.91 0.84 0.77 0.71 0.68 0.61 0.60
1.07 1.01 0.99 1.00 1.00 1.07 1.10 1.08 1.06 0.98 0.90 0.97 1.01 1.11 1.09 1.16 1.10 1.01 1.02 0.94 0.89 0.84 0.80 0.80 0.77 0.71 0.69 0.71 0.72 0.73 0.71 0.70 0.70 0.68 0.64 0.60 0.59 0.58
0.92 0.91 0.91 0.96 0.96 0.98 1.05 1.04 1.08 1.06 0.88 0.93 1.04 1.05 1.03 1.03 1.04 0.95 0.98 0.87 0.81 0.75 0.76 0.75 0.69 0.65 0.65 0.67 0.65 0.64 0.64 0.63 0.61 0.60 0.58 0.56 0.56 0.54
0.90 0.91 0.92 0.97 0.95 0.99 0.99 0.97 0.99 1.02 0.91 0.89 0.95 0.99 0.96 0.95 0.98 0.91 0.88 0.79 0.71 0.74 0.74 0.67 0.64 0.64 0.63 0.63 0.61 0.59 0.57 0.55 0.56 0.56 0.54 0.52 0.51 0.43
0.88 0.89 0.89 0.89 0.89 0.93 0.96 0.94 0.94 0.98 0.97 0.92 0.86 0.91 0.91 0.97 0.90 0.88 0.78 0.72 0.68 0.72 0.69 0.62 0.59 0.60 0.59 0.59 0.56 0.54 0.52 0.48 0.47 0.44 0.38 0.35 0.31 0.30
0.82 0.83 0.84 0.86 0.85 0.86 0.91 0.89 0.91 0.92 0.91 0.87 0.82 0.84 0.88 0.89 0.85 0.75 0.68 0.63 0.63 0.63 0.57 0.53 0.51 0.52 0.50 0.47 0.44 0.42 0.39 0.36 0.31 0.28 0.27 0.28 0.30 0.32
0.69 0.70 0.73 0.79 0.84 0.86 0.86 0.86 0.86 0.84 0.83 0.79 0.76 0.80 0.81 0.76 0.70 0.71 0.62 0.62 0.59 0.53 0.47 0.44 0.44 0.39 0.37 0.35 0.32 0.30 0.27 0.27 0.27 0.29 0.32 0.34 0.35 0.37
0.65 0.67 0.69 0.70 0.72 0.77 0.82 0.83 0.83 0.77 0.74 0.74 0.73 0.73 0.69 0.69 0.70 0.64 0.61 0.54 0.44 0.48 0.41 0.38 0.37 0.30 0.28 0.29 0.29 0.30 0.31 0.31 0.32 0.34 0.36 0.37 0.37 0.37
0.65 0.64 0.65 0.68 0.69 0.69 0.72 0.74 0.78 0.79 0.79 0.75 0.70 0.68 0.66 0.68 0.67 0.63 0.56 0.47 0.41 0.43 0.36 0.31 0.30 0.26 0.29 0.31 0.34 0.34 0.34 0.34 0.35 0.36 0.38 0.39 0.38 0.37
0.65 0.65 0.65 0.65 0.68 0.67 0.65 0.66 0.69 0.70 0.72 0.73 0.71 0.70 0.70 0.68 0.67 0.59 0.51 0.45 0.43 0.39 0.33 0.23 0.27 0.26 0.31 0.33 0.38 0.37 0.36 0.37 0.39 0.40 0.41 0.40 0.38 0.38
0.65 0.66 0.67 0.66 0.68 0.68 0.64 0.64 0.65 0.66 0.69 0.69 0.69 0.68 0.67 0.67 0.57 0.46 0.38 0.37 0.32 0.30 0.32 0.26 0.27 0.29 0.32 0.34 0.38 0.40 0.40 0.39 0.43 0.43 0.42 0.40 0.40 0.40
0.64 0.64 0.68 0.68 0.68 0.68 0.63 0.62 0.60 0.63 0.63 0.63 0.64 0.67 0.68 0.55 0.45 0.38 0.36 0.30 0.27 0.26 0.30 0.27 0.29 0.30 0.28 0.35 0.37 0.38 0.39 0.42 0.44 0.43 0.43 0.43 0.43 0.41
0.61 0.63 0.65 0.69 0.69 0.68 0.67 0.60 0.58 0.59 0.58 0.57 0.54 0.48 0.42 0.37 0.35 0.33 0.31 0.29 0.28 0.28 0.32 0.31 0.31 0.31 0.31 0.32 0.35 0.38 0.40 0.40 0.40 0.41 0.42 0.42 0.42 0.42
0.61 0.65 0.66 0.67 0.68 0.67 0.67 0.61 0.58 0.56 0.53 0.49 0.39 0.32 0.30 0.32 0.32 0.32 0.32 0.35 0.35 0.33 0.36 0.37 0.33 0.34 0.33 0.32 0.32 0.38 0.40 0.41 0.41 0.40 0.41 0.42 0.42 0.42
0.63 0.64 0.64 0.65 0.67 0.63 0.59 0.53 0.52 0.50 0.43 0.36 0.31 0.28 0.30 0.33 0.33 0.34 0.36 0.35 0.37 0.39 0.40 0.40 0.39 0.39 0.37 0.35 0.35 0.38 0.39 0.41 0.43 0.41 0.42 0.41 0.40 0.40
0.64 0.64 0.59 0.59 0.59 0.58 0.55 0.49 0.45 0.41 0.36 0.31 0.28 0.32 0.35 0.33 0.32 0.35 0.33 0.35 0.36 0.37 0.42 0.43 0.42 0.40 0.38 0.41 0.41 0.39 0.41 0.39 0.42 0.43 0.42 0.41 0.41 0.41
0.63 0.59 0.55 0.52 0.54 0.52 0.46 0.43 0.39 0.38 0.33 0.31 0.31 0.29 0.30 0.32 0.34 0.35 0.36 0.37 0.37 0.38 0.39 0.42 0.44 0.46 0.46 0.44 0.39 0.40 0.41 0.40 0.41 0.42 0.41 0.39 0.40 0.41
0.63 0.56 0.53 0.50 0.50 0.46 0.41 0.39 0.35 0.32 0.32 0.33 0.30 0.30 0.32 0.36 0.35 0.38 0.39 0.39 0.39 0.39 0.38 0.40 0.43 0.43 0.40 0.39 0.43 0.41 0.41 0.39 0.40 0.41 0.41 0.38 0.36 0.37
0.61 0.57 0.54 0.53 0.49 0.41 0.37 0.34 0.33 0.37 0.36 0.36 0.35 0.32 0.33 0.33 0.35 0.37 0.39 0.41 0.40 0.39 0.38 0.39 0.38 0.36 0.32 0.31 0.39 0.47 0.41 0.41 0.41 0.40 0.40 0.39 0.36 0.34
0.61 0.57 0.53 0.52 0.47 0.43 0.43 0.41 0.41 0.37 0.34 0.32 0.33 0.36 0.36 0.36 0.35 0.36 0.41 0.43 0.39 0.39 0.36 0.36 0.36 0.35 0.32 0.32 0.36 0.40 0.47 0.43 0.42 0.40 0.39 0.40 0.39 0.40
0.60 0.59 0.57 0.52 0.46 0.47 0.42 0.38 0.36 0.34 0.30 0.30 0.32 0.32 0.33 0.36 0.34 0.36 0.41 0.42 0.38 0.37 0.34 0.33 0.35 0.37 0.37 0.40 0.39 0.40 0.43 0.46 0.44 0.41 0.40 0.39 0.37 0.37
0.60 0.60 0.59 0.54 0.47 0.46 0.44 0.40 0.36 0.37 0.36 0.31 0.30 0.30 0.30 0.32 0.31 0.31 0.33 0.35 0.37 0.41 0.39 0.39 0.36 0.36 0.35 0.39 0.40 0.40 0.41 0.42 0.43 0.45 0.45 0.44 0.39 0.34
0.54 0.56 0.59 0.57 0.50 0.44 0.43 0.44 0.41 0.34 0.31 0.30 0.28 0.27 0.27 0.27 0.28 0.28 0.28 0.30 0.33 0.40 0.36 0.30 0.32 0.35 0.33 0.40 0.41 0.40 0.41 0.41 0.40 0.39 0.40 0.43 0.44 0.43

GFSNE_prec_pwat_108.txt.gz
Precipitable_Water
1.10 1.16 1.15 1.15 1.16 1.16 1.19 1.18 1.08 0.94 0.94 1.05 1.06 1.15 1.23 1.17 1.17 1.20 1.16 1.18 1.11 1.08 0.98 0.92 0.86 0.87 0.88 0.83 0.86 0.97 1.03 1.10 1.08 0.90 0.84 0.77 0.72 0.69
1.01 0.93 0.91 0.93 0.94 0.95 0.97 0.99 0.99 0.95 0.88 1.02 1.04 1.08 1.09 1.11 1.14 1.15 1.13 1.12 1.09 1.05 0.95 0.89 0.81 0.82 0.82 0.76 0.72 0.85 0.90 0.88 0.88 0.83 0.77 0.72 0.71 0.63
0.86 0.85 0.85 0.90 0.92 0.93 0.95 0.95 0.92 1.03 0.90 1.03 1.09 1.14 1.04 1.10 1.13 1.07 1.09 1.04 1.00 1.00 0.87 0.83 0.79 0.79 0.75 0.70 0.68 0.69 0.74 0.76 0.75 0.72 0.67 0.65 0.61 0.56
0.77 0.82 0.83 0.88 0.90 0.92 0.93 0.95 0.97 1.00 0.94 0.86 0.96 0.98 0.97 1.01 1.01 1.04 0.95 0.99 1.02 0.91 0.83 0.77 0.77 0.75 0.68 0.66 0.65 0.64 0.62 0.63 0.62 0.61 0.60 0.59 0.55 0.51
0.70 0.72 0.74 0.77 0.79 0.83 0.85 0.86 0.94 0.96 0.94 0.90 0.90 0.96 0.96 0.96 0.94 0.91 0.90 0.90 0.89 0.89 0.80 0.75 0.74 0.68 0.64 0.63 0.61 0.61 0.60 0.58 0.55 0.52 0.51 0.51 0.48 0.38
0.68 0.68 0.69 0.68 0.67 0.70 0.72 0.77 0.84 0.86 0.89 0.86 0.86 0.87 0.89 0.90 0.87 0.85 0.84 0.88 0.82 0.77 0.71 0.71 0.67 0.61 0.59 0.58 0.58 0.56 0.52 0.48 0.44 0.39 0.36 0.32 0.29 0.30
0.65 0.67 0.68 0.69 0.70 0.72 0.71 0.72 0.73 0.75 0.78 0.81 0.82 0.81 0.81 0.80 0.78 0.81 0.81 0.74 0.74 0.70 0.67 0.65 0.56 0.52 0.50 0.49 0.47 0.41 0.39 0.37 0.33 0.31 0.31 0.31 0.32 0.34
0.62 0.64 0.66 0.67 0.67 0.69 0.71 0.72 0.73 0.69 0.69 0.70 0.73 0.75 0.77 0.79 0.80 0.78 0.70 0.64 0.60 0.66 0.61 0.52 0.49 0.43 0.39 0.38 0.35 0.32 0.30 0.29 0.30 0.33 0.34 0.35 0.36 0.37
0.62 0.62 0.62 0.64 0.64 0.64 0.66 0.68 0.70 0.72 0.72 0.70 0.68 0.71 0.72 0.75 0.74 0.70 0.68 0.64 0.61 0.63 0.52 0.42 0.42 0.35 0.34 0.34 0.33 0.34 0.32 0.32 0.34 0.37 0.38 0.38 0.38 0.39
0.61 0.62 0.62 0.63 0.63 0.64 0.63 0.64 0.65 0.66 0.68 0.70 0.72 0.74 0.76 0.77 0.72 0.69 0.66 0.63 0.58 0.52 0.46 0.34 0.34 0.31 0.31 0.33 0.36 0.35 0.35 0.36 0.38 0.38 0.39 0.41 0.40 0.40
0.63 0.64 0.63 0.62 0.64 0.66 0.63 0.62 0.63 0.64 0.68 0.70 0.72 0.74 0.74 0.73 0.71 0.65 0.60 0.53 0.42 0.40 0.42 0.35 0.32 0.28 0.30 0.31 0.37 0.38 0.38 0.39 0.41 0.41 0.43 0.43 0.42 0.41
0.61 0.62 0.63 0.64 0.64 0.66 0.64 0.61 0.60 0.63 0.63 0.64 0.66 0.69 0.71 0.69 0.68 0.67 0.59 0.43 0.36 0.34 0.37 0.33 0.28 0.29 0.27 0.34 0.36 0.38 0.40 0.42 0.43 0.45 0.45 0.44 0.44 0.42
0.60 0.59 0.61 0.63 0.65 0.67 0.68 0.63 0.61 0.62 0.62 0.60 0.58 0.59 0.61 0.66 0.67 0.57 0.44 0.39 0.32 0.30 0.31 0.29 0.28 0.31 0.30 0.31 0.35 0.37 0.39 0.40 0.41 0.44 0.45 0.45 0.45 0.44
0.61 0.60 0.61 0.62 0.63 0.65 0.66 0.68 0.64 0.62 0.59 0.56 0.51 0.48 0.48 0.46 0.42 0.37 0.39 0.36 0.34 0.31 0.33 0.35 0.32 0.31 0.30 0.31 0.31 0.37 0.39 0.41 0.42 0.41 0.42 0.44 0.44 0.44
0.64 0.62 0.61 0.59 0.60 0.63 0.62 0.63 0.61 0.57 0.52 0.48 0.44 0.41 0.40 0.40 0.36 0.33 0.35 0.35 0.36 0.34 0.36 0.37 0.37 0.35 0.36 0.34 0.34 0.36 0.38 0.41 0.44 0.43 0.43 0.42 0.42 0.41
0.65 0.63 0.62 0.57 0.55 0.55 0.59 0.57 0.55 0.52 0.48 0.44 0.40 0.38 0.36 0.33 0.30 0.33 0.32 0.32 0.34 0.34 0.38 0.40 0.40 0.40 0.38 0.38 0.38 0.39 0.42 0.41 0.45 0.44 0.43 0.43 0.43 0.42
0.63 0.62 0.59 0.56 0.51 0.49 0.54 0.52 0.51 0.48 0.44 0.41 0.37 0.33 0.32 0.30 0.32 0.37 0.33 0.33 0.34 0.32 0.37 0.40 0.43 0.44 0.43 0.41 0.40 0.41 0.40 0.41 0.45 0.44 0.44 0.41 0.41 0.41
0.62 0.59 0.58 0.56 0.51 0.49 0.49 0.47 0.44 0.42 0.41 0.40 0.36 0.32 0.29 0.29 0.34 0.34 0.34 0.34 0.32 0.35 0.37 0.40 0.43 0.41 0.41 0.44 0.45 0.39 0.37 0.39 0.44 0.45 0.44 0.40 0.38 0.41
0.60 0.59 0.58 0.56 0.52 0.53 0.51 0.45 0.41 0.41 0.41 0.37 0.33 0.32 0.34 0.34 0.31 0.35 0.36 0.36 0.37 0.38 0.39 0.43 0.40 0.39 0.38 0.35 0.37 0.41 0.34 0.37 0.42 0.44 0.44 0.42 0.39 0.37
0.57 0.58 0.58 0.58 0.54 0.51 0.48 0.44 0.41 0.38 0.37 0.36 0.35 0.35 0.36 0.35 0.32 0.34 0.33 0.36 0.37 0.38 0.43 0.43 0.41 0.39 0.35 0.33 0.33 0.34 0.39 0.38 0.41 0.42 0.43 0.43 0.43 0.42
0.52 0.54 0.56 0.57 0.57 0.54 0.50 0.46 0.45 0.45 0.42 0.40 0.39 0.33 0.32 0.31 0.32 0.36 0.36 0.37 0.37 0.41 0.43 0.40 0.38 0.41 0.40 0.41 0.35 0.33 0.36 0.42 0.44 0.43 0.44 0.41 0.39 0.39
0.51 0.52 0.54 0.53 0.53 0.53 0.50 0.45 0.46 0.43 0.38 0.36 0.34 0.31 0.32 0.33 0.34 0.32 0.33 0.35 0.34 0.38 0.39 0.38 0.41 0.44 0.44 0.41 0.33 0.32 0.35 0.37 0.43 0.47 0.48 0.45 0.41 0.37
0.53 0.52 0.52 0.53 0.53 0.53 0.49 0.45 0.45 0.48 0.46 0.38 0.36 0.37 0.34 0.29 0.29 0.30 0.29 0.31 0.32 0.32 0.34 0.34 0.36 0.43 0.41 0.34 0.32 0.32 0.34 0.36 0.39 0.41 0.43 0.46 0.47 0.47

GFSNE_prec_pwat_111.txt.gz
Precipitable_Water
1.01 1.01 1.03 1.06 1.03 1.00 1.00 0.97 0.87 0.74 0.77 0.92 0.93 1.05 1.08 1.18 1.24 1.30 1.24 1.26 1.21 1.21 1.15 1.13 1.02 0.96 0.95 0.91 0.91 0.94 0.98 1.06 1.12 1.07 0.96 0.94 0.89 0.78
0.96 0.89 0.78 0.80 0.84 0.88 0.89 0.89 0.90 0.83 0.72 0.87 0.91 0.98 1.09 1.11 1.14 1.12 1.12 1.20 1.23 1.18 1.14 1.05 1.02 0.96 0.89 0.85 0.85 0.94 0.94 0.98 1.01 1.02 0.99 0.91 0.83 0.76
0.75 0.74 0.75 0.78 0.77 0.80 0.84 0.87 0.87 0.89 0.80 0.90 1.01 1.05 1.06 1.10 1.08 1.10 1.12 1.15 1.13 1.12 1.06 1.02 0.97 0.88 0.86 0.84 0.83 0.78 0.86 0.91 0.94 0.91 0.87 0.80 0.76 0.71
0.68 0.69 0.68 0.71 0.71 0.75 0.75 0.74 0.76 0.82 0.79 0.76 0.88 0.90 0.93 1.02 1.02 1.00 1.02 1.05 1.06 1.07 1.01 1.02 0.95 0.85 0.82 0.85 0.80 0.69 0.72 0.79 0.77 0.76 0.77 0.74 0.71 0.59
0.64 0.63 0.63 0.65 0.64 0.66 0.67 0.67 0.69 0.72 0.75 0.72 0.72 0.81 0.89 0.95 0.95 0.97 0.98 0.97 0.98 0.98 0.99 0.96 0.91 0.82 0.81 0.79 0.70 0.65 0.68 0.67 0.70 0.70 0.69 0.62 0.56 0.54
0.62 0.63 0.62 0.62 0.62 0.64 0.64 0.65 0.67 0.67 0.70 0.70 0.69 0.72 0.76 0.81 0.89 0.86 0.86 0.89 0.88 0.92 0.93 0.90 0.86 0.80 0.79 0.75 0.66 0.63 0.62 0.61 0.60 0.57 0.53 0.49 0.47 0.42
0.61 0.61 0.63 0.64 0.65 0.66 0.64 0.63 0.63 0.64 0.65 0.65 0.65 0.68 0.71 0.74 0.76 0.81 0.78 0.80 0.82 0.84 0.83 0.78 0.76 0.76 0.74 0.67 0.59 0.56 0.55 0.52 0.51 0.46 0.41 0.37 0.33 0.34
0.59 0.60 0.62 0.62 0.62 0.62 0.63 0.64 0.65 0.62 0.61 0.62 0.64 0.63 0.68 0.72 0.75 0.76 0.75 0.71 0.66 0.80 0.74 0.69 0.69 0.66 0.61 0.54 0.49 0.47 0.42 0.42 0.40 0.39 0.36 0.34 0.35 0.36
0.59 0.57 0.58 0.62 0.62 0.61 0.61 0.61 0.62 0.65 0.67 0.66 0.63 0.65 0.65 0.70 0.72 0.71 0.70 0.72 0.67 0.68 0.66 0.60 0.64 0.57 0.51 0.45 0.43 0.40 0.36 0.33 0.33 0.36 0.36 0.36 0.37 0.38
0.58 0.58 0.59 0.60 0.62 0.61 0.60 0.58 0.59 0.61 0.64 0.66 0.69 0.71 0.71 0.73 0.72 0.73 0.73 0.72 0.68 0.65 0.62 0.54 0.53 0.46 0.42 0.39 0.37 0.37 0.37 0.34 0.36 0.37 0.39 0.41 0.40 0.39
0.60 0.60 0.60 0.61 0.62 0.62 0.59 0.57 0.57 0.60 0.67 0.69 0.71 0.73 0.72 0.73 0.73 0.71 0.66 0.63 0.58 0.57 0.59 0.49 0.43 0.38 0.33 0.32 0.38 0.38 0.37 0.38 0.39 0.40 0.41 0.44 0.42 0.41
0.60 0.59 0.60 0.61 0.63 0.63 0.59 0.57 0.54 0.58 0.62 0.64 0.65 0.69 0.70 0.71 0.70 0.70 0.70 0.61 0.59 0.52 0.49 0.41 0.36 0.33 0.29 0.34 0.35 0.38 0.39 0.42 0.41 0.44 0.45 0.45 0.44 0.42
0.60 0.60 0.60 0.61 0.61 0.62 0.62 0.59 0.57 0.59 0.60 0.60 0.60 0.62 0.64 0.64 0.65 0.66 0.67 0.68 0.63 0.48 0.39 0.36 0.35 0.32 0.30 0.30 0.35 0.38 0.40 0.40 0.41 0.44 0.46 0.45 0.45 0.45
0.61 0.61 0.60 0.60 0.59 0.59 0.60 0.62 0.61 0.59 0.57 0.57 0.56 0.55 0.53 0.52 0.51 0.54 0.63 0.62 0.50 0.40 0.40 0.34 0.28 0.30 0.27 0.29 0.32 0.36 0.39 0.39 0.40 0.42 0.44 0.45 0.46 0.46
0.65 0.63 0.61 0.59 0.57 0.57 0.58 0.58 0.59 0.55 0.52 0.50 0.49 0.50 0.51 0.51 0.47 0.44 0.44 0.39 0.38 0.43 0.37 0.34 0.32 0.32 0.35 0.33 0.31 0.34 0.36 0.39 0.42 0.42 0.43 0.44 0.45 0.45
0.66 0.62 0.60 0.59 0.56 0.52 0.51 0.54 0.54 0.52 0.49 0.47 0.47 0.48 0.47 0.44 0.40 0.37 0.36 0.33 0.30 0.33 0.40 0.37 0.34 0.36 0.37 0.36 0.37 0.37 0.39 0.39 0.44 0.46 0.47 0.47 0.47 0.46
0.59 0.57 0.56 0.56 0.54 0.51 0.49 0.48 0.52 0.50 0.47 0.46 0.45 0.43 0.40 0.39 0.36 0.34 0.32 0.30 0.30 0.31 0.36 0.38 0.39 0.40 0.41 0.39 0.38 0.40 0.42 0.43 0.43 0.44 0.46 0.45 0.45 0.45
0.56 0.54 0.53 0.53 0.53 0.51 0.49 0.46 0.48 0.46 0.45 0.43 0.41 0.40 0.38 0.35 0.33 0.32 0.32 0.34 0.34 0.34 0.34 0.38 0.38 0.40 0.39 0.42 0.46 0.42 0.44 0.43 0.41 0.41 0.45 0.43 0.41 0.45
0.53 0.52 0.52 0.52 0.53 0.53 0.50 0.50 0.48 0.45 0.44 0.41 0.41 0.41 0.37 0.34 0.32 0.28 0.32 0.36 0.35 0.34 0.35 0.37 0.38 0.38 0.38 0.36 0.40 0.48 0.43 0.41 0.38 0.37 0.38 0.42 0.42 0.43
0.52 0.50 0.50 0.51 0.51 0.52 0.51 0.49 0.48 0.45 0.42 0.38 0.37 0.37 0.35 0.31 0.31 0.31 0.32 0.30 0.33 0.35 0.36 0.40 0.38 0.40 0.40 0.36 0.37 0.41 0.44 0.39 0.37 0.35 0.36 0.42 0.46 0.46
0.53 0.51 0.50 0.49 0.50 0.51 0.51 0.49 0.47 0.44 0.44 0.43 0.41 0.37 0.37 0.36 0.34 0.35 0.34 0.30 0.33 0.33 0.34 0.36 0.37 0.47 0.46 0.45 0.39 0.36 0.40 0.46 0.43 0.38 0.37 0.37 0.40 0.43
0.54 0.53 0.52 0.52 0.51 0.52 0.51 0.50 0.47 0.42 0.41 0.41 0.40 0.40 0.38 0.37 0.35 0.33 0.33 0.32 0.36 0.37 0.38 0.40 0.42 0.50 0.42 0.40 0.39 0.41 0.42 0.44 0.41 0.42 0.42 0.40 0.39 0.39
0.55 0.54 0.54 0.53 0.54 0.53 0.52 0.52 0.51 0.47 0.41 0.40 0.42 0.40 0.38 0.35 0.35 0.33 0.31 0.32 0.36 0.33 0.34 0.36 0.37 0.40 0.39 0.38 0.38 0.42 0.41 0.37 0.39 0.40 0.40 0.41 0.44 0.47

GFSNE_prec_pwat_114.txt.gz
Precipitable_Water
1.06 1.05 1.01 1.00 1.02 0.95 0.90 0.87 0.75 0.61 0.65 0.81 0.85 0.96 0.99 1.04 1.08 1.13 1.17 1.22 1.22 1.22 1.20 1.22 1.18 1.14 1.06 1.03 0.99 0.95 0.96 1.02 1.19 1.13 1.10 1.07 1.08 0.96
1.01 0.96 0.91 0.80 0.76 0.78 0.77 0.76 0.75 0.69 0.59 0.75 0.82 0.89 0.99 1.00 1.05 1.12 1.12 1.15 1.17 1.18 1.17 1.20 1.17 1.12 1.06 0.99 0.96 0.95 1.01 1.01 1.10 1.07 1.07 1.09 1.01 0.95
0.84 0.75 0.71 0.71 0.70 0.70 0.74 0.73 0.71 0.72 0.61 0.68 0.78 0.81 0.84 0.91 0.94 1.03 1.04 1.05 1.12 1.12 1.15 1.11 1.09 1.07 1.02 1.01 0.93 0.94 0.99 1.00 0.99 1.00 1.02 1.01 0.95 0.91
0.73 0.70 0.66 0.66 0.65 0.68 0.68 0.66 0.65 0.67 0.62 0.58 0.69 0.72 0.75 0.80 0.84 0.85 0.89 0.95 0.99 1.03 1.06 1.03 1.03 1.03 1.00 0.97 0.90 0.91 0.90 0.95 0.91 0.92 0.94 0.94 0.90 0.86
0.69 0.66 0.63 0.64 0.62 0.63 0.63 0.63 0.64 0.64 0.65 0.60 0.60 0.69 0.73 0.78 0.77 0.82 0.83 0.87 0.93 0.98 0.99 1.00 0.98 0.99 0.97 0.92 0.86 0.86 0.86 0.78 0.81 0.83 0.91 0.88 0.86 0.75
0.67 0.65 0.62 0.61 0.60 0.62 0.62 0.62 0.63 0.62 0.61 0.60 0.59 0.62 0.66 0.71 0.74 0.71 0.72 0.79 0.83 0.88 0.93 0.94 0.96 0.96 0.94 0.88 0.86 0.84 0.81 0.73 0.68 0.75 0.76 0.74 0.71 0.64
0.66 0.63 0.61 0.62 0.63 0.63 0.61 0.59 0.60 0.57 0.56 0.56 0.57 0.59 0.61 0.64 0.67 0.72 0.72 0.74 0.76 0.80 0.80 0.80 0.82 0.86 0.87 0.85 0.81 0.82 0.74 0.65 0.61 0.61 0.60 0.59 0.53 0.47
0.63 0.61 0.62 0.62 0.61 0.61 0.63 0.62 0.61 0.56 0.53 0.54 0.56 0.57 0.60 0.65 0.69 0.69 0.68 0.66 0.63 0.78 0.76 0.74 0.74 0.74 0.77 0.76 0.75 0.73 0.61 0.58 0.55 0.55 0.50 0.47 0.41 0.39
0.62 0.60 0.59 0.60 0.61 0.60 0.60 0.60 0.60 0.60 0.61 0.60 0.56 0.58 0.61 0.66 0.69 0.67 0.67 0.67 0.66 0.71 0.70 0.70 0.72 0.66 0.68 0.67 0.66 0.59 0.51 0.49 0.47 0.44 0.46 0.40 0.38 0.37
0.62 0.60 0.60 0.60 0.62 0.61 0.59 0.58 0.59 0.59 0.58 0.61 0.60 0.62 0.66 0.70 0.70 0.70 0.69 0.67 0.67 0.68 0.68 0.64 0.69 0.63 0.64 0.62 0.56 0.53 0.43 0.38 0.38 0.39 0.38 0.36 0.38 0.39
0.59 0.61 0.62 0.62 0.63 0.62 0.59 0.57 0.57 0.57 0.60 0.62 0.63 0.65 0.68 0.71 0.73 0.70 0.65 0.62 0.59 0.62 0.67 0.65 0.61 0.58 0.56 0.48 0.50 0.44 0.37 0.36 0.39 0.39 0.39 0.43 0.41 0.41
0.61 0.62 0.63 0.63 0.63 0.63 0.62 0.58 0.54 0.54 0.55 0.55 0.57 0.60 0.65 0.69 0.70 0.70 0.68 0.61 0.60 0.58 0.65 0.58 0.58 0.51 0.42 0.40 0.38 0.38 0.36 0.36 0.41 0.42 0.44 0.44 0.44 0.42
0.60 0.61 0.62 0.62 0.62 0.63 0.63 0.60 0.57 0.57 0.55 0.53 0.53 0.55 0.58 0.62 0.65 0.68 0.70 0.66 0.61 0.59 0.64 0.56 0.48 0.44 0.39 0.28 0.34 0.40 0.40 0.39 0.40 0.45 0.48 0.46 0.45 0.44
0.62 0.62 0.62 0.61 0.61 0.62 0.62 0.61 0.59 0.57 0.54 0.50 0.50 0.51 0.52 0.53 0.56 0.60 0.64 0.67 0.67 0.66 0.69 0.60 0.40 0.33 0.33 0.30 0.33 0.37 0.39 0.43 0.40 0.42 0.45 0.45 0.45 0.46
0.68 0.64 0.63 0.62 0.61 0.59 0.58 0.58 0.58 0.55 0.50 0.47 0.46 0.47 0.49 0.52 0.54 0.54 0.52 0.53 0.55 0.61 0.55 0.45 0.37 0.34 0.31 0.29 0.28 0.31 0.36 0.40 0.40 0.42 0.42 0.43 0.44 0.45
0.66 0.63 0.60 0.60 0.59 0.56 0.52 0.52 0.51 0.50 0.48 0.46 0.45 0.46 0.47 0.47 0.47 0.48 0.45 0.43 0.40 0.37 0.37 0.40 0.39 0.33 0.30 0.32 0.34 0.35 0.39 0.35 0.40 0.42 0.43 0.45 0.47 0.48
0.60 0.57 0.55 0.55 0.54 0.53 0.52 0.50 0.48 0.46 0.47 0.45 0.44 0.44 0.44 0.43 0.42 0.43 0.41 0.37 0.34 0.33 0.31 0.36 0.40 0.40 0.36 0.35 0.36 0.39 0.37 0.38 0.41 0.43 0.45 0.45 0.48 0.49
0.56 0.53 0.51 0.52 0.52 0.52 0.50 0.48 0.47 0.45 0.45 0.44 0.42 0.42 0.40 0.39 0.39 0.39 0.38 0.34 0.31 0.32 0.31 0.34 0.36 0.34 0.36 0.37 0.39 0.39 0.40 0.42 0.46 0.48 0.46 0.42 0.43 0.47
0.55 0.53 0.52 0.51 0.50 0.50 0.51 0.50 0.46 0.47 0.48 0.44 0.41 0.40 0.40 0.40 0.40 0.35 0.34 0.33 0.30 0.31 0.34 0.37 0.37 0.36 0.35 0.33 0.40 0.45 0.45 0.45 0.47 0.50 0.45 0.40 0.37 0.42
0.56 0.53 0.52 0.51 0.50 0.48 0.48 0.49 0.48 0.46 0.45 0.41 0.39 0.38 0.39 0.38 0.35 0.33 0.33 0.30 0.31 0.35 0.37 0.36 0.34 0.33 0.35 0.36 0.38 0.43 0.48 0.48 0.48 0.42 0.40 0.40 0.39 0.41
0.57 0.55 0.56 0.53 0.51 0.50 0.49 0.50 0.50 0.47 0.45 0.41 0.40 0.39 0.37 0.36 0.35 0.33 0.31 0.31 0.31 0.32 0.31 0.34 0.36 0.43 0.44 0.41 0.39 0.40 0.42 0.48 0.46 0.42 0.43 0.44 0.39 0.38
0.58 0.57 0.57 0.56 0.54 0.52 0.51 0.51 0.50 0.50 0.47 0.43 0.39 0.38 0.37 0.38 0.36 0.36 0.36 0.33 0.34 0.35 0.33 0.33 0.39 0.40 0.41 0.38 0.41 0.44 0.44 0.43 0.45 0.47 0.49 0.46 0.37 0.35
0.57 0.58 0.58 0.57 0.56 0.55 0.53 0.52 0.51 0.50 0.51 0.51 0.46 0.39 0.40 0.38 0.35 0.33 0.33 0.33 0.34 0.33 0.34 0.34 0.41 0.43 0.45 0.41 0.45 0.47 0.40 0.42 0.45 0.45 0.43 0.45 0.46 0.44

GFSNE_prec_pwat_117.txt.gz
Precipitable_Water
1.15 1.09 1.08 1.08 1.05 0.97 0.95 0.85 0.73 0.56 0.57 0.71 0.80 0.91 0.91 0.91 0.94 0.97 0.99 1.03 1.07 1.11 1.15 1.17 1.17 1.17 1.19 1.17 1.14 1.06 1.02 1.03 0.99 1.05 1.17 1.20 1.16 1.23
1.07 1.04 1.04 1.00 0.92 0.85 0.75 0.75 0.72 0.64 0.55 0.66 0.75 0.80 0.81 0.83 0.85 0.91 0.93 0.99 1.03 1.02 1.03 1.07 1.11 1.13 1.12 1.13 1.10 1.04 1.04 1.09 1.13 1.16 1.13 1.18 1.14 1.11
1.01 0.95 0.89 0.83 0.73 0.73 0.73 0.71 0.68 0.68 0.57 0.63 0.70 0.74 0.71 0.75 0.78 0.83 0.87 0.91 0.97 0.97 0.97 0.97 1.00 1.01 1.03 1.05 1.05 1.03 1.03 1.04 1.11 1.12 1.12 1.09 1.12 1.10
0.88 0.80 0.74 0.73 0.69 0.70 0.69 0.67 0.66 0.67 0.62 0.54 0.63 0.65 0.68 0.73 0.75 0.74 0.79 0.83 0.86 0.90 0.91 0.93 0.94 0.96 0.98 0.97 1.00 0.98 1.04 0.99 1.05 1.07 1.04 1.04 1.01 0.97
0.81 0.77 0.73 0.69 0.66 0.66 0.64 0.62 0.62 0.63 0.62 0.58 0.56 0.63 0.65 0.69 0.70 0.72 0.74 0.78 0.83 0.86 0.88 0.91 0.95 0.95 0.91 0.91 0.97 0.97 0.97 0.93 0.93 1.01 1.02 0.97 0.91 0.94
0.81 0.75 0.71 0.68 0.66 0.64 0.62 0.62 0.61 0.57 0.58 0.56 0.56 0.57 0.61 0.67 0.69 0.62 0.63 0.71 0.73 0.82 0.84 0.90 0.91 0.92 0.89 0.89 0.89 0.91 0.92 0.91 0.88 0.90 0.92 0.86 0.87 0.83
0.77 0.72 0.70 0.68 0.67 0.65 0.62 0.61 0.58 0.55 0.54 0.53 0.52 0.54 0.55 0.59 0.61 0.66 0.63 0.67 0.70 0.76 0.79 0.81 0.82 0.82 0.85 0.84 0.84 0.85 0.88 0.85 0.86 0.83 0.75 0.77 0.74 0.73
0.70 0.69 0.68 0.66 0.65 0.63 0.62 0.60 0.59 0.55 0.53 0.54 0.52 0.52 0.55 0.60 0.64 0.64 0.64 0.62 0.60 0.76 0.74 0.72 0.76 0.74 0.76 0.79 0.80 0.79 0.81 0.81 0.81 0.74 0.66 0.62 0.62 0.59
0.69 0.67 0.66 0.64 0.62 0.61 0.61 0.60 0.59 0.58 0.59 0.56 0.52 0.54 0.56 0.61 0.64 0.62 0.63 0.64 0.63 0.70 0.71 0.65 0.71 0.68 0.72 0.75 0.75 0.73 0.70 0.72 0.72 0.62 0.61 0.57 0.54 0.49
0.69 0.67 0.64 0.61 0.60 0.61 0.61 0.59 0.59 0.60 0.60 0.60 0.58 0.58 0.60 0.63 0.64 0.64 0.65 0.66 0.67 0.68 0.69 0.60 0.67 0.65 0.69 0.69 0.70 0.69 0.65 0.61 0.59 0.52 0.49 0.47 0.45 0.41
0.66 0.64 0.61 0.60 0.62 0.61 0.61 0.58 0.58 0.58 0.61 0.61 0.61 0.61 0.63 0.66 0.67 0.65 0.61 0.59 0.59 0.63 0.67 0.62 0.63 0.61 0.64 0.64 0.65 0.65 0.58 0.51 0.46 0.41 0.40 0.39 0.40 0.42
0.62 0.60 0.60 0.60 0.62 0.63 0.62 0.60 0.56 0.56 0.57 0.57 0.57 0.57 0.59 0.62 0.65 0.64 0.63 0.59 0.60 0.60 0.67 0.60 0.60 0.60 0.56 0.60 0.59 0.53 0.52 0.45 0.39 0.39 0.39 0.44 0.45 0.40
0.59 0.58 0.61 0.61 0.61 0.62 0.64 0.61 0.59 0.60 0.58 0.56 0.55 0.53 0.53 0.55 0.58 0.61 0.64 0.65 0.62 0.63 0.67 0.65 0.61 0.58 0.53 0.44 0.38 0.45 0.40 0.39 0.36 0.36 0.40 0.47 0.47 0.46
0.62 0.64 0.63 0.63 0.62 0.61 0.62 0.63 0.63 0.61 0.58 0.54 0.51 0.49 0.49 0.51 0.52 0.54 0.57 0.64 0.69 0.67 0.68 0.67 0.59 0.56 0.42 0.40 0.36 0.35 0.36 0.40 0.43 0.43 0.43 0.48 0.49 0.49
0.69 0.69 0.69 0.66 0.64 0.60 0.60 0.62 0.60 0.57 0.54 0.51 0.47 0.45 0.47 0.48 0.48 0.50 0.53 0.55 0.57 0.62 0.69 0.68 0.65 0.60 0.46 0.30 0.30 0.31 0.36 0.38 0.41 0.41 0.44 0.43 0.44 0.47
0.72 0.72 0.69 0.66 0.62 0.58 0.57 0.57 0.55 0.52 0.49 0.48 0.47 0.47 0.46 0.44 0.43 0.45 0.45 0.47 0.46 0.46 0.50 0.53 0.53 0.43 0.34 0.32 0.32 0.30 0.33 0.31 0.36 0.42 0.44 0.43 0.46 0.46
0.73 0.68 0.63 0.58 0.55 0.54 0.55 0.54 0.53 0.52 0.47 0.46 0.45 0.43 0.42 0.42 0.41 0.42 0.41 0.41 0.40 0.38 0.37 0.40 0.38 0.37 0.39 0.36 0.29 0.31 0.32 0.35 0.38 0.40 0.41 0.41 0.44 0.46
0.69 0.62 0.57 0.54 0.52 0.52 0.51 0.51 0.52 0.50 0.47 0.45 0.44 0.43 0.39 0.38 0.38 0.38 0.37 0.35 0.35 0.36 0.35 0.36 0.35 0.33 0.36 0.37 0.39 0.33 0.38 0.38 0.40 0.42 0.43 0.41 0.41 0.46
0.66 0.62 0.57 0.54 0.53 0.53 0.52 0.51 0.50 0.51 0.49 0.46 0.44 0.40 0.38 0.37 0.37 0.37 0.37 0.35 0.34 0.33 0.34 0.35 0.34 0.30 0.29 0.29 0.35 0.41 0.36 0.38 0.41 0.44 0.46 0.49 0.49 0.46
0.65 0.62 0.59 0.58 0.56 0.54 0.53 0.51 0.50 0.50 0.48 0.45 0.43 0.39 0.36 0.34 0.34 0.33 0.34 0.32 0.31 0.33 0.32 0.33 0.32 0.32 0.33 0.35 0.36 0.39 0.43 0.42 0.44 0.44 0.49 0.53 0.48 0.46
0.62 0.62 0.61 0.60 0.59 0.57 0.56 0.54 0.51 0.49 0.49 0.47 0.44 0.41 0.37 0.35 0.32 0.32 0.32 0.32 0.31 0.31 0.29 0.29 0.34 0.42 0.42 0.39 0.32 0.34 0.38 0.45 0.50 0.48 0.49 0.46 0.40 0.41
0.61 0.61 0.61 0.60 0.59 0.58 0.57 0.56 0.55 0.52 0.50 0.49 0.49 0.46 0.41 0.37 0.34 0.34 0.34 0.32 0.31 0.29 0.29 0.31 0.34 0.36 0.36 0.36 0.38 0.39 0.39 0.42 0.46 0.47 0.49 0.45 0.41 0.40
0.60 0.60 0.60 0.59 0.59 0.58 0.57 0.56 0.55 0.54 0.53 0.51 0.50 0.50 0.48 0.41 0.38 0.39 0.36 0.33 0.33 0.32 0.32 0.31 0.34 0.37 0.35 0.33 0.34 0.36 0.40 0.44 0.47 0.47 0.44 0.46 0.49 0.48

GFSNE_prec_pwat_120.txt.gz
Precipitable_Water
1.32 1.30 1.21 1.11 1.12 1.13 1.02 0.90 0.77 0.51 0.52 0.67 0.69 0.84 0.87 0.87 0.83 0.83 0.85 0.90 0.95 1.00 1.04 1.04 1.05 1.02 1.06 1.08 1.04 1.06 1.06 1.04 1.06 1.04 0.95 1.10 1.24 1.21
1.33 1.19 1.09 1.08 1.06 1.00 0.92 0.78 0.69 0.63 0.50 0.65 0.68 0.75 0.78 0.77 0.78 0.80 0.82 0.86 0.89 0.95 0.98 1.00 0.99 0.98 0.97 1.02 1.01 1.02 1.01 1.04 1.10 1.13 1.11 1.14 1.15 1.22
1.22 1.10 1.02 0.98 0.91 0.84 0.76 0.72 0.67 0.67 0.56 0.62 0.70 0.72 0.71 0.71 0.73 0.77 0.81 0.81 0.84 0.88 0.93 0.94 0.95 0.94 0.95 0.95 0.95 0.96 0.96 1.00 1.10 1.22 1.20 1.21 1.20 1.13
1.09 1.02 0.93 0.89 0.77 0.76 0.72 0.68 0.66 0.68 0.62 0.53 0.61 0.61 0.62 0.66 0.68 0.70 0.72 0.75 0.78 0.83 0.85 0.87 0.89 0.90 0.93 0.94 0.92 0.93 0.96 0.98 1.04 1.11 1.14 1.11 1.08 1.05
1.05 0.95 0.85 0.80 0.75 0.73 0.69 0.64 0.64 0.64 0.62 0.56 0.55 0.61 0.60 0.63 0.62 0.64 0.68 0.70 0.73 0.78 0.82 0.81 0.86 0.86 0.89 0.88 0.93 0.91 0.93 0.97 0.96 1.03 1.04 1.02 1.03 1.02
0.97 0.89 0.86 0.82 0.76 0.71 0.67 0.66 0.65 0.61 0.59 0.55 0.54 0.56 0.57 0.61 0.60 0.57 0.59 0.67 0.68 0.75 0.77 0.81 0.86 0.85 0.86 0.86 0.87 0.86 0.88 0.90 0.93 0.97 1.00 0.99 0.97 0.95
0.88 0.87 0.84 0.80 0.76 0.71 0.66 0.65 0.62 0.58 0.54 0.52 0.51 0.52 0.51 0.52 0.52 0.58 0.57 0.62 0.66 0.71 0.72 0.75 0.78 0.81 0.84 0.84 0.81 0.81 0.82 0.85 0.89 0.91 0.92 0.91 0.90 0.87
0.82 0.81 0.79 0.77 0.73 0.69 0.68 0.66 0.63 0.56 0.54 0.53 0.52 0.50 0.52 0.54 0.57 0.56 0.56 0.55 0.54 0.70 0.69 0.71 0.77 0.75 0.77 0.80 0.80 0.78 0.78 0.81 0.85 0.87 0.88 0.87 0.81 0.74
0.82 0.79 0.76 0.74 0.70 0.68 0.66 0.64 0.61 0.61 0.61 0.58 0.54 0.53 0.53 0.56 0.57 0.55 0.56 0.57 0.56 0.65 0.66 0.65 0.72 0.70 0.73 0.74 0.77 0.75 0.76 0.76 0.77 0.78 0.81 0.80 0.73 0.65
0.81 0.79 0.74 0.71 0.69 0.66 0.62 0.59 0.59 0.60 0.60 0.60 0.60 0.60 0.59 0.59 0.58 0.57 0.58 0.60 0.60 0.63 0.67 0.58 0.67 0.66 0.70 0.70 0.73 0.74 0.73 0.70 0.69 0.71 0.73 0.69 0.63 0.59
0.78 0.76 0.73 0.68 0.67 0.64 0.59 0.57 0.57 0.58 0.62 0.63 0.62 0.62 0.61 0.63 0.63 0.60 0.55 0.53 0.51 0.57 0.64 0.60 0.63 0.64 0.66 0.66 0.68 0.71 0.69 0.66 0.65 0.61 0.64 0.55 0.51 0.49
0.73 0.72 0.68 0.65 0.64 0.61 0.58 0.57 0.55 0.56 0.59 0.59 0.59 0.58 0.58 0.59 0.62 0.61 0.59 0.53 0.53 0.53 0.63 0.60 0.62 0.63 0.58 0.64 0.65 0.66 0.65 0.64 0.57 0.52 0.49 0.44 0.42 0.42
0.68 0.66 0.65 0.65 0.62 0.61 0.62 0.58 0.57 0.60 0.59 0.58 0.57 0.55 0.55 0.54 0.54 0.55 0.58 0.58 0.56 0.56 0.64 0.63 0.61 0.62 0.61 0.57 0.58 0.52 0.57 0.53 0.48 0.45 0.41 0.42 0.43 0.41
0.66 0.66 0.66 0.65 0.64 0.62 0.62 0.62 0.61 0.61 0.60 0.57 0.54 0.51 0.50 0.49 0.50 0.51 0.53 0.54 0.59 0.61 0.66 0.67 0.62 0.61 0.59 0.55 0.42 0.47 0.46 0.41 0.39 0.37 0.36 0.39 0.43 0.49
0.71 0.70 0.68 0.68 0.66 0.64 0.63 0.61 0.61 0.60 0.58 0.54 0.50 0.47 0.47 0.47 0.47 0.46 0.47 0.49 0.51 0.54 0.60 0.65 0.66 0.64 0.62 0.57 0.47 0.38 0.38 0.36 0.36 0.37 0.41 0.44 0.45 0.46
0.74 0.73 0.72 0.70 0.69 0.65 0.62 0.60 0.59 0.58 0.54 0.52 0.48 0.48 0.47 0.46 0.42 0.42 0.40 0.41 0.42 0.44 0.48 0.53 0.57 0.59 0.58 0.58 0.45 0.33 0.30 0.28 0.38 0.39 0.41 0.44 0.48 0.48
0.74 0.73 0.71 0.69 0.66 0.63 0.58 0.57 0.55 0.55 0.53 0.51 0.48 0.45 0.45 0.43 0.40 0.41 0.40 0.38 0.36 0.36 0.37 0.42 0.44 0.46 0.48 0.44 0.33 0.32 0.31 0.31 0.35 0.36 0.37 0.39 0.44 0.46
0.74 0.71 0.69 0.68 0.65 0.61 0.57 0.54 0.54 0.52 0.52 0.51 0.48 0.45 0.42 0.41 0.38 0.37 0.36 0.34 0.31 0.31 0.34 0.36 0.37 0.36 0.35 0.33 0.36 0.33 0.34 0.32 0.34 0.35 0.37 0.37 0.39 0.45
0.69 0.69 0.68 0.67 0.65 0.62 0.59 0.57 0.54 0.53 0.52 0.50 0.47 0.45 0.44 0.41 0.37 0.34 0.33 0.32 0.31 0.33 0.34 0.36 0.35 0.33 0.32 0.27 0.33 0.41 0.35 0.35 0.37 0.38 0.39 0.40 0.40 0.42
0.68 0.67 0.66 0.66 0.65 0.62 0.60 0.59 0.57 0.55 0.52 0.51 0.48 0.45 0.44 0.40 0.36 0.31 0.31 0.30 0.30 0.31 0.30 0.32 0.30 0.30 0.30 0.29 0.30 0.36 0.42 0.37 0.37 0.37 0.39 0.44 0.50 0.54
0.65 0.65 0.65 0.64 0.63 0.63 0.62 0.60 0.58 0.57 0.55 0.52 0.50 0.47 0.45 0.42 0.37 0.35 0.32 0.31 0.30 0.29 0.27 0.28 0.30 0.36 0.34 0.35 0.32 0.35 0.39 0.43 0.43 0.41 0.43 0.46 0.47 0.49
0.61 0.62 0.62 0.63 0.63 0.63 0.61 0.60 0.58 0.57 0.56 0.54 0.53 0.53 0.51 0.48 0.43 0.37 0.35 0.33 0.33 0.31 0.30 0.29 0.31 0.31 0.30 0.31 0.32 0.35 0.37 0.38 0.39 0.43 0.48 0.50 0.47 0.42
0.58 0.59 0.60 0.61 0.61 0.61 0.60 0.58 0.57 0.57 0.56 0.55 0.54 0.53 0.52 0.50 0.50 0.46 0.39 0.38 0.36 0.34 0.33 0.31 0.32 0.32 0.30 0.29 0.29 0.29 0.35 0.39 0.42 0.41 0.43 0.48 0.48 0.48

GFSNE_prec_pwat_123.txt.gz
Precipitable_Water
1.38 1.38 1.29 1.25 1.29 1.18 1.06 0.99 0.82 0.63 0.57 0.67 0.69 0.83 0.84 0.82 0.80 0.76 0.75 0.80 0.83 0.84 0.87 0.91 0.93 0.95 0.97 0.97 0.95 0.95 0.96 0.95 0.97 0.97 1.00 0.98 1.01 1.22
1.39 1.37 1.30 1.25 1.16 1.12 1.03 0.96 0.88 0.67 0.50 0.64 0.68 0.73 0.76 0.73 0.75 0.73 0.74 0.77 0.79 0.80 0.84 0.87 0.91 0.96 0.91 0.89 0.87 0.90 0.90 0.91 0.94 0.94 1.00 1.02 0.96 1.18
1.35 1.31 1.25 1.24 1.08 1.00 0.94 0.87 0.73 0.68 0.55 0.61 0.68 0.70 0.68 0.65 0.66 0.70 0.72 0.73 0.77 0.77 0.81 0.85 0.88 0.89 0.87 0.87 0.88 0.89 0.90 0.88 0.93 0.98 1.07 1.14 1.13 1.19
1.29 1.27 1.26 1.17 1.01 0.94 0.84 0.75 0.72 0.71 0.63 0.55 0.62 0.61 0.60 0.63 0.63 0.62 0.64 0.70 0.73 0.75 0.76 0.80 0.82 0.85 0.86 0.84 0.86 0.84 0.85 0.89 0.90 0.96 1.05 1.10 1.11 1.12
1.25 1.28 1.23 1.09 0.94 0.84 0.81 0.77 0.76 0.72 0.66 0.59 0.56 0.62 0.60 0.60 0.59 0.60 0.61 0.64 0.69 0.74 0.76 0.79 0.83 0.85 0.82 0.80 0.84 0.84 0.85 0.86 0.89 0.92 1.00 1.04 1.07 1.06
1.30 1.29 1.19 1.03 0.89 0.84 0.81 0.78 0.74 0.69 0.64 0.59 0.57 0.56 0.57 0.59 0.57 0.52 0.53 0.60 0.62 0.70 0.75 0.79 0.83 0.84 0.83 0.82 0.79 0.81 0.81 0.83 0.86 0.90 0.92 0.95 0.97 0.98
1.29 1.17 1.08 0.98 0.94 0.90 0.83 0.78 0.75 0.68 0.63 0.57 0.54 0.53 0.53 0.52 0.50 0.55 0.53 0.56 0.60 0.65 0.67 0.72 0.76 0.79 0.80 0.81 0.81 0.79 0.78 0.80 0.81 0.85 0.88 0.90 0.92 0.93
1.11 1.05 0.97 0.93 0.90 0.86 0.82 0.80 0.76 0.67 0.59 0.55 0.52 0.51 0.52 0.53 0.56 0.54 0.53 0.51 0.48 0.65 0.64 0.65 0.72 0.72 0.77 0.80 0.80 0.79 0.75 0.75 0.77 0.82 0.86 0.87 0.86 0.85
1.02 0.91 0.87 0.87 0.85 0.82 0.79 0.76 0.72 0.67 0.64 0.59 0.53 0.53 0.53 0.56 0.57 0.54 0.53 0.52 0.52 0.60 0.62 0.59 0.69 0.68 0.73 0.74 0.76 0.76 0.74 0.73 0.74 0.77 0.81 0.83 0.84 0.84
0.87 0.87 0.85 0.84 0.84 0.81 0.76 0.71 0.66 0.64 0.62 0.60 0.59 0.59 0.60 0.61 0.59 0.58 0.56 0.56 0.57 0.60 0.63 0.53 0.63 0.63 0.68 0.70 0.73 0.74 0.72 0.70 0.71 0.72 0.74 0.76 0.78 0.80
0.86 0.87 0.87 0.83 0.83 0.79 0.71 0.65 0.62 0.61 0.64 0.63 0.63 0.63 0.63 0.63 0.63 0.60 0.55 0.52 0.50 0.55 0.63 0.57 0.60 0.60 0.63 0.65 0.68 0.72 0.72 0.70 0.68 0.67 0.67 0.71 0.73 0.71
0.83 0.82 0.82 0.80 0.79 0.75 0.67 0.62 0.56 0.57 0.58 0.58 0.59 0.59 0.60 0.60 0.61 0.61 0.59 0.53 0.52 0.52 0.61 0.56 0.57 0.58 0.54 0.63 0.67 0.69 0.70 0.70 0.68 0.65 0.65 0.66 0.65 0.57
0.75 0.76 0.78 0.78 0.76 0.71 0.67 0.63 0.61 0.62 0.59 0.57 0.57 0.58 0.58 0.57 0.57 0.56 0.56 0.56 0.53 0.54 0.62 0.60 0.58 0.57 0.57 0.57 0.60 0.63 0.64 0.60 0.64 0.60 0.57 0.56 0.51 0.45
0.75 0.75 0.75 0.74 0.72 0.69 0.68 0.66 0.65 0.63 0.59 0.56 0.55 0.55 0.54 0.54 0.54 0.53 0.53 0.52 0.54 0.54 0.60 0.62 0.57 0.57 0.57 0.56 0.56 0.61 0.53 0.55 0.51 0.49 0.45 0.46 0.44 0.46
0.76 0.75 0.73 0.72 0.70 0.69 0.68 0.67 0.65 0.63 0.59 0.55 0.53 0.54 0.52 0.51 0.50 0.47 0.47 0.47 0.48 0.50 0.53 0.57 0.57 0.57 0.58 0.57 0.56 0.57 0.48 0.43 0.47 0.39 0.37 0.36 0.38 0.39
0.77 0.75 0.74 0.73 0.71 0.70 0.69 0.67 0.65 0.62 0.59 0.56 0.55 0.54 0.51 0.49 0.45 0.44 0.41 0.43 0.41 0.39 0.44 0.47 0.51 0.53 0.52 0.56 0.56 0.57 0.54 0.38 0.37 0.37 0.36 0.37 0.41 0.45
0.78 0.76 0.74 0.72 0.70 0.70 0.69 0.67 0.66 0.64 0.58 0.57 0.56 0.53 0.50 0.46 0.44 0.44 0.42 0.41 0.37 0.35 0.35 0.38 0.41 0.44 0.46 0.45 0.43 0.50 0.42 0.34 0.32 0.33 0.35 0.33 0.41 0.45
0.73 0.70 0.69 0.70 0.69 0.70 0.69 0.67 0.65 0.64 0.60 0.57 0.55 0.52 0.49 0.44 0.43 0.44 0.42 0.37 0.33 0.32 0.30 0.33 0.32 0.33 0.34 0.35 0.40 0.38 0.33 0.31 0.33 0.34 0.35 0.33 0.34 0.40
0.67 0.67 0.67 0.68 0.68 0.68 0.68 0.66 0.64 0.64 0.63 0.58 0.54 0.52 0.48 0.45 0.44 0.41 0.38 0.36 0.33 0.31 0.31 0.34 0.33 0.30 0.27 0.24 0.31 0.37 0.30 0.34 0.37 0.35 0.35 0.33 0.32 0.35
0.63 0.62 0.63 0.64 0.65 0.64 0.64 0.64 0.64 0.64 0.61 0.58 0.55 0.53 0.51 0.46 0.43 0.41 0.37 0.33 0.31 0.31 0.30 0.31 0.30 0.29 0.27 0.26 0.31 0.37 0.39 0.38 0.41 0.36 0.35 0.38 0.40 0.44
0.59 0.59 0.61 0.62 0.62 0.62 0.62 0.63 0.63 0.61 0.59 0.57 0.57 0.56 0.54 0.50 0.46 0.43 0.39 0.36 0.34 0.31 0.27 0.27 0.29 0.34 0.33 0.33 0.26 0.26 0.33 0.39 0.40 0.37 0.37 0.37 0.38 0.40
0.57 0.58 0.59 0.60 0.60 0.61 0.61 0.62 0.62 0.60 0.58 0.57 0.57 0.57 0.56 0.54 0.50 0.47 0.45 0.40 0.37 0.35 0.33 0.32 0.33 0.32 0.30 0.28 0.24 0.24 0.27 0.35 0.40 0.43 0.44 0.44 0.40 0.39
0.54 0.55 0.57 0.58 0.59 0.59 0.60 0.59 0.59 0.59 0.59 0.58 0.57 0.57 0.56 0.53 0.53 0.52 0.50 0.47 0.43 0.39 0.36 0.33 0.34 0.34 0.30 0.28 0.26 0.25 0.28 0.29 0.33 0.35 0.39 0.42 0.43 0.47

GFSNE_prec_pwat_126.txt.gz
Precipitable_Water
1.37 1.40 1.31 1.34 1.36 1.33 1.34 1.20 0.96 0.68 0.68 0.77 0.70 0.82 0.84 0.81 0.78 0.75 0.73 0.73 0.76 0.77 0.76 0.79 0.83 0.87 0.88 0.90 0.88 0.87 0.85 0.87 0.86 0.89 0.87 0.90 1.01 0.94
1.39 1.34 1.35 1.38 1.35 1.35 1.31 1.19 1.03 0.82 0.65 0.72 0.73 0.79 0.76 0.73 0.72 0.68 0.68 0.70 0.71 0.73 0.75 0.76 0.79 0.80 0.83 0.85 0.87 0.82 0.84 0.86 0.85 0.85 0.87 0.91 0.99 0.99
1.36 1.36 1.35 1.38 1.29 1.29 1.28 1.18 0.95 0.85 0.63 0.69 0.77 0.77 0.70 0.66 0.66 0.67 0.67 0.64 0.67 0.71 0.72 0.75 0.76 0.77 0.79 0.80 0.79 0.80 0.83 0.85 0.84 0.85 0.94 1.03 1.08 1.07
1.32 1.33 1.35 1.33 1.24 1.28 1.22 1.09 0.89 0.78 0.71 0.63 0.69 0.67 0.65 0.66 0.64 0.61 0.62 0.64 0.64 0.66 0.71 0.73 0.75 0.77 0.78 0.77 0.78 0.80 0.81 0.82 0.84 0.86 0.91 0.98 1.07 1.07
1.31 1.31 1.33 1.28 1.18 1.21 1.15 1.02 0.90 0.82 0.77 0.69 0.64 0.68 0.65 0.65 0.60 0.58 0.56 0.58 0.63 0.65 0.66 0.70 0.75 0.76 0.79 0.79 0.80 0.78 0.80 0.83 0.83 0.86 0.88 0.97 1.02 1.02
1.29 1.31 1.30 1.25 1.18 1.19 1.14 1.00 0.90 0.80 0.78 0.71 0.68 0.65 0.63 0.63 0.59 0.53 0.52 0.57 0.56 0.62 0.65 0.69 0.72 0.75 0.77 0.79 0.80 0.80 0.80 0.80 0.84 0.85 0.84 0.87 0.97 1.00
1.33 1.33 1.34 1.31 1.27 1.23 1.11 0.97 0.91 0.81 0.76 0.72 0.67 0.64 0.61 0.57 0.52 0.55 0.53 0.55 0.56 0.59 0.59 0.63 0.68 0.71 0.73 0.77 0.78 0.77 0.77 0.82 0.82 0.82 0.80 0.81 0.86 0.89
1.30 1.30 1.30 1.30 1.27 1.17 1.03 1.01 0.95 0.84 0.77 0.73 0.67 0.61 0.58 0.57 0.58 0.54 0.53 0.51 0.46 0.60 0.57 0.58 0.67 0.66 0.71 0.75 0.77 0.78 0.78 0.76 0.77 0.78 0.77 0.79 0.84 0.87
1.29 1.26 1.22 1.21 1.11 0.99 0.99 0.97 0.94 0.89 0.83 0.76 0.66 0.62 0.58 0.59 0.59 0.55 0.55 0.54 0.51 0.56 0.57 0.52 0.62 0.63 0.71 0.74 0.76 0.76 0.76 0.74 0.74 0.74 0.74 0.77 0.80 0.82
1.24 1.23 1.15 1.08 0.98 0.95 0.92 0.89 0.87 0.85 0.81 0.76 0.69 0.65 0.64 0.64 0.63 0.60 0.59 0.57 0.58 0.58 0.59 0.49 0.59 0.59 0.68 0.72 0.74 0.75 0.74 0.71 0.70 0.71 0.71 0.73 0.78 0.81
1.13 1.09 1.01 0.92 0.92 0.92 0.86 0.84 0.81 0.79 0.79 0.74 0.70 0.67 0.67 0.66 0.65 0.62 0.56 0.53 0.51 0.53 0.59 0.55 0.56 0.57 0.62 0.64 0.69 0.72 0.73 0.72 0.70 0.69 0.69 0.69 0.71 0.74
0.99 0.97 0.97 0.93 0.89 0.89 0.87 0.82 0.73 0.71 0.69 0.66 0.63 0.63 0.63 0.62 0.62 0.62 0.60 0.53 0.53 0.51 0.58 0.54 0.55 0.56 0.53 0.61 0.63 0.66 0.69 0.70 0.70 0.70 0.68 0.68 0.69 0.68
0.94 0.94 0.97 0.97 0.92 0.88 0.83 0.76 0.71 0.72 0.68 0.64 0.62 0.61 0.59 0.59 0.58 0.59 0.60 0.58 0.54 0.52 0.59 0.56 0.54 0.54 0.54 0.54 0.57 0.61 0.62 0.63 0.65 0.66 0.67 0.66 0.69 0.64
0.86 0.86 0.85 0.86 0.85 0.82 0.77 0.75 0.73 0.70 0.66 0.62 0.59 0.57 0.56 0.55 0.55 0.56 0.56 0.56 0.56 0.55 0.58 0.57 0.52 0.53 0.52 0.52 0.52 0.58 0.59 0.61 0.57 0.56 0.60 0.61 0.61 0.59
0.90 0.89 0.87 0.84 0.82 0.80 0.78 0.76 0.76 0.71 0.66 0.61 0.58 0.56 0.56 0.56 0.55 0.53 0.52 0.51 0.50 0.50 0.51 0.52 0.53 0.54 0.54 0.51 0.51 0.53 0.53 0.57 0.53 0.48 0.47 0.46 0.46 0.47
0.83 0.83 0.81 0.80 0.78 0.76 0.74 0.74 0.73 0.72 0.67 0.63 0.60 0.59 0.58 0.54 0.51 0.51 0.46 0.46 0.44 0.41 0.45 0.45 0.46 0.49 0.47 0.50 0.50 0.51 0.54 0.50 0.49 0.39 0.45 0.42 0.39 0.38
0.79 0.77 0.74 0.73 0.72 0.73 0.73 0.73 0.73 0.71 0.68 0.66 0.63 0.61 0.58 0.55 0.52 0.50 0.47 0.44 0.41 0.38 0.38 0.40 0.41 0.42 0.42 0.43 0.42 0.43 0.45 0.49 0.51 0.46 0.40 0.36 0.35 0.36
0.71 0.68 0.67 0.68 0.68 0.69 0.69 0.69 0.69 0.69 0.68 0.67 0.65 0.63 0.59 0.55 0.51 0.49 0.47 0.44 0.41 0.38 0.35 0.35 0.35 0.32 0.31 0.32 0.35 0.32 0.35 0.41 0.40 0.37 0.35 0.32 0.31 0.34
0.64 0.63 0.63 0.63 0.64 0.65 0.65 0.66 0.65 0.67 0.68 0.67 0.65 0.63 0.60 0.57 0.52 0.47 0.45 0.44 0.39 0.36 0.35 0.34 0.33 0.30 0.26 0.24 0.31 0.36 0.30 0.33 0.36 0.31 0.33 0.33 0.32 0.33
0.58 0.58 0.58 0.60 0.60 0.61 0.61 0.62 0.63 0.63 0.63 0.63 0.63 0.62 0.60 0.57 0.53 0.48 0.46 0.43 0.39 0.36 0.33 0.32 0.30 0.29 0.28 0.28 0.27 0.31 0.36 0.32 0.31 0.29 0.34 0.39 0.40 0.41
0.50 0.54 0.57 0.58 0.58 0.59 0.60 0.59 0.60 0.60 0.60 0.59 0.60 0.59 0.58 0.56 0.54 0.52 0.48 0.46 0.43 0.38 0.32 0.29 0.31 0.35 0.33 0.33 0.27 0.25 0.30 0.37 0.38 0.33 0.36 0.38 0.32 0.33
0.46 0.48 0.51 0.55 0.56 0.57 0.57 0.58 0.57 0.58 0.58 0.57 0.57 0.57 0.57 0.56 0.54 0.53 0.50 0.46 0.45 0.40 0.37 0.37 0.38 0.37 0.33 0.29 0.25 0.25 0.27 0.29 0.33 0.36 0.39 0.40 0.37 0.33
0.40 0.44 0.47 0.50 0.53 0.54 0.55 0.55 0.55 0.56 0.56 0.56 0.56 0.56 0.55 0.53 0.54 0.53 0.52 0.50 0.50 0.46 0.42 0.38 0.38 0.38 0.35 0.33 0.29 0.26 0.26 0.27 0.27 0.28 0.32 0.40 0.42 0.44

GFSNE_prec_pwat_129.txt.gz
Precipitable_Water
1.24 1.31 1.30 1.31 1.37 1.33 1.27 1.25 1.11 0.91 0.90 0.98 0.93 0.96 0.89 0.85 0.81 0.75 0.72 0.72 0.70 0.70 0.72 0.72 0.73 0.77 0.79 0.81 0.83 0.84 0.79 0.81 0.79 0.81 0.79 0.81 0.85 0.84
1.29 1.32 1.33 1.37 1.36 1.35 1.31 1.31 1.23 1.09 0.90 1.03 0.96 0.85 0.86 0.83 0.79 0.73 0.69 0.68 0.69 0.68 0.70 0.73 0.75 0.77 0.77 0.78 0.80 0.81 0.81 0.79 0.76 0.78 0.78 0.80 0.89 0.91
1.32 1.31 1.31 1.36 1.33 1.34 1.32 1.32 1.22 1.17 0.99 1.04 0.98 0.87 0.80 0.77 0.75 0.73 0.70 0.69 0.65 0.66 0.69 0.72 0.73 0.75 0.77 0.78 0.79 0.79 0.77 0.76 0.79 0.79 0.79 0.81 0.89 1.03
1.27 1.29 1.27 1.35 1.33 1.34 1.30 1.23 1.23 1.20 1.05 0.94 0.91 0.82 0.77 0.78 0.73 0.68 0.67 0.67 0.65 0.67 0.69 0.71 0.74 0.74 0.76 0.76 0.76 0.77 0.76 0.77 0.81 0.79 0.83 0.84 0.96 0.97
1.31 1.27 1.28 1.28 1.28 1.29 1.27 1.21 1.19 1.14 1.06 0.96 0.86 0.85 0.79 0.78 0.71 0.69 0.64 0.62 0.63 0.66 0.68 0.68 0.69 0.73 0.76 0.75 0.75 0.76 0.76 0.77 0.80 0.83 0.82 0.84 0.95 0.98
1.27 1.30 1.31 1.30 1.27 1.25 1.25 1.22 1.14 1.11 1.06 0.97 0.91 0.85 0.78 0.77 0.74 0.67 0.60 0.63 0.60 0.65 0.66 0.67 0.69 0.72 0.74 0.73 0.73 0.73 0.75 0.77 0.81 0.82 0.80 0.81 0.81 0.91
1.26 1.33 1.36 1.28 1.31 1.32 1.26 1.19 1.17 1.10 1.00 0.96 0.89 0.85 0.79 0.72 0.68 0.67 0.61 0.62 0.62 0.63 0.61 0.63 0.64 0.67 0.71 0.73 0.73 0.73 0.73 0.75 0.78 0.81 0.83 0.81 0.79 0.78
1.24 1.30 1.33 1.32 1.30 1.31 1.30 1.28 1.21 1.09 1.00 0.92 0.87 0.82 0.78 0.75 0.71 0.66 0.62 0.58 0.52 0.66 0.60 0.58 0.64 0.63 0.69 0.71 0.73 0.74 0.74 0.72 0.75 0.77 0.79 0.77 0.76 0.77
1.29 1.29 1.30 1.34 1.33 1.30 1.25 1.27 1.20 1.15 1.04 0.94 0.88 0.85 0.80 0.77 0.73 0.66 0.63 0.59 0.56 0.61 0.59 0.53 0.59 0.58 0.65 0.70 0.73 0.75 0.75 0.75 0.75 0.75 0.76 0.76 0.74 0.73
1.29 1.29 1.26 1.25 1.26 1.22 1.18 1.14 1.08 1.02 1.00 0.96 0.92 0.89 0.85 0.79 0.73 0.69 0.66 0.63 0.63 0.62 0.62 0.50 0.58 0.57 0.62 0.66 0.71 0.75 0.75 0.73 0.71 0.71 0.72 0.71 0.72 0.74
1.20 1.20 1.19 1.17 1.16 1.12 1.07 1.00 0.95 0.94 0.97 0.95 0.93 0.88 0.83 0.78 0.74 0.69 0.62 0.58 0.54 0.57 0.62 0.57 0.57 0.56 0.59 0.62 0.66 0.70 0.72 0.73 0.73 0.70 0.70 0.70 0.68 0.69
1.10 1.11 1.12 1.09 1.08 1.03 0.95 0.89 0.86 0.89 0.87 0.89 0.88 0.83 0.78 0.74 0.72 0.69 0.65 0.58 0.57 0.55 0.63 0.58 0.57 0.57 0.52 0.58 0.61 0.64 0.67 0.70 0.71 0.70 0.69 0.68 0.68 0.67
1.01 1.01 1.03 1.03 1.02 1.01 0.98 0.95 0.90 0.90 0.88 0.81 0.77 0.75 0.71 0.68 0.66 0.66 0.67 0.63 0.59 0.58 0.64 0.62 0.57 0.55 0.53 0.53 0.57 0.59 0.62 0.64 0.66 0.68 0.68 0.67 0.67 0.66
0.92 0.95 0.95 0.96 0.96 0.96 0.94 0.91 0.88 0.83 0.79 0.76 0.74 0.70 0.67 0.65 0.64 0.63 0.62 0.62 0.64 0.62 0.63 0.61 0.55 0.54 0.51 0.51 0.51 0.57 0.59 0.61 0.60 0.61 0.62 0.63 0.65 0.68
0.87 0.86 0.87 0.89 0.89 0.89 0.88 0.85 0.84 0.80 0.76 0.73 0.70 0.69 0.68 0.67 0.64 0.61 0.60 0.59 0.57 0.56 0.56 0.57 0.54 0.53 0.52 0.50 0.50 0.52 0.52 0.56 0.58 0.58 0.56 0.53 0.52 0.60
0.77 0.79 0.82 0.83 0.84 0.83 0.82 0.82 0.80 0.78 0.74 0.72 0.71 0.72 0.70 0.66 0.62 0.59 0.54 0.52 0.49 0.47 0.50 0.49 0.49 0.48 0.45 0.47 0.48 0.48 0.53 0.51 0.51 0.53 0.54 0.46 0.47 0.46
0.67 0.68 0.69 0.72 0.73 0.74 0.73 0.73 0.74 0.73 0.70 0.71 0.69 0.68 0.66 0.64 0.61 0.59 0.55 0.51 0.47 0.44 0.43 0.44 0.45 0.44 0.43 0.42 0.39 0.41 0.43 0.47 0.50 0.54 0.52 0.43 0.39 0.45
0.57 0.56 0.59 0.61 0.62 0.64 0.66 0.66 0.67 0.67 0.68 0.68 0.67 0.66 0.65 0.64 0.62 0.60 0.57 0.52 0.47 0.44 0.43 0.40 0.40 0.37 0.36 0.36 0.37 0.31 0.33 0.36 0.41 0.45 0.49 0.42 0.37 0.40
0.48 0.49 0.50 0.53 0.55 0.57 0.58 0.61 0.61 0.64 0.66 0.64 0.63 0.63 0.63 0.63 0.61 0.59 0.56 0.52 0.48 0.46 0.43 0.40 0.38 0.34 0.29 0.26 0.30 0.36 0.30 0.31 0.31 0.34 0.41 0.34 0.29 0.33
0.47 0.46 0.46 0.47 0.49 0.51 0.53 0.55 0.57 0.60 0.60 0.60 0.60 0.60 0.60 0.59 0.58 0.58 0.56 0.51 0.48 0.47 0.42 0.39 0.35 0.34 0.30 0.29 0.29 0.33 0.36 0.32 0.32 0.30 0.32 0.34 0.34 0.37
0.40 0.42 0.45 0.46 0.47 0.48 0.50 0.52 0.54 0.55 0.57 0.57 0.58 0.58 0.58 0.57 0.56 0.57 0.56 0.54 0.50 0.48 0.43 0.38 0.36 0.40 0.38 0.36 0.29 0.27 0.30 0.34 0.34 0.32 0.32 0.29 0.28 0.32
0.34 0.37 0.39 0.42 0.44 0.46 0.48 0.50 0.50 0.52 0.54 0.55 0.55 0.56 0.57 0.57 0.55 0.54 0.54 0.53 0.52 0.50 0.46 0.43 0.42 0.41 0.38 0.34 0.29 0.28 0.28 0.31 0.32 0.34 0.37 0.34 0.29 0.27
0.30 0.32 0.34 0.37 0.39 0.40 0.44 0.47 0.48 0.49 0.51 0.52 0.54 0.54 0.55 0.53 0.54 0.53 0.52 0.52 0.52 0.50 0.49 0.44 0.43 0.42 0.38 0.36 0.35 0.32 0.30 0.29 0.30 0.29 0.30 0.35 0.35 0.38

GFSNE_prec_pwat_132.txt.gz
Precipitable_Water
1.23 1.22 1.16 1.16 1.26 1.25 1.22 1.25 1.10 0.96 0.98 1.08 1.09 1.19 1.18 1.17 1.08 0.97 0.84 0.77 0.73 0.70 0.70 0.71 0.73 0.73 0.75 0.78 0.79 0.79 0.81 0.82 0.79 0.81 0.80 0.80 0.78 0.79
1.20 1.28 1.18 1.16 1.25 1.29 1.29 1.31 1.24 1.13 1.00 1.11 1.13 1.16 1.19 1.14 1.10 1.00 0.86 0.77 0.73 0.70 0.70 0.69 0.71 0.75 0.77 0.75 0.77 0.78 0.78 0.78 0.79 0.78 0.78 0.78 0.79 0.79
1.22 1.27 1.23 1.22 1.24 1.31 1.33 1.32 1.26 1.21 1.05 1.10 1.14 1.16 1.14 1.09 1.08 1.02 0.91 0.78 0.72 0.70 0.69 0.69 0.71 0.75 0.77 0.75 0.74 0.75 0.76 0.76 0.78 0.77 0.80 0.80 0.80 0.87
1.19 1.24 1.23 1.24 1.26 1.31 1.30 1.27 1.28 1.24 1.16 1.06 1.10 1.07 1.04 1.07 1.03 0.95 0.89 0.82 0.74 0.71 0.69 0.69 0.70 0.73 0.75 0.75 0.75 0.74 0.75 0.76 0.78 0.79 0.80 0.83 0.88 0.92
1.27 1.23 1.19 1.22 1.19 1.24 1.26 1.26 1.26 1.28 1.23 1.16 1.08 1.08 1.05 1.04 1.03 0.95 0.91 0.81 0.74 0.69 0.69 0.71 0.74 0.75 0.76 0.77 0.76 0.75 0.75 0.76 0.79 0.80 0.80 0.83 0.94 0.96
1.25 1.21 1.19 1.18 1.21 1.23 1.25 1.26 1.26 1.24 1.21 1.16 1.08 0.99 1.03 1.04 1.03 0.93 0.86 0.83 0.72 0.70 0.69 0.70 0.74 0.77 0.78 0.79 0.77 0.75 0.74 0.76 0.80 0.82 0.82 0.79 0.81 0.87
1.23 1.20 1.22 1.24 1.25 1.18 1.22 1.25 1.25 1.19 1.15 1.13 1.05 1.00 0.98 0.95 0.91 0.89 0.83 0.79 0.74 0.70 0.67 0.69 0.73 0.75 0.77 0.79 0.76 0.76 0.76 0.77 0.79 0.82 0.83 0.80 0.79 0.80
1.23 1.25 1.27 1.26 1.23 1.26 1.29 1.31 1.25 1.22 1.14 1.11 1.06 1.01 0.97 0.97 0.93 0.85 0.81 0.75 0.67 0.76 0.69 0.67 0.73 0.70 0.73 0.77 0.77 0.77 0.76 0.76 0.77 0.79 0.80 0.79 0.78 0.77
1.28 1.29 1.27 1.29 1.28 1.26 1.29 1.31 1.32 1.33 1.27 1.18 1.07 1.02 0.97 0.96 0.90 0.85 0.81 0.76 0.70 0.74 0.73 0.66 0.71 0.66 0.72 0.75 0.75 0.76 0.75 0.76 0.76 0.77 0.77 0.77 0.76 0.74
1.25 1.25 1.25 1.24 1.26 1.27 1.25 1.23 1.23 1.23 1.22 1.18 1.11 1.05 1.04 0.99 0.94 0.90 0.84 0.79 0.75 0.73 0.72 0.59 0.65 0.62 0.65 0.68 0.72 0.75 0.76 0.76 0.75 0.75 0.75 0.74 0.74 0.74
1.21 1.21 1.20 1.17 1.19 1.22 1.16 1.13 1.14 1.12 1.16 1.12 1.07 1.05 1.01 0.99 0.97 0.89 0.79 0.72 0.65 0.65 0.70 0.64 0.63 0.61 0.64 0.66 0.71 0.74 0.74 0.74 0.74 0.72 0.72 0.72 0.70 0.70
1.08 1.11 1.12 1.12 1.11 1.12 1.07 1.04 0.99 1.00 1.01 1.00 0.98 0.97 0.97 0.94 0.94 0.88 0.80 0.69 0.66 0.62 0.68 0.63 0.62 0.63 0.59 0.64 0.65 0.66 0.68 0.71 0.71 0.71 0.70 0.69 0.68 0.66
0.94 0.96 0.99 1.05 1.04 1.02 1.01 0.97 0.94 0.96 0.94 0.92 0.91 0.90 0.89 0.88 0.86 0.83 0.80 0.74 0.66 0.63 0.69 0.68 0.63 0.62 0.61 0.58 0.60 0.60 0.62 0.64 0.66 0.68 0.69 0.69 0.68 0.67
0.78 0.83 0.88 0.90 0.90 0.92 0.92 0.92 0.93 0.91 0.87 0.85 0.83 0.81 0.79 0.78 0.78 0.78 0.78 0.76 0.74 0.70 0.71 0.69 0.62 0.60 0.58 0.55 0.53 0.57 0.58 0.60 0.61 0.60 0.63 0.65 0.65 0.66
0.66 0.70 0.74 0.76 0.80 0.82 0.83 0.86 0.85 0.82 0.80 0.78 0.75 0.76 0.78 0.78 0.76 0.74 0.74 0.72 0.70 0.69 0.69 0.68 0.63 0.61 0.57 0.54 0.52 0.53 0.52 0.55 0.57 0.56 0.57 0.59 0.59 0.58
0.60 0.63 0.65 0.68 0.70 0.71 0.72 0.74 0.75 0.76 0.76 0.73 0.72 0.74 0.73 0.72 0.71 0.71 0.68 0.66 0.62 0.59 0.61 0.62 0.60 0.57 0.52 0.51 0.49 0.48 0.50 0.49 0.52 0.54 0.55 0.56 0.58 0.56
0.52 0.54 0.54 0.55 0.57 0.60 0.63 0.65 0.66 0.66 0.66 0.68 0.69 0.68 0.68 0.67 0.66 0.67 0.65 0.62 0.56 0.53 0.51 0.53 0.53 0.52 0.51 0.47 0.42 0.42 0.41 0.44 0.50 0.53 0.53 0.51 0.50 0.50
0.45 0.44 0.45 0.48 0.49 0.51 0.52 0.54 0.58 0.59 0.60 0.61 0.63 0.64 0.63 0.62 0.62 0.62 0.63 0.61 0.56 0.54 0.52 0.51 0.49 0.45 0.44 0.44 0.44 0.38 0.37 0.36 0.39 0.44 0.47 0.46 0.47 0.48
0.40 0.40 0.41 0.44 0.46 0.47 0.49 0.49 0.49 0.53 0.57 0.56 0.57 0.58 0.60 0.60 0.58 0.58 0.58 0.58 0.57 0.56 0.53 0.50 0.48 0.44 0.38 0.34 0.35 0.40 0.31 0.31 0.32 0.33 0.36 0.37 0.37 0.43
0.34 0.34 0.35 0.39 0.41 0.43 0.46 0.47 0.48 0.49 0.50 0.51 0.52 0.54 0.54 0.56 0.55 0.54 0.55 0.54 0.53 0.54 0.52 0.49 0.47 0.45 0.38 0.34 0.32 0.35 0.38 0.34 0.33 0.31 0.31 0.33 0.36 0.44
0.28 0.30 0.32 0.34 0.36 0.38 0.41 0.43 0.45 0.45 0.47 0.47 0.48 0.49 0.52 0.52 0.52 0.53 0.53 0.53 0.52 0.51 0.50 0.49 0.47 0.49 0.46 0.43 0.35 0.31 0.34 0.39 0.38 0.33 0.32 0.29 0.27 0.32
0.24 0.27 0.28 0.30 0.32 0.35 0.36 0.37 0.40 0.42 0.44 0.46 0.46 0.48 0.49 0.51 0.49 0.51 0.51 0.50 0.50 0.50 0.50 0.51 0.50 0.48 0.45 0.40 0.34 0.32 0.32 0.35 0.36 0.35 0.35 0.33 0.27 0.24
0.23 0.25 0.26 0.27 0.30 0.31 0.32 0.34 0.35 0.38 0.41 0.43 0.44 0.45 0.47 0.47 0.50 0.50 0.50 0.50 0.49 0.48 0.48 0.47 0.48 0.49 0.45 0.41 0.39 0.36 0.34 0.33 0.32 0.31 0.31 0.35 0.35 0.36